[[{"header":{"parameterUnit":"m.s-1","parameterCategory":1,"la1":31.0,"la2":29.5877,"lo1":-88.7671,"lo2":-86.6584,"dy":0.0162,"dx":0.0185,"nx":115,"ny":88,"refTime":"2026-04-30T12:00:00:Z","depth":0,"parameterNumber":2,"parameterNumberName":"U-component_of_WINDS"},"data":[0.0,0.0,0.0,0.0,0.0,0.0,0.0,0.0,0.0,0.0,0.0,0.0,0.0,0.0,0.0,0.0,0.0,0.0,0.0,0.0,0.0,0.0,0.0,0.0,0.0,0.0,0.0,0.0,0.0,0.0,0.0,0.0,0.0,0.0,0.0,0.0,0.0,0.0,0.0,0.0,0.0,0.0,0.0,0.0,0.0,0.0,0.0,0.0,0.0,0.0,0.0,0.0,0.0,0.0,0.0,0.0,0.0,0.0,0.0,0.0,0.0,0.0,0.0,0.0,0.0,0.0,0.0,0.0,0.0,0.0,0.0,0.0,0.0,0.0,0.0,0.0,0.0,0.0,0.0,0.0,0.0,0.0,0.0,0.0,0.0,0.0,0.0,0.0,0.0,0.0,0.0,0.0,0.0,0.0,0.0,0.0,0.0,0.0,0.0,0.0,0.0,0.0,0.0,0.0,0.0,0.0,0.0,0.0,0.0,0.0,0.0,0.0,0.0,0.0,0.0,0.0,0.0,0.0,0.0,0.0,0.0,0.0,0.0,0.0,0.0,0.0,0.0,0.0,0.0,0.0,0.0,0.0,0.0,0.0,0.0,0.0,0.0,0.0,0.0,0.0,0.0,0.0,0.0,0.0,0.0,0.0,0.0,0.0,0.0,0.0,0.0,0.0,0.0,0.0,0.0,0.0,0.0,0.0,0.0,0.0,0.0,0.0,0.0,0.0,0.0,0.0,0.0,0.0,0.0,0.0,0.0,0.0,0.0,0.0,0.0,0.0,0.0,0.0,0.0,0.0,0.0,0.0,0.0,0.0,0.0,0.0,0.0,0.0,0.0,0.0,0.0,0.0,0.0,0.0,0.0,0.0,0.0,0.0,0.0,0.0,0.0,0.0,0.0,0.0,0.0,0.0,0.0,0.0,0.0,0.0,0.0,0.0,0.0,0.0,0.0,0.0,0.0,0.0,0.0,0.0,0.0,0.0,0.0,0.0,0.0,0.0,0.0,0.0,0.0,0.0,0.0,0.0,0.0,0.0,0.0,0.0,0.0,0.0,0.0,0.0,0.0,0.0,0.0,0.0,0.0,0.0,0.0,0.0,0.0,0.0,0.0,0.0,0.0,0.0,0.0,0.0,0.0,0.0,0.0,0.0,0.0,0.0,0.0,0.0,0.0,0.0,0.0,0.0,0.0,0.0,0.0,0.0,0.0,0.0,0.0,0.0,0.0,0.0,0.0,0.0,0.0,0.0,0.0,0.0,0.0,0.0,0.0,0.0,0.0,0.0,0.0,0.0,0.0,0.0,0.0,0.0,0.0,0.0,0.0,0.0,0.0,0.0,0.0,0.0,0.0,0.0,0.0,0.0,0.0,0.0,0.0,0.0,0.0,0.0,0.0,0.0,0.0,0.0,0.0,0.0,0.0,0.0,0.0,0.0,0.0,0.0,0.0,0.0,0.0,0.0,0.0,0.0,0.0,0.0,0.0,0.0,0.0,0.0,0.0,0.0,0.0,0.0,0.0,0.0,0.0,0.0,0.0,0.0,0.0,0.0,0.0,0.0,0.0,0.0,0.0,0.0,0.0,0.0,0.0,0.0,0.0,0.0,0.0,0.0,0.0,0.0,0.0,0.0,0.0,0.0,0.0,0.0,0.0,0.0,0.0,0.0,0.0,0.0,0.0,0.0,0.0,0.0,0.0,0.0,0.0,0.0,0.0,0.0,0.0,0.0,0.0,0.0,0.0,0.0,0.0,0.0,0.0,0.0,0.0,0.0,0.0,0.0,0.0,0.0,0.0,0.0,0.0,0.0,0.0,0.0,0.0,0.0,0.0,0.0,0.0,0.0,0.0,0.0,0.0,0.0,0.0,0.0,0.0,0.0,0.0,0.0,0.0,0.0,0.0,0.0,0.0,0.0,0.0,0.0,0.0,0.0,0.0,0.0,0.0,0.0,0.0,0.0,0.0,0.0,0.0,0.0,0.0,0.0,0.0,0.0,0.0,0.0,0.0,0.0,0.0,0.0,0.0,0.0,0.0,0.0,0.0,0.0,0.0,0.0,0.0,0.0,0.0,0.0,0.0,0.0,0.0,0.0,0.0,0.0,0.0,0.0,0.0,0.0,0.0,0.0,0.0,0.0,0.0,0.0,0.0,0.0,0.0,0.0,0.0,0.0,0.0,0.0,0.0,0.0,0.0,0.0,0.0,0.0,0.0,0.0,0.0,0.0,0.0,0.0,0.0,0.0,0.0,0.0,0.0,0.0,0.0,0.0,0.0,0.0,0.0,0.0,0.0,0.0,0.0,0.0,0.0,0.0,0.0,0.0,0.0,0.0,0.0,0.0,0.0,0.0,0.0,0.0,0.0,0.0,0.0,0.0,0.0,0.0,0.0,0.0,0.0,0.0,0.0,0.0,0.0,0.0,0.0,0.0,0.0,0.0,0.0,0.0,0.0,0.0,0.0,0.0,0.0,0.0,0.0,0.0,0.0,0.0,0.0,0.0,0.0,0.0,0.0,0.0,0.0,0.0,0.0,0.0,0.0,0.0,0.0,0.0,0.0,0.0,0.0,0.0,0.0,0.0,0.0,0.0,0.0,0.0,0.0,0.0,0.0,0.0,0.0,0.0,0.0,0.0,0.0,0.0,0.0,0.0,0.0,0.0,0.0,0.0,0.0,0.0,0.0,0.0,0.0,0.0,0.0,0.0,0.0,0.0,0.0,0.0,0.0,0.0,0.0,0.0,0.0,0.0,0.0,0.0,0.0,0.0,0.0,0.0,0.0,0.0,0.0,0.0,0.0,0.0,0.0,0.0,0.0,0.0,0.0,0.0,0.0,0.0,0.0,0.0,0.0,0.0,0.0,0.0,0.0,0.0,0.0,0.0,0.0,0.0,0.0,0.0,0.0,0.0,0.0,0.0,0.0,0.0,0.0,0.0,0.0,0.0,0.0,0.0,0.0,0.0,0.0,0.0,0.0,0.0,0.0,0.0,0.0,0.0,0.0,0.0,0.0,0.0,0.0,0.0,0.0,0.0,0.0,0.0,0.0,0.0,0.0,0.0,0.0,0.0,0.0,0.0,0.0,0.0,0.0,0.0,0.0,0.0,0.0,0.0,0.0,0.0,0.0,0.0,0.0,0.0,0.0,0.0,0.0,0.0,0.0,0.0,0.0,0.0,0.0,0.0,0.0,0.0,0.0,0.0,0.0,0.0,0.0,0.0,0.0,0.0,0.0,0.0,0.0,0.0,0.0,0.0,0.0,0.0,0.0,0.0,0.0,0.0,0.0,0.0,0.0,0.0,0.0,0.0,0.0,0.0,0.0,0.0,0.0,0.0,0.0,0.0,0.0,0.0,0.0,0.0,0.0,0.0,0.0,0.0,0.0,0.0,0.0,0.0,0.0,0.0,0.0,0.0,0.0,0.0,0.0,0.0,0.0,0.0,0.0,0.0,0.0,0.0,0.0,0.0,0.0,0.0,0.0,0.0,0.0,0.0,0.0,0.0,0.0,0.0,0.0,0.0,0.0,0.0,0.0,0.0,0.0,0.0,0.0,0.0,0.0,0.0,0.0,0.0,0.0,0.0,0.0,0.0,0.0,0.0,0.0,0.0,0.0,0.0,0.0,0.0,0.0,0.0,0.0,0.0,0.0,0.0,0.0,0.0,0.0,0.0,0.0,0.0,0.0,0.0,0.0,0.0,0.0,0.0,0.0,0.0,0.0,0.0,0.0,0.0,0.0,0.0,0.0,0.0,0.0,0.0,0.0,0.0,0.0,0.0,0.0,0.0,0.0,0.0,0.0,0.0,0.0,0.0,0.0,0.0,0.0,0.0,0.0,0.0,0.0,0.0,0.0,0.0,0.0,0.0,0.0,0.0,0.0,0.0,0.0,0.0,0.0,0.0,0.0,0.0,0.0,0.0,0.0,0.0,0.0,0.0,0.0,0.0,0.0,0.0,0.0,0.0,0.0,0.0,0.0,0.0,0.0,0.0,0.0,0.0,0.0,0.0,0.0,0.0,0.0,0.0,0.0,0.0,0.0,0.0,0.0,0.0,0.0,0.0,0.0,0.0,0.0,0.0,0.0,0.0,0.0,0.0,0.0,0.0,0.0,0.0,0.0,0.0,0.0,0.0,0.0,0.0,0.0,0.0,0.0,0.0,0.0,0.0,0.0,0.0,0.0,0.0,0.0,0.0,0.0,0.0,0.0,0.0,0.0,0.0,0.0,0.0,0.0,0.0,0.0,0.0,0.0,0.0,0.0,0.0,0.0,0.0,0.0,0.0,2.3427,0.0,0.0,0.0,0.0,0.0,0.0,0.0,0.0,0.0,0.0,0.0,0.0,0.0,0.0,0.0,0.0,0.0,0.0,0.0,0.0,0.0,0.0,0.0,0.0,0.0,0.0,0.0,0.0,0.0,0.0,0.0,0.0,0.0,0.0,0.0,0.0,0.0,0.0,0.0,0.0,0.0,0.0,0.0,0.0,0.0,0.0,0.0,0.0,0.0,0.0,0.0,0.0,0.0,0.0,0.0,0.0,0.0,0.0,0.0,0.0,0.0,0.0,0.0,0.0,0.0,0.0,0.0,0.0,0.0,0.0,0.0,0.0,0.0,0.0,0.0,0.0,0.0,0.0,0.0,0.0,0.0,0.0,0.0,0.0,0.0,0.0,0.0,0.0,0.0,0.0,0.0,0.0,0.0,0.0,0.0,0.0,0.0,0.0,0.0,0.0,0.0,0.0,0.0,0.0,0.0,0.0,0.0,0.0,0.0,0.0,2.6539,2.6201,2.5084,2.4323,2.3985,0.0,0.0,0.0,0.0,0.0,0.0,0.0,0.0,0.0,0.0,0.0,0.0,0.0,0.0,0.0,0.0,0.0,0.0,0.0,0.0,0.0,0.0,0.0,0.0,0.0,0.0,0.0,0.0,0.0,0.0,0.0,0.0,0.0,0.0,0.0,0.0,0.0,0.0,0.0,0.0,0.0,0.0,0.0,0.0,0.0,0.0,0.0,0.0,0.0,0.0,0.0,0.0,0.0,0.0,0.0,0.0,0.0,0.0,0.0,0.0,0.0,0.0,0.0,0.0,0.0,0.0,0.0,0.0,0.0,0.0,0.0,0.0,0.0,0.0,0.0,0.0,0.0,0.0,0.0,0.0,0.0,0.0,0.0,0.0,0.0,0.0,0.0,0.0,0.0,0.0,0.0,0.0,0.0,0.0,0.0,0.0,0.0,0.0,0.0,0.0,0.0,0.0,0.0,0.0,0.0,0.0,0.0,0.0,0.0,0.0,0.0,0.0,2.5761,2.4782,2.4334,0.0,0.0,0.0,0.0,0.0,0.0,0.0,0.0,0.0,0.0,0.0,0.0,0.0,0.0,0.0,0.0,0.0,0.0,0.0,0.0,0.0,0.0,0.0,0.0,0.0,0.0,0.0,0.0,0.0,0.0,0.0,0.0,0.0,0.0,0.0,0.0,0.0,0.0,0.0,0.0,0.0,0.0,0.0,0.0,0.0,0.0,0.0,0.0,0.0,0.0,0.0,0.0,0.0,0.0,0.0,0.0,0.0,0.0,0.0,0.0,0.0,0.0,0.0,0.0,0.0,0.0,0.0,0.0,0.0,0.0,0.0,0.0,0.0,0.0,0.0,0.0,0.0,0.0,0.0,0.0,0.0,0.0,0.0,0.0,0.0,0.0,0.0,0.0,0.0,0.0,0.0,0.0,0.0,0.0,0.0,0.0,0.0,0.0,0.0,0.0,0.0,0.0,0.0,0.0,0.0,0.0,0.0,0.0,0.0,0.0,2.7351,2.874,2.7266,0.0,2.4067,0.0,0.0,0.0,0.0,0.0,0.0,0.0,0.0,0.0,0.0,0.0,0.0,0.0,0.0,0.0,0.0,0.0,0.0,0.0,0.0,0.0,0.0,0.0,0.0,0.0,0.0,0.0,0.0,0.0,0.0,0.0,0.0,0.0,0.0,0.0,0.0,0.0,0.0,0.0,0.0,0.0,0.0,0.0,0.0,0.0,0.0,0.0,0.0,0.0,0.0,0.0,0.0,0.0,0.0,0.0,0.0,0.0,0.0,0.0,0.0,0.0,0.0,0.0,0.0,0.0,0.0,0.0,0.0,0.0,0.0,0.0,0.0,0.0,0.0,0.0,0.0,0.0,0.0,0.0,0.0,0.0,0.0,0.0,0.0,0.0,0.0,0.0,0.0,0.0,0.0,0.0,0.0,0.0,0.0,0.0,0.0,0.0,0.0,0.0,0.0,0.0,0.0,0.0,0.0,0.0,0.0,0.0,0.0,0.0,0.0,2.7946,2.8562,2.7335,2.5816,0.0,0.0,0.0,0.0,0.0,0.0,0.0,0.0,0.0,0.0,0.0,0.0,0.0,0.0,0.0,0.0,0.0,0.0,0.0,0.0,0.0,0.0,0.0,0.0,0.0,0.0,0.0,0.0,0.0,0.0,0.0,0.0,0.0,0.0,0.0,0.0,0.0,0.0,0.0,0.0,0.0,0.0,0.0,0.0,0.0,0.0,0.0,0.0,0.0,0.0,0.0,0.0,0.0,0.0,0.0,0.0,0.0,0.0,0.0,0.0,0.0,0.0,0.0,0.0,0.0,0.0,0.0,0.0,0.0,0.0,0.0,0.0,0.0,0.0,0.0,0.0,0.0,0.0,0.0,0.0,0.0,0.0,0.0,0.0,0.0,0.0,0.0,0.0,0.0,0.0,0.0,0.0,0.0,0.0,0.0,0.0,0.0,0.0,0.0,0.0,0.0,0.0,0.0,0.0,0.0,0.0,0.0,0.0,0.0,0.0,2.8115,2.8371,2.8442,2.7368,2.5813,2.3785,0.0,0.0,0.0,0.0,0.0,0.0,0.0,0.0,0.0,0.0,0.0,0.0,0.0,0.0,0.0,0.0,0.0,0.0,0.0,0.0,0.0,0.0,0.0,0.0,0.0,0.0,0.0,0.0,0.0,0.0,0.0,0.0,0.0,0.0,0.0,0.0,0.0,0.0,0.0,0.0,0.0,0.0,0.0,0.0,0.0,0.0,0.0,0.0,0.0,0.0,0.0,0.0,0.0,0.0,0.0,0.0,0.0,0.0,0.0,0.0,0.0,0.0,0.0,0.0,0.0,0.0,0.0,0.0,0.0,0.0,0.0,0.0,0.0,0.0,0.0,0.0,0.0,0.0,0.0,0.0,0.0,0.0,0.0,0.0,0.0,0.0,0.0,0.0,0.0,0.0,0.0,0.0,0.0,0.0,0.0,0.0,0.0,0.0,0.0,0.0,0.0,0.0,0.0,0.0,0.0,0.0,0.0,0.0,0.0,2.9055,2.8528,2.8909,2.7603,2.5742,0.0,0.0,0.0,0.0,0.0,0.0,0.0,0.0,0.0,0.0,0.0,0.0,0.0,0.0,0.0,0.0,0.0,0.0,0.0,0.0,0.0,0.0,0.0,0.0,0.0,0.0,0.0,0.0,0.0,0.0,0.0,0.0,0.0,0.0,0.0,0.0,0.0,0.0,0.0,0.0,0.0,0.0,0.0,0.0,0.0,0.0,0.0,0.0,0.0,0.0,0.0,0.0,0.0,0.0,0.0,0.0,0.0,0.0,0.0,0.0,0.0,0.0,0.0,0.0,0.0,0.0,0.0,0.0,0.0,0.0,0.0,0.0,0.0,0.0,0.0,0.0,0.0,0.0,0.0,0.0,0.0,0.0,0.0,0.0,0.0,0.0,0.0,0.0,0.0,0.0,0.0,0.0,0.0,0.0,0.0,0.0,0.0,0.0,0.0,0.0,0.0,0.0,0.0,0.0,0.0,0.0,0.0,0.0,0.0,2.723,2.7229,2.8019,2.9553,2.7095,2.534,0.0,0.0,0.0,0.0,0.0,0.0,0.0,0.0,0.0,0.0,0.0,0.0,0.0,0.0,0.0,0.0,0.0,0.0,0.0,0.0,0.0,0.0,0.0,0.0,0.0,0.0,0.0,0.0,0.0,0.0,0.0,0.0,0.0,0.0,0.0,0.0,0.0,0.0,0.0,0.0,0.0,0.0,0.0,0.0,0.0,0.0,0.0,0.0,0.0,0.0,0.0,0.0,0.0,0.0,0.0,0.0,0.0,0.0,0.0,0.0,0.0,0.0,0.0,0.0,0.0,0.0,0.0,0.0,0.0,0.0,0.0,0.0,0.0,0.0,0.0,0.0,0.0,0.0,0.0,0.0,0.0,0.0,0.0,0.0,0.0,0.0,0.0,0.0,0.0,0.0,0.0,0.0,0.0,0.0,0.0,0.0,0.0,0.0,0.0,0.0,0.0,0.0,0.0,0.0,0.0,0.0,0.0,0.0,0.0,2.6465,0.0,2.8572,0.0,2.6587,2.4723,0.0,0.0,0.0,0.0,0.0,0.0,0.0,0.0,0.0,0.0,0.0,0.0,0.0,0.0,0.0,0.0,0.0,0.0,0.0,0.0,0.0,0.0,0.0,0.0,0.0,0.0,0.0,0.0,0.0,0.0,0.0,0.0,0.0,0.0,0.0,0.0,0.0,0.0,0.0,0.0,0.0,0.0,0.0,0.0,0.0,0.0,0.0,0.0,0.0,0.0,0.0,0.0,0.0,0.0,0.0,0.0,0.0,0.0,0.0,0.0,0.0,0.0,0.0,0.0,0.0,0.0,0.0,0.0,0.0,0.0,0.0,0.0,0.0,0.0,0.0,0.0,0.0,0.0,0.0,0.0,0.0,0.0,0.0,0.0,0.0,0.0,0.0,0.0,0.0,0.0,0.0,0.0,0.0,0.0,0.0,0.0,0.0,0.0,0.0,0.0,0.0,0.0,0.0,0.0,0.0,0.0,0.0,0.0,2.5773,2.8622,3.0358,3.0064,2.7909,2.6069,2.3871,0.0,0.0,0.0,0.0,0.0,0.0,0.0,0.0,0.0,0.0,0.0,0.0,0.0,0.0,0.0,0.0,0.0,0.0,0.0,0.0,0.0,0.0,0.0,0.0,0.0,0.0,0.0,0.0,0.0,0.0,0.0,0.0,0.0,0.0,0.0,0.0,0.0,0.0,0.0,0.0,0.0,0.0,0.0,0.0,0.0,0.0,0.0,0.0,0.0,0.0,0.0,0.0,0.0,0.0,0.0,0.0,0.0,0.0,0.0,0.0,0.0,0.0,0.0,0.0,0.0,0.0,0.0,0.0,0.0,0.0,0.0,0.0,0.0,0.0,0.0,0.0,0.0,0.0,0.0,0.0,0.0,0.0,0.0,0.0,0.0,0.0,0.0,0.0,0.0,0.0,0.0,0.0,0.0,0.0,0.0,0.0,0.0,0.0,0.0,0.0,0.0,0.0,0.0,0.0,0.0,0.0,0.0,0.0,0.0,2.6556,2.7947,2.8674,2.85,2.5102,2.3505,0.0,0.0,0.0,0.0,0.0,0.0,0.0,0.0,0.0,0.0,0.0,0.0,0.0,0.0,0.0,0.0,0.0,0.0,0.0,0.0,0.0,0.0,0.0,0.0,0.0,0.0,0.0,0.0,0.0,0.0,0.0,0.0,0.0,0.0,0.0,0.0,0.0,0.0,0.0,0.0,0.0,0.0,0.0,0.0,0.0,0.0,0.0,0.0,0.0,0.0,0.0,0.0,0.0,0.0,0.0,0.0,0.0,0.0,0.0,0.0,0.0,0.0,0.0,0.0,0.0,0.0,0.0,0.0,0.0,0.0,0.0,0.0,0.0,0.0,0.0,0.0,0.0,0.0,0.0,0.0,0.0,0.0,0.0,0.0,0.0,0.0,0.0,0.0,0.0,0.0,0.0,0.0,0.0,0.0,0.0,0.0,0.0,0.0,0.0,0.0,0.0,0.0,0.0,0.0,0.0,0.0,0.0,0.0,0.0,2.7489,2.8742,2.937,2.9032,2.5658,2.4017,2.4203,0.0,0.0,0.0,0.0,0.0,0.0,0.0,0.0,0.0,0.0,0.0,0.0,0.0,0.0,0.0,0.0,0.0,0.0,0.0,0.0,0.0,0.0,0.0,0.0,0.0,0.0,0.0,0.0,0.0,0.0,0.0,0.0,0.0,0.0,0.0,0.0,0.0,0.0,0.0,0.0,0.0,0.0,0.0,0.0,0.0,0.0,0.0,0.0,0.0,0.0,0.0,0.0,0.0,0.0,0.0,0.0,0.0,0.0,0.0,0.0,0.0,0.0,0.0,0.0,0.0,0.0,0.0,0.0,0.0,0.0,0.0,0.0,0.0,0.0,0.0,0.0,0.0,0.0,0.0,0.0,0.0,0.0,0.0,0.0,0.0,0.0,0.0,0.0,0.0,0.0,0.0,0.0,0.0,0.0,0.0,0.0,0.0,0.0,0.0,0.0,0.0,0.0,0.0,0.0,0.0,0.0,0.0,0.0,3.07,3.2252,3.1852,2.9356,2.7467,2.5246,0.0,0.0,0.0,0.0,0.0,0.0,0.0,0.0,0.0,0.0,0.0,0.0,0.0,0.0,0.0,0.0,0.0,0.0,0.0,0.0,0.0,0.0,0.0,0.0,0.0,0.0,0.0,0.0,0.0,0.0,0.0,0.0,0.0,0.0,0.0,0.0,0.0,0.0,0.0,0.0,0.0,0.0,0.0,0.0,0.0,0.0,0.0,0.0,0.0,0.0,0.0,0.0,0.0,0.0,0.0,0.0,0.0,0.0,0.0,0.0,0.0,0.0,0.0,0.0,0.0,0.0,0.0,0.0,0.0,0.0,0.0,0.0,0.0,0.0,0.0,0.0,0.0,0.0,0.0,0.0,0.0,0.0,0.0,0.0,0.0,0.0,0.0,0.0,0.0,0.0,0.0,0.0,0.0,0.0,0.0,0.0,0.0,0.0,0.0,0.0,0.0,0.0,0.0,0.0,0.0,0.0,0.0,0.0,0.0,3.3203,3.3837,3.3275,3.1523,2.8339,2.5796,0.0,0.0,0.0,0.0,0.0,0.0,0.0,0.0,0.0,0.0,0.0,0.0,0.0,0.0,0.0,0.0,0.0,0.0,0.0,0.0,0.0,0.0,0.0,0.0,0.0,0.0,0.0,0.0,0.0,0.0,0.0,0.0,0.0,0.0,0.0,0.0,0.0,0.0,0.0,0.0,0.0,0.0,0.0,0.0,0.0,0.0,0.0,0.0,0.0,0.0,0.0,0.0,0.0,0.0,0.0,0.0,0.0,0.0,0.0,0.0,0.0,0.0,0.0,0.0,0.0,0.0,0.0,0.0,0.0,0.0,0.0,0.0,0.0,0.0,0.0,0.0,0.0,0.0,0.0,0.0,0.0,0.0,0.0,0.0,0.0,0.0,0.0,0.0,0.0,0.0,0.0,0.0,0.0,0.0,0.0,0.0,0.0,0.0,0.0,0.0,0.0,0.0,0.0,0.0,0.0,0.0,0.0,0.0,3.266,3.4312,3.5323,3.5137,3.377,3.0458,2.7409,0.0,0.0,0.0,0.0,0.0,0.0,0.0,0.0,0.0,0.0,0.0,0.0,0.0,0.0,0.0,0.0,0.0,0.0,0.0,0.0,0.0,0.0,0.0,0.0,0.0,0.0,0.0,0.0,0.0,0.0,0.0,0.0,0.0,0.0,0.0,0.0,0.0,0.0,0.0,0.0,0.0,0.0,0.0,0.0,0.0,0.0,0.0,0.0,0.0,0.0,0.0,0.0,0.0,0.0,0.0,0.0,0.0,0.0,0.0,0.0,0.0,0.0,0.0,0.0,0.0,0.0,0.0,0.0,0.0,0.0,0.0,0.0,0.0,0.0,0.0,0.0,0.0,0.0,0.0,0.0,0.0,0.0,0.0,0.0,0.0,0.0,0.0,0.0,0.0,0.0,0.0,0.0,0.0,0.0,0.0,0.0,0.0,0.0,0.0,0.0,0.0,0.0,0.0,0.0,0.0,0.0,0.0,0.0,3.4393,3.4719,3.6569,3.6865,3.5469,3.284,2.933,0.0,0.0,0.0,0.0,0.0,0.0,0.0,0.0,0.0,0.0,0.0,0.0,0.0,0.0,0.0,0.0,0.0,0.0,0.0,0.0,0.0,0.0,0.0,0.0,0.0,0.0,0.0,0.0,0.0,0.0,0.0,0.0,0.0,0.0,0.0,0.0,0.0,0.0,0.0,0.0,0.0,0.0,0.0,0.0,0.0,0.0,0.0,0.0,0.0,0.0,0.0,0.0,0.0,0.0,0.0,0.0,0.0,0.0,0.0,0.0,0.0,0.0,0.0,0.0,0.0,0.0,0.0,0.0,0.0,0.0,0.0,0.0,0.0,0.0,0.0,0.0,0.0,0.0,0.0,0.0,0.0,0.0,0.0,0.0,0.0,0.0,0.0,0.0,0.0,0.0,0.0,0.0,0.0,0.0,0.0,0.0,0.0,0.0,0.0,0.0,0.0,0.0,0.0,0.0,0.0,0.0,0.0,0.0,3.4596,3.6754,3.7268,3.6701,3.5136,3.2184,2.9002,0.0,0.0,0.0,0.0,0.0,0.0,0.0,0.0,0.0,0.0,0.0,0.0,0.0,0.0,0.0,0.0,0.0,0.0,0.0,0.0,0.0,0.0,0.0,0.0,0.0,0.0,0.0,0.0,0.0,0.0,0.0,0.0,0.0,0.0,0.0,0.0,0.0,0.0,0.0,0.0,0.0,0.0,0.0,0.0,0.0,0.0,0.0,0.0,1.9696,0.0,0.0,0.0,0.0,0.0,0.0,0.0,0.0,0.0,0.0,0.0,0.0,0.0,0.0,0.0,0.0,0.0,0.0,0.0,0.0,0.0,0.0,0.0,0.0,0.0,0.0,0.0,0.0,0.0,0.0,0.0,0.0,0.0,0.0,0.0,0.0,0.0,0.0,0.0,0.0,0.0,0.0,0.0,0.0,0.0,0.0,0.0,0.0,0.0,0.0,0.0,0.0,0.0,0.0,0.0,0.0,0.0,0.0,0.0,3.5309,3.7375,3.7258,3.6572,3.5422,3.2117,2.8801,0.0,0.0,0.0,0.0,0.0,0.0,0.0,0.0,0.0,0.0,0.0,0.0,0.0,0.0,0.0,0.0,0.0,0.0,0.0,0.0,0.0,0.0,0.0,0.0,0.0,0.0,0.0,0.0,0.0,0.0,0.0,0.0,0.0,0.0,0.0,0.0,0.0,0.0,0.0,0.0,0.0,0.0,0.0,0.0,0.0,0.0,0.0,0.0,0.0,0.0,0.0,0.0,0.0,0.0,0.0,0.0,0.0,0.0,0.0,0.0,0.0,0.0,0.0,0.0,0.0,0.0,0.0,0.0,0.0,0.0,0.0,0.0,0.0,0.0,0.0,0.0,0.0,0.0,0.0,0.0,0.0,0.0,0.0,0.0,0.0,0.0,0.0,0.0,0.0,0.0,0.0,0.0,0.0,0.0,0.0,0.0,0.0,0.0,0.0,0.0,0.0,0.0,0.0,0.0,0.0,0.0,0.0,3.3318,3.5821,3.7228,3.7056,3.6501,3.5538,3.2268,2.8831,2.5279,0.0,0.0,0.0,0.0,0.0,0.0,0.0,0.0,0.0,0.0,0.0,0.0,0.0,0.0,0.0,0.0,0.0,0.0,0.0,0.0,0.0,0.0,0.0,0.0,0.0,0.0,0.0,0.0,0.0,0.0,0.0,0.0,0.0,0.0,0.0,0.0,0.0,0.0,1.7925,1.9178,0.0,0.0,0.0,0.0,0.0,0.0,0.0,0.0,1.9735,0.0,0.0,0.0,0.0,0.0,0.0,0.0,0.0,0.0,0.0,0.0,0.0,0.0,0.0,0.0,0.0,0.0,0.0,0.0,0.0,0.0,0.0,0.0,0.0,0.0,0.0,0.0,0.0,0.0,0.0,0.0,0.0,0.0,0.0,0.0,0.0,0.0,0.0,0.0,0.0,0.0,0.0,0.0,0.0,0.0,0.0,0.0,0.0,0.0,0.0,0.0,0.0,0.0,0.0,0.0,0.0,3.2706,3.3442,3.4827,3.6838,3.7399,3.6344,3.3557,3.1995,2.9144,2.5065,0.0,0.0,0.0,0.0,0.0,0.0,0.0,0.0,0.0,0.0,0.0,0.0,0.0,0.0,0.0,0.0,0.0,0.0,0.0,0.0,0.0,0.0,0.0,0.0,0.0,0.0,0.0,0.0,0.0,0.0,0.0,0.0,0.0,0.0,0.0,0.0,0.0,0.0,0.0,2.0342,2.1246,0.0,0.0,0.0,0.0,0.0,0.0,0.0,0.0,1.9765,0.0,0.0,0.0,0.0,0.0,0.0,0.0,0.0,0.0,0.0,0.0,0.0,0.0,0.0,0.0,0.0,0.0,0.0,0.0,0.0,0.0,0.0,0.0,0.0,0.0,0.0,0.0,0.0,0.0,0.0,0.0,0.0,0.0,0.0,0.0,0.0,0.0,0.0,0.0,0.0,0.0,0.0,0.0,0.0,0.0,0.0,0.0,0.0,0.0,0.0,0.0,0.0,0.0,0.0,0.0,3.2213,3.3608,3.5209,3.7192,3.657,3.5217,3.304,3.0784,2.8139,0.0,0.0,0.0,0.0,0.0,0.0,0.0,0.0,0.0,0.0,0.0,0.0,0.0,0.0,0.0,0.0,0.0,0.0,0.0,0.0,0.0,0.0,0.0,0.0,0.0,0.0,0.0,0.0,0.0,0.0,0.0,0.0,0.0,0.0,0.0,0.0,0.0,0.0,0.0,0.0,2.1222,2.1949,2.2652,0.0,0.0,0.0,0.0,0.0,0.0,2.0348,1.9929,0.0,0.0,0.0,0.0,0.0,0.0,0.0,0.0,0.0,0.0,0.0,0.0,0.0,0.0,0.0,0.0,0.0,0.0,0.0,0.0,0.0,0.0,0.0,0.0,0.0,0.0,0.0,0.0,0.0,0.0,0.0,0.0,0.0,0.0,0.0,0.0,0.0,0.0,0.0,0.0,0.0,0.0,0.0,0.0,0.0,0.0,0.0,0.0,0.0,0.0,0.0,0.0,0.0,0.0,0.0,3.1116,3.32,3.5151,3.7013,3.5426,3.391,3.262,2.9795,2.718,0.0,0.0,0.0,0.0,0.0,0.0,0.0,0.0,0.0,0.0,0.0,0.0,0.0,0.0,0.0,0.0,0.0,0.0,0.0,0.0,0.0,0.0,0.0,0.0,0.0,0.0,0.0,0.0,0.0,0.0,0.0,0.0,0.0,0.0,0.0,0.0,0.0,0.0,0.0,0.0,0.0,2.2906,2.4044,2.2996,0.0,0.0,0.0,0.0,2.1126,2.0872,0.0,0.0,0.0,0.0,0.0,0.0,0.0,0.0,0.0,0.0,0.0,0.0,0.0,0.0,0.0,0.0,0.0,0.0,0.0,0.0,0.0,0.0,0.0,0.0,0.0,0.0,0.0,0.0,0.0,0.0,0.0,0.0,0.0,0.0,0.0,0.0,0.0,0.0,0.0,0.0,0.0,0.0,0.0,0.0,0.0,0.0,0.0,0.0,0.0,0.0,0.0,0.0,0.0,0.0,0.0,0.0,2.9929,3.1244,3.296,3.4874,3.4285,3.318,3.1618,2.9806,2.757,0.0,0.0,0.0,0.0,0.0,0.0,0.0,0.0,0.0,0.0,0.0,0.0,0.0,0.0,0.0,0.0,0.0,0.0,0.0,0.0,0.0,0.0,0.0,0.0,0.0,0.0,0.0,0.0,0.0,0.0,0.0,0.0,0.0,0.0,0.0,0.0,0.0,0.0,0.0,0.0,0.0,2.4597,2.3116,2.3176,2.3191,0.0,0.0,2.3071,2.2532,2.334,0.0,0.0,0.0,0.0,0.0,0.0,0.0,0.0,0.0,0.0,0.0,0.0,0.0,0.0,0.0,0.0,0.0,0.0,0.0,0.0,0.0,0.0,0.0,0.0,0.0,0.0,0.0,0.0,0.0,0.0,0.0,0.0,0.0,0.0,0.0,0.0,0.0,0.0,0.0,0.0,0.0,0.0,0.0,0.0,0.0,0.0,0.0,0.0,0.0,0.0,0.0,0.0,0.0,0.0,0.0,2.656,2.9789,3.143,3.3021,3.4558,3.3524,3.2408,3.1399,2.9189,2.6854,0.0,0.0,0.0,0.0,0.0,0.0,0.0,0.0,0.0,0.0,0.0,0.0,0.0,0.0,0.0,0.0,0.0,0.0,0.0,0.0,0.0,0.0,0.0,0.0,0.0,0.0,0.0,0.0,0.0,0.0,0.0,0.0,0.0,0.0,0.0,0.0,0.0,0.0,0.0,0.0,0.0,0.0,2.4343,2.4253,0.0,0.0,0.0,2.3954,2.3295,0.0,0.0,0.0,0.0,0.0,0.0,0.0,0.0,0.0,0.0,0.0,0.0,0.0,0.0,0.0,0.0,0.0,0.0,0.0,0.0,0.0,0.0,0.0,0.0,0.0,0.0,0.0,0.0,0.0,0.0,0.0,0.0,0.0,0.0,0.0,0.0,0.0,0.0,0.0,0.0,0.0,0.0,0.0,0.0,0.0,0.0,0.0,0.0,0.0,0.0,0.0,0.0,0.0,0.0,0.0,0.0,0.0,2.9226,3.1336,3.3008,3.4197,3.2842,3.1825,3.1361,2.8725,0.0,0.0,0.0,0.0,0.0,0.0,0.0,0.0,0.0,0.0,0.0,0.0,0.0,0.0,0.0,0.0,0.0,0.0,0.0,0.0,0.0,0.0,0.0,0.0,0.0,0.0,0.0,1.4656,0.0,0.0,0.0,0.0,0.0,0.0,0.0,0.0,0.0,0.0,0.0,0.0,0.0,0.0,2.4717,2.5719,2.557,2.56,0.0,0.0,2.4941,2.4433,2.533,2.5105,0.0,0.0,0.0,0.0,0.0,0.0,0.0,0.0,0.0,0.0,0.0,0.0,0.0,0.0,0.0,0.0,0.0,0.0,0.0,0.0,0.0,0.0,0.0,0.0,0.0,0.0,0.0,0.0,0.0,0.0,0.0,0.0,0.0,0.0,0.0,0.0,0.0,0.0,0.0,0.0,0.0,0.0,0.0,0.0,0.0,0.0,0.0,0.0,0.0,0.0,0.0,0.0,0.0,0.0,2.5748,2.7564,3.0139,3.2092,3.3152,3.2084,3.1424,3.1336,2.8712,2.6251,0.0,0.0,0.0,0.0,0.0,0.0,0.0,0.0,0.0,0.0,0.0,0.0,0.0,0.0,0.0,0.0,0.0,0.0,0.0,0.0,0.0,0.0,0.0,0.0,0.0,0.0,0.0,0.0,0.0,0.0,0.0,0.0,0.0,0.0,0.0,0.0,0.0,0.0,0.0,0.0,0.0,2.6408,2.6512,2.7006,2.7619,0.0,2.7305,2.6452,2.6393,2.6961,2.6188,2.2469,0.0,0.0,0.0,0.0,0.0,0.0,0.0,0.0,0.0,0.0,0.0,0.0,0.0,0.0,0.0,0.0,0.0,0.0,0.0,0.0,0.0,0.0,0.0,0.0,0.0,0.0,0.0,0.0,0.0,0.0,0.0,0.0,0.0,0.0,0.0,0.0,0.0,0.0,0.0,0.0,0.0,0.0,0.0,0.0,0.0,0.0,0.0,0.0,0.0,0.0,0.0,0.0,0.0,2.5628,2.7417,3.0075,3.1938,3.2993,3.1976,3.1386,3.1386,2.9051,2.6603,0.0,0.0,0.0,0.0,0.0,0.0,0.0,0.0,0.0,0.0,0.0,0.0,0.0,0.0,0.0,0.0,0.0,0.0,0.0,0.0,0.0,0.0,0.0,0.0,0.0,0.0,0.0,0.0,1.6486,1.6783,1.7093,0.0,0.0,0.0,0.0,0.0,0.0,0.0,0.0,0.0,0.0,2.6273,2.7081,2.7769,0.0,0.0,2.8757,2.8293,2.7889,2.7409,2.605,2.3022,2.1476,0.0,0.0,0.0,0.0,0.0,0.0,0.0,0.0,0.0,0.0,0.0,0.0,0.0,0.0,0.0,0.0,0.0,0.0,0.0,0.0,0.0,0.0,0.0,0.0,0.0,0.0,0.0,0.0,0.0,0.0,0.0,0.0,0.0,0.0,0.0,0.0,0.0,0.0,0.0,0.0,0.0,0.0,0.0,0.0,0.0,0.0,0.0,0.0,0.0,0.0,0.0,0.0,2.5588,2.734,3.0011,3.1851,3.2792,3.1888,3.1323,3.111,2.9001,2.6716,0.0,0.0,0.0,0.0,0.0,0.0,0.0,0.0,0.0,0.0,0.0,0.0,0.0,0.0,0.0,0.0,0.0,0.0,0.0,0.0,0.0,0.0,0.0,0.0,0.0,0.0,0.0,0.0,1.7229,1.7464,1.7286,0.0,0.0,0.0,0.0,0.0,0.0,0.0,0.0,0.0,0.0,2.6752,2.8233,2.8861,2.9415,3.0058,2.9669,2.9131,2.8667,2.7674,2.5994,2.3277,0.0,0.0,0.0,0.0,0.0,0.0,0.0,0.0,0.0,0.0,0.0,0.0,0.0,0.0,0.0,0.0,0.0,0.0,0.0,0.0,0.0,0.0,0.0,0.0,0.0,0.0,0.0,2.2697,0.0,0.0,2.0812,0.0,0.0,0.0,0.0,0.0,0.0,0.0,0.0,0.0,0.0,0.0,0.0,0.0,0.0,0.0,0.0,0.0,0.0,0.0,0.0,0.0,0.0,2.5555,2.7314,2.998,3.1662,3.2202,3.1687,3.1148,3.062,2.8473,2.6515,2.473,0.0,0.0,0.0,0.0,0.0,0.0,0.0,0.0,0.0,0.0,0.0,0.0,0.0,0.0,0.0,0.0,0.0,0.0,0.0,0.0,0.0,0.0,0.0,0.0,0.0,0.0,1.6172,1.6253,1.6598,0.0,0.0,0.0,0.0,0.0,0.0,0.0,0.0,0.0,2.5181,2.6692,2.8248,3.0118,3.0447,3.0672,3.1302,2.9894,2.8652,2.8652,2.7852,2.6244,0.0,0.0,0.0,0.0,0.0,0.0,0.0,0.0,0.0,0.0,0.0,0.0,0.0,0.0,0.0,0.0,0.0,0.0,0.0,0.0,0.0,0.0,0.0,0.0,0.0,0.0,0.0,2.744,2.6542,0.0,0.0,0.0,0.0,0.0,0.0,0.0,0.0,0.0,0.0,0.0,2.6858,2.825,0.0,0.0,0.0,0.0,0.0,0.0,0.0,0.0,0.0,0.0,0.0,0.0,2.5211,2.7326,2.9993,3.1662,3.2177,3.1675,3.1135,3.062,2.8812,2.6527,2.3778,0.0,0.0,0.0,0.0,0.0,0.0,0.0,0.0,0.0,0.0,0.0,0.0,0.0,0.0,0.0,0.0,0.0,0.0,0.0,0.0,0.0,0.0,0.0,0.0,0.0,1.7424,0.0,0.0,0.0,0.0,0.0,0.0,0.0,0.0,0.0,0.0,0.0,2.3849,2.5986,2.7799,2.928,3.0372,3.0896,3.127,0.0,0.0,0.0,0.0,0.0,0.0,0.0,0.0,0.0,0.0,0.0,0.0,0.0,0.0,2.5345,2.2003,2.0827,2.0378,2.0363,0.0,0.0,0.0,0.0,0.0,0.0,0.0,0.0,0.0,0.0,0.0,0.0,0.0,0.0,3.0447,2.9549,2.8442,0.0,0.0,0.0,0.0,0.0,0.0,0.0,0.0,2.9827,3.0339,2.8799,3.0194,3.0019,0.0,2.7849,2.627,0.0,0.0,0.0,0.0,0.0,0.0,0.0,0.0,2.5435,2.7808,3.0181,3.1562,3.1888,3.1574,3.1047,3.0331,2.8699,2.6527,2.3754,2.1757,2.0087,0.0,0.0,0.0,0.0,0.0,0.0,0.0,0.0,0.0,0.0,0.0,0.0,0.0,0.0,0.0,0.0,0.0,0.0,0.0,0.0,0.0,0.0,0.0,1.7843,0.0,0.0,0.0,0.0,0.0,0.0,0.0,0.0,0.0,2.1046,2.3008,2.4976,2.677,2.8448,2.9802,3.0586,0.0,0.0,0.0,0.0,0.0,0.0,0.0,2.552,2.4667,2.2975,2.1971,2.2519,2.3864,2.5065,2.555,0.0,0.0,2.361,2.27,2.2232,2.1743,2.1567,2.1724,2.2383,2.245,2.2436,0.0,0.0,0.0,0.0,3.2811,0.0,0.0,0.0,3.3514,3.2975,0.0,3.0947,0.0,0.0,0.0,0.0,2.6548,2.9253,0.0,0.0,3.3408,3.3747,3.1206,3.178,3.1363,3.0181,3.0821,2.994,2.7498,2.4217,0.0,0.0,0.0,0.0,0.0,0.0,2.6178,2.8863,3.0583,3.1424,3.1399,3.1386,3.0871,2.9779,2.8172,2.6565,2.4908,2.3263,2.1619,1.9949,1.8367,0.0,0.0,0.0,0.0,0.0,0.0,0.0,0.0,0.0,0.0,0.0,0.0,0.0,0.0,0.0,0.0,0.0,0.0,0.0,0.0,1.7734,0.0,0.0,0.0,0.0,0.0,0.0,0.0,0.0,0.0,2.1581,2.1799,2.3983,2.6082,2.7583,0.0,0.0,0.0,0.0,3.0481,3.1022,3.053,2.961,2.8133,2.7742,2.7,2.5275,0.0,0.0,2.3514,2.4142,2.4836,2.4531,2.5435,2.625,2.72,2.6146,2.4981,2.3751,2.3316,2.3266,2.3309,2.3697,2.404,3.92,0.0,0.0,0.0,0.0,3.712,3.8227,4.0142,3.8945,3.7212,3.5183,3.4124,0.0,0.0,0.0,0.0,0.0,0.0,3.1231,3.1734,3.3701,3.4031,3.3127,3.3674,3.3356,3.2219,3.2008,3.1146,2.964,2.7876,2.5309,2.2088,0.0,0.0,0.0,0.0,2.7202,2.9478,3.116,3.1788,3.1399,3.1386,3.067,2.9214,2.8335,2.7281,2.6038,2.477,2.3326,2.1656,2.0413,0.0,0.0,0.0,0.0,0.0,0.0,0.0,0.0,0.0,0.0,0.0,0.0,0.0,0.0,0.0,0.0,0.0,0.0,0.0,1.7677,1.7819,1.8028,0.0,0.0,0.0,0.0,0.0,0.0,0.0,0.0,0.0,2.4227,2.5638,2.6837,0.0,0.0,3.0192,3.0174,3.0383,3.0554,3.0721,3.0596,0.0,2.9134,2.8225,2.7445,2.6722,2.64,2.605,2.5586,2.5774,2.6197,2.6594,2.701,2.7178,2.6991,2.6411,2.5729,2.5285,2.4805,2.462,2.5017,2.4883,2.4557,4.2548,4.0713,3.9445,3.9297,3.9826,3.9694,4.0397,4.1724,4.0828,3.9433,3.7788,3.6817,3.4488,3.1273,3.0164,0.0,0.0,0.0,3.2371,3.3116,3.4016,3.4372,3.4236,3.4575,3.4374,3.3709,3.293,3.2227,3.1574,3.0444,2.8231,2.4988,0.0,0.0,2.4807,2.6354,2.821,3.0369,3.1599,3.1951,3.1399,3.0972,3.0281,2.9302,2.8511,2.7783,2.7118,2.5824,2.4469,2.3037,2.192,2.0464,0.0,0.0,0.0,0.0,0.0,0.0,0.0,0.0,0.0,0.0,0.0,1.575,1.493,0.0,0.0,0.0,1.7991,1.8785,1.8704,1.8982,0.0,0.0,0.0,0.0,0.0,0.0,0.0,2.2008,2.3213,2.4443,2.5774,2.6969,2.7845,2.8305,2.9402,3.0078,2.9956,0.0,3.0213,3.0443,3.0414,3.0147,2.9307,2.8608,2.8081,2.7713,2.7344,2.703,2.6816,2.6791,2.6911,2.7159,2.7229,2.7126,2.6777,2.6437,2.603,2.5633,2.5344,2.5318,2.5703,2.5599,2.5473,4.4389,4.4177,4.2342,4.1257,4.071,4.1239,4.0872,3.9911,4.0405,4.0206,3.9516,3.8929,3.7642,3.5724,3.3172,0.0,3.2823,3.3183,3.3596,3.411,3.4625,3.4851,3.4864,3.4864,3.4826,3.4763,3.3759,3.3257,3.3156,3.2114,3.0771,2.9189,2.762,2.7087,2.7356,2.7984,2.9327,3.1361,3.1926,3.1951,3.1386,3.0344,2.9767,2.9704,2.8674,2.8084,2.7996,2.6515,2.5172,2.4104,2.3037,2.1468,1.9346,0.0,0.0,0.0,0.0,0.0,0.0,0.0,0.0,0.0,0.0,0.0,0.0,0.0,0.0,0.0,1.892,0.0,2.0668,2.0756,0.0,0.0,0.0,2.025,2.0928,2.1895,2.2736,2.3326,0.0,0.0,2.6653,2.7984,2.895,2.9001,2.9246,2.9555,3.0053,2.9712,2.9581,3.0118,3.0184,2.9904,2.9201,2.895,2.8711,2.8235,2.8134,2.7883,2.7444,2.7268,2.7067,2.6722,2.6571,2.6508,2.6521,2.6501,2.6138,2.5212,2.5401,2.5661,2.574,2.6093,2.6408,4.409,4.3696,4.3245,4.2677,4.2022,4.2161,4.2389,4.2513,4.2196,4.1175,3.9734,3.9162,3.7912,3.625,3.5595,3.5312,3.5451,3.5558,3.5655,3.5768,3.5906,3.5968,3.5968,3.5968,3.5742,3.5353,3.509,3.4751,3.4311,3.3633,3.2667,3.1449,3.0608,2.9453,2.8021,2.9315,3.047,3.1373,3.1926,3.1951,3.1386,3.0357,2.9591,2.9139,2.8461,2.7908,2.7482,2.6691,2.5749,2.4682,2.3966,2.2774,2.0991,1.9461,0.0,0.0,0.0,0.0,0.0,0.0,0.0,0.0,0.0,1.7709,1.5671,0.0,1.8143,0.0,1.9497,2.0567,2.0706,2.1041,0.0,0.0,2.1794,2.2272,2.3678,2.4067,2.4594,2.5561,2.6502,2.7406,2.8235,2.8687,2.9089,2.9515,2.9682,2.9568,2.9276,2.9504,2.9707,2.9897,2.991,2.9796,2.9605,2.9202,2.8888,2.875,2.8398,2.8059,2.7921,2.7544,2.7243,2.708,2.6728,2.6559,2.6521,2.6521,2.6389,2.6126,2.6176,2.6251,2.6264,2.6364,2.6521,4.3233,4.2922,4.2177,4.1603,4.1311,4.1879,4.1971,4.1762,4.1444,4.0736,3.9749,3.9181,3.8268,3.7098,3.7098,3.7098,3.7098,3.7098,3.696,3.6734,3.6722,3.6609,3.637,3.637,3.6194,3.5893,3.5667,3.5391,3.5077,3.4525,3.3822,3.2968,3.2654,3.165,3.003,3.0394,3.0871,3.1386,3.1687,3.17,3.1386,3.0583,2.9767,2.895,2.8398,2.772,2.6942,2.6389,2.5573,2.4506,2.3929,2.2975,2.1543,2.0334,1.951,0.0,0.0,0.0,0.0,0.0,0.0,0.0,0.0,0.0,0.0,0.0,1.8556,1.9071,2.071,2.1857,2.2133,2.2648,2.3188,2.3715,2.3766,2.433,2.5762,2.5925,2.6239,2.7092,2.7682,2.8247,2.885,2.9151,2.9415,2.9754,2.9779,2.9679,2.9402,2.9603,2.9779,2.9779,2.9779,2.9779,2.9779,2.9528,2.9315,2.9289,2.9063,2.8775,2.8524,2.8235,2.7871,2.7381,2.703,2.681,2.6584,2.6521,2.6521,2.6521,2.6521,2.6521,2.6521,2.6521,2.6521,4.2341,4.2134,4.0516,3.9798,3.9901,4.0958,4.0743,3.9697,3.9697,3.9697,3.9672,3.9182,3.8693,3.8241,3.8228,3.8178,3.8115,3.804,3.7701,3.7199,3.7111,3.6822,3.637,3.637,3.637,3.6345,3.5868,3.5655,3.5642,3.509,3.4562,3.4022,3.3859,3.3257,3.2227,3.1223,3.0934,3.1373,3.1386,3.1386,3.1373,3.0809,2.9967,2.8875,2.8298,2.7482,2.6471,2.5862,2.5134,2.4167,2.3615,2.2887,2.187,2.1154,2.0536,0.0,1.9723,0.0,0.0,0.0,0.0,0.0,0.0,0.0,0.0,1.8834,1.9383,2.0393,2.2176,2.3567,2.4255,2.4808,2.531,2.5762,2.5875,2.6314,2.7256,2.7444,2.767,2.816,2.8699,2.9038,2.9076,2.949,2.9779,2.9779,2.9779,2.9767,2.9779,2.9779,2.9779,2.9779,2.9779,2.9779,2.9779,2.9779,2.9754,2.9767,2.9716,2.9628,2.9126,2.8787,2.835,2.7516,2.7083,2.6881,2.6502,2.6446,2.6521,2.6521,2.6521,2.6521,2.6521,2.6521,2.6521,4.1986,4.1423,4.0681,4.0375,4.0325,4.017,3.9878,3.9697,3.9697,3.9697,3.9685,3.9584,3.9484,3.9371,3.9383,3.9132,3.8693,3.8216,3.7713,3.7161,3.6722,3.6458,3.637,3.637,3.637,3.6358,3.6257,3.6207,3.6194,3.5655,3.5115,3.455,3.3684,3.2893,3.2215,0.0,0.0,0.0,3.1386,3.1386,3.1348,3.0444,2.9402,2.8298,2.7733,0.0,2.5837,2.5661,2.531,2.4707,2.4556,0.0,0.0,0.0,0.0,0.0,0.0,0.0,0.0,0.0,0.0,0.0,2.1034,2.0187,1.9782,2.0216,2.0937,2.2009,2.3227,2.456,2.587,2.649,2.6866,2.6967,2.7356,2.772,2.7946,2.8348,2.8662,2.8762,2.9277,2.9616,2.9616,2.9741,2.9779,2.9779,2.9779,2.9779,2.9779,2.9779,2.9779,2.9779,2.9779,2.9779,2.9779,2.9779,2.9702,2.9779,2.9779,2.9651,2.9437,2.8399,2.7645,2.7284,2.656,2.6008,2.5841,2.6168,2.6477,2.6521,2.6521,2.6521,2.6521,2.6521,2.6521,4.2007,4.1693,4.1153,4.0764,0.0,4.0212,3.9948,3.9697,3.9697,3.9697,3.9697,3.9697,3.9546,3.9283,3.9283,3.8981,3.8442,3.814,3.7701,3.7174,3.6897,3.6621,3.637,3.637,3.637,3.637,3.637,3.637,3.6345,3.6081,3.5667,3.5127,3.4562,3.3872,3.3043,3.2503,3.2089,3.18,3.1788,3.1662,3.1386,3.0859,2.9917,2.8561,2.7984,0.0,0.0,0.0,0.0,0.0,0.0,0.0,0.0,0.0,0.0,2.1682,2.1148,2.108,2.1632,2.1663,2.1811,2.2418,2.2004,2.1272,2.0302,2.0928,2.1789,2.2528,2.3953,2.535,2.6395,2.7232,2.7808,2.8059,2.8348,2.8612,2.89,2.9189,2.9352,2.9377,2.9616,2.9779,2.9779,2.9779,2.9779,2.9779,2.9779,2.9779,2.9779,2.9779,2.9779,2.9779,2.9779,2.9779,2.9702,2.9287,2.8937,2.8937,2.8542,2.8223,2.8131,2.7495,2.6988,2.7191,2.6783,2.6419,2.6457,2.6664,2.6791,2.6609,2.6521,2.6521,2.6521,2.6521,2.6521,4.2296,4.2246,4.1718,4.1229,4.0789,4.0601,4.0212,3.9697,3.9697,0.0,0.0,3.9697,3.9446,3.9019,3.8919,3.8605,3.8153,3.7952,3.7613,3.7186,3.7086,3.6797,3.637,3.637,3.637,3.637,3.637,3.637,3.637,3.637,3.6144,3.5717,3.5604,3.4989,3.3935,3.3345,3.2842,3.2378,3.2265,3.2001,3.1549,3.1348,3.057,2.9114,2.8448,2.756,2.635,2.5853,2.4908,2.3499,2.301,2.2626,2.2254,2.1683,2.1583,2.2051,2.2095,2.2129,2.2299,2.2584,2.2706,2.2637,2.2587,2.1916,2.0636,2.1367,2.219,2.2862,2.4588,2.5953,2.6723,2.7779,2.8586,2.9038,2.9076,2.9264,2.9704,2.9779,2.9754,2.9779,2.9779,2.9779,2.9779,2.9779,2.9779,2.9779,2.9779,2.9779,2.9779,2.9779,2.9702,2.9443,2.9365,2.9365,2.9118,2.845,2.7844,2.7775,2.7128,2.6565,2.6472,2.6307,2.6467,2.7009,2.7082,2.6983,2.7126,2.7189,2.7092,2.6634,2.6521,2.6521,2.6521,2.6521,2.6521,4.2848,4.2823,4.2271,4.1995,4.1844,4.0915,4.0212,3.971,3.9697,3.9697,3.9697,3.9697,3.9647,3.9546,3.9082,3.8818,3.868,3.7739,3.7249,3.7161,3.6709,3.6433,3.637,3.637,3.637,3.637,3.637,3.637,3.637,3.637,3.6307,3.6207,3.578,3.4989,3.3947,3.3357,3.3043,3.2943,3.2466,3.2177,3.2089,3.1198,3.0394,2.9679,2.8662,2.7359,2.5767,2.566,2.5055,2.394,2.3798,2.3787,2.3694,2.308,2.2849,2.2904,2.2915,2.3176,2.3671,2.3782,2.3613,2.3166,2.2756,2.2099,2.1223,2.1568,2.2503,2.3864,2.511,2.6358,2.7719,2.8848,2.9515,2.9628,2.9654,2.9716,2.9804,2.9792,2.9804,2.9829,2.9779,2.9779,2.9779,2.9779,2.9779,2.9779,2.9779,2.9779,2.9702,2.9779,2.9365,2.8609,2.8347,2.7936,2.7383,2.6894,2.6719,2.6719,2.6554,2.6235,2.6235,2.5546,2.5503,2.6442,2.6313,2.6152,2.6602,2.6992,2.7034,2.6659,2.6521,2.6521,2.6521,2.6521,2.6521,4.2986,4.2949,4.271,4.2434,4.207,4.0978,4.0212,3.971,3.9697,3.9697,3.9697,3.9697,3.9521,3.9207,3.8655,3.8228,3.7914,3.7111,3.6734,3.6722,3.6483,3.637,3.637,3.637,3.637,3.637,3.637,3.637,3.637,3.637,3.637,3.6307,3.5529,3.4851,3.4324,3.3508,3.3081,3.3068,3.2817,3.2528,3.2215,3.1738,3.1085,3.0269,2.8852,2.7617,2.6546,2.5645,2.4723,2.3638,2.3627,2.3402,2.2891,2.2604,2.249,2.2422,2.2412,2.2594,2.2881,2.3039,2.3207,2.3157,2.2982,2.2695,2.2305,2.2451,2.2808,2.3564,2.5139,2.6459,2.7186,2.8791,2.9779,2.9779,2.9779,2.9917,3.0143,2.9955,2.9917,3.0143,2.9967,2.9792,2.9779,2.9779,2.9779,2.9779,2.9779,2.9611,2.9015,2.8846,2.8688,2.8187,2.7602,2.7128,2.6565,2.5964,2.563,2.5546,2.5052,2.4734,2.4648,2.4135,2.4713,2.6025,2.6069,2.613,2.7046,2.7284,2.7105,2.6615,2.6521,2.6521,2.6521,2.6521,2.6521,4.2986,4.2986,4.2986,4.2585,4.1919,4.1065,4.0325,3.9722,3.9697,3.9697,3.9697,3.9697,3.9459,3.9019,3.8454,3.7889,3.7349,3.6797,3.6483,3.637,3.637,3.637,3.637,3.637,3.637,3.637,3.637,3.637,3.637,3.637,3.637,3.627,3.5391,3.4851,3.47,3.3759,3.3206,3.3081,3.2797,3.2573,3.2428,3.2012,3.1373,3.0511,2.8769,2.7579,2.6851,2.5564,2.4352,2.332,2.3238,2.2929,2.2252,2.2168,2.2168,2.2168,2.2178,2.2168,2.2178,2.2471,2.2793,2.3105,2.3144,2.3135,2.3144,2.3242,2.3242,2.3319,2.521,2.6505,2.6971,2.8747,3.0018,3.0118,3.0143,3.0344,3.067,3.0394,3.0294,3.067,3.0306,2.998,2.9955,2.9867,2.9792,2.9779,2.9611,2.9028,2.8267,2.7763,2.7348,2.7174,2.6614,2.5975,2.5808,2.5052,2.4457,2.4372,2.38,2.3387,2.3299,2.3299,2.4221,2.6025,2.6425,2.6718,2.7792,2.7795,2.7243,2.6666,2.6521,2.6521,2.6521,2.6521,2.6521,4.2986,4.2986,4.2986,4.2371,4.148,4.1291,4.0651,3.9772,3.9697,3.9697,3.9697,3.9697,3.9672,3.9546,3.9019,3.8442,3.7889,3.7349,3.6835,3.6395,3.637,3.637,3.637,3.637,3.637,3.637,3.637,3.637,3.637,3.637,3.637,3.6307,3.5755,3.5203,3.47,3.4123,3.3583,3.3093,3.1965,3.194,3.287,3.1417,3.0489,3.0381,2.8299,2.6686,2.5722,2.5083,2.4248,2.3268,2.3152,2.3085,2.2998,2.3008,2.3008,2.3008,2.3008,2.3018,2.3008,2.3066,2.3086,2.3135,2.3164,2.3174,2.3193,2.3516,2.3555,2.3622,2.5179,2.6718,2.7245,2.9184,3.0708,3.1047,3.1122,3.1273,3.1286,3.1273,3.1273,3.1298,3.0859,3.0545,3.0457,3.0002,2.9739,2.9699,2.8803,2.8143,2.7765,2.6449,2.5368,2.5199,2.4957,2.4542,2.3887,2.3387,2.3387,2.3387,2.3222,2.3135,2.3299,2.3973,2.5136,2.613,2.7175,2.7705,2.7964,2.8009,2.762,2.6829,2.6596,2.6521,2.6521,2.6521,2.6521,4.2986,4.2986,4.2986,4.2534,4.1831,4.148,4.0902,4.0187,3.9835,3.9697,3.9697,3.9697,3.9697,3.9659,3.912,3.8555,3.7977,3.7437,3.6885,3.6395,3.637,3.637,3.637,3.637,3.637,3.637,3.637,3.637,3.637,3.637,3.637,3.6307,3.5818,3.5265,3.4623,3.342,3.25,3.1977,3.0765,3.0406,3.0754,3.0209,2.9676,2.9201,2.7822,2.6459,2.5466,2.4625,2.3917,2.3164,2.3144,2.3144,2.3144,2.3144,2.3144,2.3144,2.3144,2.3144,2.3144,2.3144,2.3242,2.3506,2.3525,2.3623,2.3867,2.4062,2.4082,2.4196,2.5955,2.7435,2.7786,2.9701,3.116,3.1348,3.1386,3.1524,3.1838,3.1587,3.1486,3.1763,3.1411,3.0947,3.0541,2.9529,2.9029,2.8923,2.8091,2.7067,2.6546,2.5476,2.4628,2.3963,2.38,2.3627,2.3135,2.3144,2.3144,2.3222,2.3724,2.3963,2.3464,2.4723,2.5986,2.6483,2.7163,2.7933,2.85,2.7971,2.7406,2.6892,2.6659,2.6521,2.6521,2.6521,2.6521,4.2986,4.2986,4.2986,4.266,4.2108,4.158,4.1028,4.0475,3.9936,3.9465,3.9129,3.9141,3.8816,3.8546,3.8835,3.8705,3.8015,3.7588,3.7023,3.6433,3.637,3.637,3.637,3.637,3.637,3.637,3.637,3.637,3.637,3.637,3.637,3.6307,3.5968,3.5219,3.4181,3.2883,3.1719,3.0746,2.9498,2.8866,2.8866,2.8588,2.8321,2.8189,2.7123,2.6023,2.5306,2.4466,2.376,2.335,2.331,2.3076,2.2677,2.2589,2.246,2.2288,2.2583,2.2828,2.2923,2.321,2.3623,2.3916,2.3965,2.4082,2.4365,2.4521,2.459,2.4766,2.6567,2.7777,2.7877,2.9429,3.0627,3.0833,3.0882,3.1137,3.1723,3.1512,3.168,3.2243,3.1605,3.0725,2.9727,2.8702,2.8104,2.8091,2.7065,2.6092,2.543,2.4843,2.3963,2.3212,2.3135,2.3135,2.3144,2.3144,2.3144,2.3299,2.3963,2.4382,2.38,2.5389,2.6801,2.7082,2.7296,2.7765,2.8549,2.816,2.7507,2.7256,2.6866,2.6546,2.6521,2.6521,2.6521,4.2986,4.2986,4.2986,4.2672,4.212,4.158,4.104,4.0538,3.9832,3.8908,3.7796,3.7583,3.6823,3.5945,3.8311,3.9032,3.8003,3.7952,3.7362,3.6433,3.637,3.637,3.637,3.637,3.637,3.637,3.637,3.637,3.637,3.637,3.637,3.6358,3.62,3.5182,3.3356,3.278,3.1692,2.9656,2.833,2.7683,2.7579,2.6572,2.6552,2.7296,2.6128,2.5238,2.512,2.46,2.4199,2.3779,2.367,2.3028,2.1651,2.1427,2.1048,2.0424,2.1336,2.2152,2.2544,2.3623,2.4336,2.4385,2.4385,2.4414,2.4551,2.4844,2.5029,2.5039,2.6556,2.7357,2.7101,2.8287,2.9171,2.9523,2.9545,3.0099,3.1051,3.1133,3.1768,3.2265,3.1295,2.9742,2.7742,2.7592,2.7461,2.7123,2.6185,2.5392,2.5207,2.4122,2.3339,2.3135,2.3144,2.3144,2.3144,2.3144,2.3144,2.3299,2.3963,2.4713,2.5126,2.5714,2.6696,2.7441,2.7589,2.7866,2.8595,2.8637,2.8109,2.7607,2.6949,2.6596,2.6521,2.6521,2.6521,4.2986,4.2986,4.2986,4.2848,4.2585,4.1718,4.1229,4.0846,3.9067,3.8019,3.7358,3.6487,3.5836,3.5409,3.737,3.7661,3.6703,3.7581,3.7425,3.6458,3.637,3.637,3.637,3.637,3.637,3.637,3.637,3.637,3.637,3.637,3.637,3.6263,3.5475,3.4498,3.3161,3.1321,2.9773,2.8614,2.7184,2.639,2.638,2.5927,2.5927,2.6284,2.5769,2.5361,2.5068,2.4912,2.4639,2.4209,2.3426,2.2612,2.2003,2.1214,2.0609,2.0355,2.1526,2.2272,2.2483,2.3653,2.4541,2.4795,2.4834,2.4951,2.5215,2.541,2.5498,2.5614,2.5982,2.628,2.6571,2.7875,2.9205,2.9362,2.9396,2.9487,2.9943,3.0033,3.0226,3.0516,2.9788,2.8854,2.8032,2.7238,2.6772,2.6647,2.5444,2.4665,2.4536,2.3772,2.3164,2.3144,2.3144,2.3144,2.3144,2.3144,2.3135,2.3464,2.3877,2.4049,2.4382,2.5546,2.6625,2.6378,2.6789,2.7487,2.8005,2.8263,2.7915,2.7632,2.6987,2.6584,2.6521,2.6521,2.6521,4.2986,4.2986,4.2986,4.2986,4.2848,4.1806,4.1006,4.04,3.8371,3.7026,3.6042,3.5057,3.4403,3.4191,3.5376,3.5596,3.5016,3.6929,3.7513,3.6659,3.6053,3.5966,3.6263,3.5966,3.5775,3.5655,3.5246,3.5054,3.5054,3.5054,3.5054,3.4957,3.4166,3.3209,3.2104,3.0045,2.8624,2.7611,2.6328,2.5732,2.5732,2.5732,2.543,2.5128,2.503,2.4887,2.4689,2.4679,2.4183,2.3333,2.2396,2.1674,2.1083,1.9902,1.947,2.0045,2.1235,2.2276,2.288,2.407,2.498,2.5244,2.5283,2.543,2.5703,2.5732,2.5732,2.5732,2.5732,2.5732,2.6014,2.72,2.8215,2.8215,2.8215,2.8391,2.8773,2.8866,2.8866,2.8822,2.8613,2.8076,2.7538,2.6576,2.6105,2.6166,2.4973,2.4346,2.4287,2.3848,2.3271,2.3174,2.3144,2.3144,2.3144,2.3144,2.3144,2.3299,2.3877,2.3877,2.4049,2.5221,2.5808,2.5473,2.5797,2.6696,2.7287,2.7617,2.7594,2.7438,2.6967,2.6546,2.6521,2.6521,2.6521,4.2986,4.2986,4.2986,4.2862,4.2588,4.1576,4.0402,3.8966,3.7689,3.5715,3.3733,3.3191,3.2426,3.1662,3.2975,3.3018,3.3333,3.609,3.732,3.6589,3.5137,3.5017,3.5953,3.486,3.4374,3.4362,3.3044,3.2431,3.2632,3.2733,3.2733,3.2431,3.2431,3.1627,2.987,2.9216,2.8061,2.6804,2.5996,2.5742,2.5732,2.5625,2.502,2.3989,2.3791,2.3574,2.3556,2.3556,2.2955,2.1452,2.1114,2.0261,1.8882,1.7661,1.7552,1.9298,2.052,2.1974,2.3574,2.4818,2.5596,2.5654,2.5703,2.5674,2.5713,2.5732,2.5732,2.5732,2.5732,2.5732,2.5732,2.5917,2.611,2.5732,2.61,2.6562,2.7305,2.7589,2.7589,2.7579,2.7421,2.6814,2.5769,2.5342,2.5324,2.5081,2.5,2.4805,2.4531,2.4043,2.3613,2.3301,2.3164,2.3144,2.3144,2.3144,2.3144,2.3222,2.3877,2.4211,2.4039,2.4713,2.4967,2.4882,2.5041,2.5859,2.6549,2.6843,2.7079,2.6981,2.6643,2.6446,2.6521,2.6521,2.6521,4.2986,4.2986,4.2986,4.2375,4.1286,4.0168,3.8911,3.7303,3.5357,3.3957,3.2964,3.1988,3.1334,3.1325,3.2416,3.2993,3.3029,3.473,3.5132,3.431,3.3639,3.3465,3.3499,3.3143,3.2955,3.2955,3.2532,3.223,3.223,3.223,3.2331,3.2129,3.1327,3.0657,2.9952,2.8472,2.7219,2.6859,2.6103,2.5732,2.5635,2.4815,2.4097,2.3692,2.2868,2.1954,2.0947,2.176,2.2005,2.1369,2.0577,1.9426,1.8128,1.7509,1.7957,1.936,2.078,2.2121,2.3547,2.4913,2.5732,2.5732,2.5732,2.5732,2.5732,2.5732,2.5732,2.5732,2.5732,2.5732,2.5732,2.5732,2.5732,2.5732,2.5732,2.583,2.6294,2.6294,2.6294,2.6187,2.547,2.4701,2.4342,2.4375,2.4436,2.4403,2.4775,2.501,2.4795,2.4228,2.3799,2.3603,2.3398,2.3144,2.3144,2.3144,2.3144,2.3144,2.3637,2.3963,2.3877,2.3877,2.4135,2.4296,2.4542,2.4988,2.5672,2.5959,2.6201,2.6447,2.6154,2.6196,2.6414,2.6553,2.6716,4.2613,4.2137,4.2137,4.107,3.9418,3.8568,3.719,3.5577,3.3848,3.2861,3.2092,3.1325,3.0898,3.1112,3.1872,3.2322,3.2395,3.2875,3.2572,3.1955,3.2202,3.2196,3.2185,3.1724,3.152,3.1429,3.103,3.0824,3.0813,3.0824,3.0824,3.0628,2.9911,2.9513,2.9452,2.8117,2.6991,2.6302,2.549,2.4867,2.4223,2.3375,2.2667,2.2165,2.1347,2.0231,1.9013,1.9723,2.0128,2.0025,1.9317,1.8401,1.7687,1.7681,1.8199,1.9524,2.0939,2.2257,2.3592,2.4922,2.5732,2.5732,2.5732,2.5732,2.5732,2.5732,2.5732,2.5732,2.5732,2.5732,2.5732,2.5732,2.5732,2.5732,2.5732,2.5732,2.5635,2.5226,2.5011,2.4707,2.3881,2.3384,2.3583,2.3692,2.3998,2.4356,2.4986,2.5088,2.4873,2.4365,2.4033,2.3691,2.333,2.3164,2.3144,2.3144,2.3144,2.3144,2.3222,2.3387,2.3387,2.3387,2.3474,2.3551,2.38,2.4286,2.4998,2.4902,2.4966,2.5267,2.595,2.6481,2.6924,2.7172,2.7344,4.1886,4.0556,4.0429,3.9291,3.7417,3.6764,3.5517,3.3865,3.3173,3.2207,3.1112,3.1005,3.0898,3.0898,3.1112,3.1112,3.0995,3.1189,3.0779,3.0369,3.0648,3.1263,3.1392,3.0618,3.0214,3.0016,2.9102,2.8601,2.8804,2.8698,2.8291,2.8601,2.8601,2.8398,2.83,2.7861,2.6646,2.528,2.4552,2.3335,2.1979,2.1651,2.1041,1.9937,1.9627,1.8909,1.7989,1.7996,1.7891,1.7687,1.7786,1.7793,1.7589,1.7589,1.8199,1.9524,2.0947,2.2257,2.3583,2.4922,2.5528,2.5421,2.5323,2.5538,2.5128,2.4913,2.4922,2.502,2.5118,2.5216,2.5216,2.5118,2.5118,2.5333,2.5226,2.5323,2.5333,2.4304,2.3692,2.3384,2.2567,2.2156,2.3285,2.3484,2.4205,2.4913,2.5382,2.5322,2.4805,2.4394,2.4004,2.3652,2.332,2.3164,2.3144,2.3144,2.3144,2.3144,2.3144,2.3144,2.3144,2.3144,2.3144,2.3135,2.3222,2.38,2.3992,2.395,2.4757,2.5791,2.6459,2.7046,2.7397,2.7676,2.7795,4.0136,3.841,3.8398,3.7161,3.5403,3.4814,3.3653,3.2135,3.1736,3.1334,3.0889,3.0898,3.0772,3.0889,3.0889,3.0898,3.0762,3.0752,3.042,2.977,2.9796,2.9697,2.9434,2.9102,2.89,2.8804,2.8495,2.8291,2.8301,2.8301,2.8301,2.8301,2.8301,2.8291,2.8116,2.6774,2.5798,2.4873,2.3332,2.245,2.1607,2.0538,2.0033,1.9627,1.8708,1.7996,1.7582,1.7589,1.7589,1.7589,1.7589,1.7589,1.7589,1.7582,1.8199,1.942,2.0837,2.2257,2.3583,2.4815,2.5118,2.4304,2.4196,2.3791,2.2776,2.2767,2.2767,2.2767,2.2767,2.2876,2.2767,2.2868,2.2868,2.2868,2.3692,2.389,2.3176,2.2458,2.2257,2.2156,2.1954,2.2055,2.2466,2.3176,2.389,2.4402,2.507,2.5537,2.4961,2.4512,2.4141,2.376,2.3437,2.3252,2.3144,2.3144,2.3144,2.3144,2.3144,2.3144,2.3144,2.3144,2.3144,2.3135,2.3135,2.3551,2.3335,2.3172,2.4615,2.6223,2.6309,2.6594,2.7594,2.8047,2.8109,3.8097,3.6249,3.6249,3.5168,3.3356,3.2972,3.2193,3.1339,3.1016,3.0898,3.0772,3.0147,2.9893,2.9776,2.9157,2.8792,2.8902,2.9353,2.9144,2.8672,2.893,2.8829,2.8466,2.8291,2.8301,2.8301,2.8301,2.8301,2.8301,2.8301,2.8301,2.8301,2.8301,2.796,2.7267,2.6378,2.4755,2.3339,2.1981,2.1055,1.9968,1.922,1.8812,1.8603,1.7989,1.7589,1.7589,1.7589,1.7589,1.7589,1.7589,1.7589,1.7589,1.7589,1.7996,1.8805,2.0025,2.1143,2.1963,2.3285,2.3583,2.3076,2.2868,2.2466,2.1954,2.1744,2.1744,2.1744,2.1744,2.1744,2.1744,2.1744,2.144,2.1143,2.2064,2.2767,2.2458,2.2165,2.2055,2.2257,2.2055,2.1954,2.2366,2.3285,2.3899,2.451,2.5323,2.5372,2.5107,2.4697,2.4258,2.3848,2.3496,2.3271,2.3154,2.3144,2.3144,2.3144,2.3144,2.3144,2.3144,2.3144,2.3144,2.3144,2.3144,2.3193,2.3345,2.377,2.5048,2.6105,2.6018,2.6792,2.8022,2.8574,2.8599,3.6088,3.4143,3.4261,3.3089,3.1593,3.1445,3.1103,3.0694,3.0528,3.0392,2.9903,2.8664,2.817,2.8051,2.6996,2.6152,2.6248,2.7587,2.7791,2.7846,2.8124,2.833,2.833,2.8301,2.8301,2.8301,2.8301,2.8301,2.8301,2.8301,2.8301,2.8301,2.8301,2.7501,2.649,2.59,2.3989,2.1651,2.0715,1.965,1.8485,1.7932,1.7891,1.7786,1.7793,1.7589,1.7589,1.7589,1.7589,1.7589,1.7589,1.7589,1.7589,1.7589,1.7687,1.7989,1.9013,1.9826,1.993,2.1245,2.1744,2.155,2.1448,2.1347,2.1041,2.0829,2.0837,2.0727,2.1237,2.0931,2.0939,2.1135,2.0837,2.0341,2.0939,2.2257,2.3076,2.2558,2.2156,2.3285,2.2366,2.2676,2.3285,2.3899,2.4304,2.502,2.5499,2.5402,2.5205,2.4853,2.4365,2.3848,2.3535,2.3252,2.3184,2.3144,2.3144,2.3144,2.3144,2.3144,2.3144,2.3144,2.3144,2.3144,2.3144,2.3637,2.4361,2.5072,2.5804,2.6746,2.7137,2.8186,2.9319,2.9301,2.9302,3.3983,3.2108,3.2098,3.1742,3.1064,3.1016,3.0233,2.892,2.8911,2.8307,2.7202,2.6712,2.6453,2.6436,2.5832,2.5683,2.5514,2.6598,2.7731,2.8464,2.8329,2.831,2.8184,2.8067,2.8184,2.8184,2.8291,2.8184,2.8184,2.796,2.8184,2.8077,2.7736,2.7501,2.6045,2.4693,2.3283,2.1113,1.9782,1.8735,1.8164,1.7682,1.7589,1.7589,1.7589,1.7589,1.7589,1.7589,1.7589,1.7589,1.7589,1.7589,1.7589,1.7589,1.7589,1.7891,1.8812,1.9524,1.9723,2.0531,2.1143,2.0135,1.9922,1.9627,1.8506,1.8603,1.8603,1.8499,1.8499,1.8805,1.9013,1.962,1.993,2.0135,2.1041,2.2265,2.3176,2.2558,2.2156,2.2366,2.2976,2.3384,2.3791,2.4716,2.5226,2.5635,2.5644,2.5508,2.5264,2.499,2.4492,2.3955,2.3574,2.3301,2.3174,2.3144,2.3144,2.3144,2.3144,2.3144,2.3144,2.3144,2.3144,2.3144,2.3144,2.38,2.4798,2.5126,2.5681,2.693,2.8255,2.8858,2.9443,2.9624,2.9534,3.2394,3.1103,3.0344,2.9974,2.9677,2.892,2.8059,2.7434,2.7314,2.6832,2.5976,2.5261,2.4806,2.4527,2.3741,2.324,2.3372,2.4339,2.5822,2.6839,2.6682,2.6617,2.6943,2.6608,2.6499,2.706,2.7276,2.6943,2.6391,2.6273,2.6054,2.6164,2.6282,2.5151,2.4147,2.3263,2.1856,2.0222,1.9063,1.835,1.8043,1.7749,1.7589,1.7589,1.7589,1.7589,1.7589,1.7589,1.7589,1.7589,1.7589,1.7589,1.7589,1.7589,1.7589,1.7793,1.8199,1.8708,1.8909,1.8665,1.8651,1.87,1.806,1.7759,1.7569,1.7589,1.7589,1.7589,1.7687,1.7786,1.8506,1.9013,1.9723,2.0743,2.1853,2.2976,2.3393,2.3076,2.2976,2.3375,2.4295,2.451,2.502,2.543,2.5528,2.5732,2.5732,2.5596,2.5381,2.5078,2.4629,2.4131,2.3682,2.3369,2.3203,2.3144,2.3144,2.3144,2.3144,2.3144,2.3144,2.3144,2.3144,2.3144,2.3135,2.4307,2.5136,2.5378,2.613,2.7947,2.9118,2.9287,2.9443,2.9456,2.9197,3.0719,3.002,2.8664,2.8051,2.7803,2.6703,2.5976,2.5611,2.5611,2.5327,2.4928,2.3731,2.2914,2.2435,2.1359,2.0476,2.09,2.1701,2.3755,2.5459,2.4744,2.4931,2.527,2.4931,2.4488,2.538,2.5599,2.5041,2.4378,2.3822,2.4378,2.4044,2.3933,2.3239,2.179,2.1571,2.0687,1.8878,1.8552,1.8404,1.8001,1.7475,1.7054,1.6611,1.6935,1.7041,1.7147,1.7364,1.7589,1.7589,1.7589,1.7589,1.7589,1.7589,1.7589,1.7589,1.7793,1.7575,1.7134,1.648,1.6262,1.7147,1.628,1.628,1.7153,1.7589,1.7589,1.7687,1.7891,1.8603,1.9731,2.0436,2.1041,2.1954,2.3176,2.389,2.3998,2.3989,2.4501,2.5118,2.5216,2.5226,2.5421,2.5635,2.5635,2.5723,2.5723,2.5644,2.541,2.5117,2.4648,2.4228,2.376,2.3398,2.3213,2.3222,2.3222,2.3551,2.3474,2.3299,2.3299,2.3135,2.3135,2.3135,2.3474,2.4392,2.5136,2.5378,2.6625,2.8803,2.9052,2.8383,2.8621,2.9209,2.87,2.8113,2.6832,2.647,2.6349,2.6349,2.6089,2.5114,2.4178,2.4016,2.3039,2.1719,2.1341,2.106,2.0672,2.0273,2.0482,2.0966,2.1513,2.2449,2.3941,2.3599,2.3822,2.3933,2.3599,2.3159,2.2814,2.3375,2.371,2.3607,2.3822,2.3143,2.359,2.3367,2.2107,2.0387,2.063,1.9713,1.7968,1.7949,1.8216,1.7831,1.6559,1.5316,1.4669,1.531,1.5737,1.6062,1.6935,1.7589,1.7589,1.7589,1.7589,1.7589,1.7589,1.7589,1.7582,1.7477,1.6935,1.6068,1.5636,1.5417,1.563,1.5524,1.6174,1.7147,1.7687,1.7996,1.8199,1.8916,1.9826,2.1237,2.2055,2.2876,2.3683,2.4295,2.5226,2.5226,2.5226,2.5226,2.5635,2.5732,2.5732,2.5732,2.5732,2.5732,2.5684,2.5615,2.5469,2.5234,2.4961,2.4609,2.4199,2.3809,2.3496,2.3223,2.3329,2.3464,2.4125,2.4211,2.3887,2.3714,2.3377,2.3212,2.3135,2.3299,2.3887,2.4467,2.5126,2.6047,2.7464,2.7383,2.7139,2.7557,2.7971,2.7464,2.6712,2.5984,2.5138,2.4778,2.4624,2.361,2.282,2.2203,2.1937,2.1299,2.0726,2.0434,2.0281,2.0027,1.988,2.0096,2.0435,2.0479,2.1373,2.2371,2.1934,2.204,2.2371,2.2047,2.1152,2.0816,2.1266,2.1601,2.1487,2.1487,2.1229,2.0287,2.028,1.9123,1.7493,1.7388,1.775,1.685,1.7181,1.7216,1.7166,1.5355,1.3943,1.3696,1.3804,1.4234,1.4556,1.563,1.6393,1.6611,1.7153,1.7477,1.7589,1.7589,1.7589,1.7477,1.6929,1.6274,1.531,1.4883,1.4556,1.5304,1.5417,1.6168,1.7351,1.8199,1.8916,1.9723,2.0128,2.1245,2.2558,2.3384,2.3989,2.4707,2.5323,2.5635,2.5732,2.5732,2.5732,2.5732,2.5732,2.5732,2.5732,2.5732,2.5732,2.5654,2.5518,2.5283,2.5029,2.4678,2.4336,2.4275,2.3969,2.4015,2.3861,2.4079,2.4382,2.4957,2.4798,2.4457,2.4125,2.3714,2.3387,2.3135,2.3299,2.3551,2.4211,2.4957,2.5641,2.6058,2.6307,2.6554,2.6565,2.6483,2.6058,2.523,2.468,2.3488,2.2886,2.2733,2.1293,2.0711,2.0535,2.0347,2.0214,2.0147,2.0127,1.9987,1.9773,1.9686,1.9573,1.9372,1.9475,2.0141,2.0702,2.0263,2.0263,2.0479,2.0148,1.9591,1.9815,1.97,1.9366,1.97,1.9332,1.8273,1.7664,1.6962,1.5784,1.4589,1.5063,1.5419,1.5465,1.5881,1.562,1.4944,1.3795,1.2615,1.2512,1.2724,1.2837,1.294,1.4234,1.4883,1.5423,1.618,1.7047,1.7147,1.747,1.7582,1.7371,1.6493,1.5737,1.477,1.4663,1.4556,1.5304,1.5417,1.638,1.7969,1.9317,2.0538,2.1752,2.2156,2.2667,2.3791,2.4106,2.4609,2.5216,2.5625,2.5732,2.5732,2.5732,2.5732,2.5732,2.5732,2.5723,2.5703,2.5693,2.5684,2.5439,2.5303,2.4893,2.4619,2.4238,2.4006,2.4098,2.4169,2.444,2.4734,2.5147,2.5703,2.6449,2.5619,2.4798,2.4467,2.4049,2.3637,2.3144,2.3135,2.3387,2.4135,2.4553,2.4638,2.4978,2.5557,2.5641,2.5231,2.5062,2.4893,2.2484,2.0935,2.0706,2.0571,2.0706,2.0422,2.0281,2.0274,2.0214,2.008,1.9853,1.9853,1.972,1.9566,1.9499,1.9439,1.9399,1.9522,1.9625,1.9822,1.9591,1.9482,1.97,1.9591,1.9366,1.9366,1.9366,1.9366,1.9004,1.7929,1.7202,1.6492,1.5306,1.4128,1.2693,1.3412,1.3784,1.3133,1.3709,1.3409,1.2229,1.1577,1.0785,1.0241,1.0676,1.1324,1.1538,1.2729,1.348,1.3696,1.4883,1.5636,1.5849,1.6935,1.7477,1.7582,1.7147,1.628,1.4449,1.4449,1.5085,1.5624,1.5731,1.6897,1.8984,2.0743,2.1954,2.3276,2.3484,2.389,2.4913,2.5323,2.5528,2.5635,2.5732,2.5732,2.5732,2.5732,2.5732,2.5732,2.5732,2.5693,2.5664,2.5644,2.5605,2.5322,2.5019,2.4609,2.4401,2.4127,2.4038,2.4247,2.4826,2.5263,2.5786,2.6202,2.6614,2.7602,2.6449,2.521,2.4713,2.4211,2.3464,2.3144,2.3144,2.3144,2.3551,2.3724,2.356,2.3627,2.4114,2.3877,2.3474,2.3464,2.3607,2.1197,2.0468,2.0301,2.0234,2.0214,2.006,1.9993,1.9953,1.9806,1.9679,1.9613,1.9746,1.9806,1.9806,1.9853,1.9766,1.9646,1.9599,1.9506,1.9379,1.9366,1.9366,1.9482,1.9366,1.9366,1.9366,1.9243,1.8642,1.8163,1.7208,1.6374,1.4346,1.3646,1.2457,1.1016,1.1495,1.1984,1.2026,1.2333,1.2042,1.1177,1.0347,0.9588,0.8937,0.9592,0.9805,1.0241,1.1214,1.1969,1.2507,1.4014,1.5417,1.5743,1.6611,1.7364,1.6393,1.7147,1.6499,1.4984,1.5204,1.5831,1.6772,1.7397,1.9184,2.1347,2.2466,2.3375,2.4707,2.4815,2.5118,2.5528,2.5635,2.5732,2.5732,2.5732,2.5732,2.5732,2.5732,2.5732,2.5732,2.5693,2.5586,2.5459,2.5322,2.5156,2.4824,2.4541,2.4291,2.4217,2.4341,2.4456,2.4625,2.5421,2.6224,2.686,2.7348,2.736,2.7775,2.6953,2.5797,2.4967,2.4296,2.3464,2.3144,2.3144,2.3144,2.3144,2.3135,2.3222,2.294,2.258,2.2492,2.2403,2.212,2.218,2.0675,2.0641,2.0281,2.0087,2.0,1.978,1.9693,1.9659,1.9479,1.9379,1.9419,1.9606,1.988,2.0134,2.01,1.9927,1.98,1.9806,1.9626,1.9452,1.9366,1.9366,1.9366,1.9366,1.9366,1.9366,1.8765,1.7806,1.6486,1.5279,1.3489,1.1719,1.1732,1.0649,0.9687,0.9916,1.0441,1.102,1.0928,1.0703,1.026,0.9478,0.9154,0.8937,0.8937,0.8937,0.9047,0.9805,1.0566,1.1647,1.3367,1.477,1.5524,1.6711,1.7147,1.6717,1.7252,1.7457,1.6791,1.6884,1.7088,1.8123,1.9671,2.144,2.2976,2.3899,2.4412,2.5528,2.5528,2.5625,2.5732,2.5732,2.5732,2.5732,2.5732,2.5732,2.5732,2.5732,2.5732,2.5732,2.5615,2.5332,2.5176,2.4971,2.4697,2.4326,2.4023,2.3949,2.4223,2.4664,2.5232,2.5608,2.6356,2.7279,2.8028,2.8438,2.8426,2.7855,2.7046,2.613,2.5041,2.4135,2.3299,2.3144,2.3144,2.3144,2.3144,2.3047,2.296,2.2403,2.1933,2.1756,2.1578,2.1203,2.0935,2.0675,2.0628,2.008,1.9713,1.9472,1.9412,1.9406,1.9432,1.9386,1.9392,1.9459,1.9486,1.9853,2.012,2.0127,1.9967,1.9813,1.9806,1.9633,1.9466,1.9366,1.9475,1.9591,1.9591,1.9482,1.9352,1.8279,1.6615,1.4465,1.2397,1.0955,0.9882,0.9425,0.8705,0.8693,0.915,0.9639,0.999,0.9694,0.9425,0.9268,0.9047,0.8937,0.8937,0.8937,0.8937,0.8937,0.9588,1.0237,1.1428,1.3156,1.4449,1.5524,1.6823,1.7259,1.7674,1.7667,1.8185,1.8679,1.8776,1.9199,2.0128,2.1651,2.3285,2.3998,2.502,2.5528,2.5635,2.5732,2.5732,2.5732,2.5732,2.5732,2.5732,2.5732,2.5732,2.5732,2.5732,2.5732,2.5732,2.5576,2.5322,2.51,2.4987,2.4389,2.4006,2.4296,2.4223,2.4898,2.5443,2.6329,2.693,2.7591,2.8426,2.9275,2.9365,2.8858,2.7947,2.6964,2.588,2.4787,2.3963,2.3135,2.3144,2.3144,2.3144,2.3144,2.3047,2.2775,2.1845,2.1203,2.0666,2.0494,2.0305,2.0034,2.0842,2.0648,2.0421,2.0067,1.9619,1.9439,1.9366,1.9366,1.9372,1.9593,1.99,2.01,2.0394,2.0628,2.0661,2.0388,2.0114,2.0067,1.9766,1.9492,1.9482,1.9924,2.0148,1.9924,1.9815,1.9781,1.8241,1.5505,1.2985,1.0711,0.7691,0.6609,0.6867,0.7238,0.7588,0.8696,0.9379,0.9361,0.9113,0.8944,0.8937,0.8937,0.8937,0.8937,1.0025,1.0131,1.0457,1.1214,1.186,1.2615,1.3804,1.477,1.5512,1.6922,1.7864,1.8575,1.8665,1.9361,2.0295,2.031,2.0341,2.2265,2.3791,2.4913,2.4815,2.543,2.5635,2.5732,2.5732,2.5732,2.5732,2.5732,2.5732,2.5732,2.5732,2.5732,2.5732,2.5732,2.5732,2.5732,2.5586,2.5371,2.5194,2.5097,2.4336,2.3703,2.42,2.4771,2.5549,2.6191,2.7105,2.7992,2.8652,2.8924,2.9702,2.9534,2.9118,2.7959,2.6801,2.5546,2.4382,2.3714,2.3144,2.3144,2.3144,2.3144,2.3144,2.3144,2.2492,2.1391,2.0215,1.9231,1.9139,1.9405,1.9497,2.0989,2.0802,2.0708,2.0334,1.98,1.9579,1.9446,1.9386,1.9472,1.9826,2.0361,2.0528,2.0708,2.0902,2.0828,2.0548,2.0147,2.002,1.976,1.9526,1.9591,2.004,2.0256,2.0026,1.9455,1.9632,1.775,1.4682,1.2282,1.0116,0.7702,0.5641,0.4547,0.5651,0.6705,0.8467,0.9381,0.931,0.911,0.8944,0.8937,0.9372,0.9588,0.9915,1.0996,1.1647,1.186,1.2507,1.3264,1.3911,1.477,1.5524,1.6249,1.6957,1.8067,1.8957,1.9498,2.0155,2.1162,2.1661,2.1837,2.3899,2.4815,2.5528,2.5732,2.5732,2.5732,2.5732,2.5732,2.5732,2.5732,2.5732,2.5732,2.5732,2.5732,2.5732,2.5732,2.5732,2.5732,2.5723,2.5498,2.5385,2.5727,2.5732,2.5514,2.4943,2.5232,2.5833,2.6682,2.736,2.7936,2.8821,2.9614,2.9741,2.9869,2.9484,2.8942,2.729,2.6141,2.4978,2.3973,2.3387,2.3144,2.3144,2.3144,2.3144,2.296,2.2687,2.1854,2.0845,1.9753,1.8648,1.8596,1.8956,1.9405,2.1069,2.1062,2.0775,2.0327,1.982,1.98,1.9633,1.9472,1.9693,2.01,2.0555,2.0434,2.0461,2.0621,2.0514,2.0207,1.996,1.9853,1.9666,1.9439,1.9366,1.9482,1.9584,1.9461,1.8745,1.7079,1.5419,1.3636,1.196,0.9294,0.7355,0.6494,0.5513,0.5388,0.5386,0.7977,0.9272,0.9334,0.9069,0.8967,0.9372,1.0241,1.0676,1.1433,1.2512,1.327,1.3372,1.3798,1.4561,1.5316,1.553,1.6368,1.7384,1.7405,1.8221,1.9351,1.9086,2.0119,2.2134,2.2975,2.4049,2.4992,2.5635,2.5635,2.5732,2.5732,2.5732,2.5732,2.5732,2.5732,2.5732,2.5732,2.5732,2.5732,2.5732,2.5732,2.5732,2.5723,2.5723,2.5653,2.5435,2.5351,2.592,2.64,2.6535,2.6505,2.6494,2.6964,2.7855,2.8359,2.8767,2.9172,2.9883,2.9908,2.9844,2.9551,2.8699,2.6989,2.5641,2.4553,2.381,2.3309,2.3144,2.3144,2.3144,2.3144,2.2677,2.2217,2.1425,2.0641,1.9315,1.8417,1.8372,1.874,1.9513,2.0528,2.0514,2.0421,2.0154,1.9826,1.9806,1.974,1.972,1.9973,2.0307,2.0601,2.0548,2.0555,2.0561,2.0347,2.006,1.9833,1.9793,1.9639,1.9392,1.9366,2.0148,2.0019,1.8848,1.8015,1.7277,1.5268,1.2312,1.0485,0.8447,0.6869,0.5888,0.6454,0.6413,0.6861,0.8401,0.9344,0.9215,0.9154,0.9372,1.0241,1.0891,1.1647,1.2512,1.3911,1.4663,1.477,1.531,1.6174,1.6704,1.6804,1.7455,1.8363,1.8441,1.9207,2.0639,2.1066,2.1838,2.3289,2.4117,2.4555,2.5372,2.5693,2.5684,2.5732,2.5732,2.5732,2.5732,2.5732,2.5732,2.5732,2.5732,2.5732,2.5732,2.5732,2.5732,2.5732,2.5723,2.5674,2.5638,2.5511,2.66,2.7309,2.7486,2.7696,2.7799,2.7799,2.8119,2.8858,2.9106,2.9443,2.9521,2.9844,2.9934,2.9819,2.9229,2.8227,2.6591,2.5389,2.4467,2.38,2.3222,2.3144,2.3144,2.3144,2.3047,2.2698,2.2174,2.1271,2.0332,1.9588,1.9379,1.9659,1.9903,2.0305,2.0234,2.0106,1.9607,1.9255,1.9221,1.9701,1.9953,1.998,2.0154,2.0347,2.0488,2.0514,2.0441,2.0327,2.0167,1.992,1.9666,1.9639,1.9613,1.9372,1.9366,1.9448,1.8951,1.8119,1.6704,1.62,1.4198,1.1475,1.0023,0.8821,0.7975,0.7461,0.7496,0.7912,0.8316,0.89,0.9252,0.9363,0.9464,1.0131,1.1105,1.2077,1.3156,1.4121,1.5198,1.6168,1.6387,1.7035,1.7884,1.8073,1.8282,1.8671,1.9265,1.968,2.0386,2.1604,2.2631,2.3119,2.3857,2.4098,2.4565,2.5361,2.5488,2.5586,2.5684,2.5732,2.5732,2.5732,2.5723,2.5732,2.5732,2.5732,2.5693,2.5693,2.6031,2.6031,2.6119,2.6089,2.6484,2.6352,2.6302,2.7442,2.8445,2.871,2.8803,2.9028,2.9197,2.9443,2.9611,2.9702,2.9779,2.9779,2.9754,2.9806,2.9381,2.8603,2.7544,2.6119,2.5052,2.4049,2.3637,2.3144,2.3144,2.3135,2.3125,2.2989,2.2756,2.2197,2.1575,2.1142,2.0798,2.0698,2.092,2.1016,2.1194,2.0201,1.9837,1.8453,1.7812,1.8063,1.9018,1.9797,1.9824,1.983,1.9843,1.9876,1.9748,1.9745,1.9628,1.9688,1.9653,1.9459,1.9412,1.9399,1.9379,1.9366,1.8752,1.7793,1.6844,1.5413,1.3398,1.1856,1.1016,0.9815,0.9447,0.9326,0.9633,0.9496,0.9724,0.9816,0.9905,0.9923,0.9954,1.0651,1.1437,1.2295,1.3804,1.477,1.5636,1.6499,1.7147,1.7364,1.7786,1.8478,1.8897,1.9227,1.9969,2.0369,2.0309,2.0925,2.1715,2.2659,2.3258,2.3602,2.376,2.4131,2.4785,2.4941,2.5254,2.5537,2.5654,2.5674,2.5664,2.5654,2.5703,2.5732,2.5674,2.5615,2.6048,2.6656,2.6754,2.6743,2.7024,2.7542,2.7558,2.717,2.7736,2.8521,2.904,2.9365,2.9443,2.9534,2.9534,2.9702,2.9702,2.9779,2.9767,2.9729,2.9654,2.8983,2.7865,2.6814,2.5452,2.4307,2.3387,2.3135,2.3144,2.3144,2.3125,2.3096,2.2911,2.2611,2.2454,2.2116,2.1742,2.125,2.1237,2.1146,2.1532,2.1777,1.9004,1.7909,1.7428,1.6589,1.5774,1.6178,1.6492,1.6486,1.6497,1.6575,1.6865,1.7786,1.8135,1.8194,1.9096,1.9336,1.9399,1.9366,1.9372,1.9366,1.9243,1.8286,1.7091,1.5784,1.4118,1.2453,1.114,1.0415,0.993,0.9812,1.0448,1.1066,1.1028,1.1306,1.1811,1.216,1.1449,1.13,1.211,1.2955,1.3696,1.499,1.5962,1.6823,1.7259,1.7694,1.7898,1.8506,1.9147,1.9197,2.0092,2.0859,2.1362,2.1366,2.1778,2.2532,2.3027,2.3223,2.331,2.334,2.3623,2.4102,2.4228,2.4609,2.5059,2.542,2.5488,2.542,2.5439,2.5469,2.542,2.5371,2.5388,2.5879,2.6506,2.688,2.7076,2.7734,2.823,2.8076,2.775,2.8233,2.8973,2.9275,2.9611,2.9702,2.9702,2.9611,2.9534,2.9456,2.9521,2.9509,2.9003,2.8615,2.7877,2.6837,2.5848,2.4861,2.38,2.3135,2.3144,2.3144,2.3144,2.3076,2.2978,2.2803,2.2588,2.2295,2.1924,2.1641,2.1196,2.1298,2.137,2.1603,2.1846,1.6979,1.602,1.53,1.4232,1.2831,1.2933,1.2986,1.3116,1.4402,1.5105,1.5222,1.5943,1.6237,1.6328,1.7056,1.7701,1.8409,1.8402,1.8642,1.9243,1.8648,1.7331,1.5902,1.448,1.2693,1.1378,1.0528,0.9906,0.9871,1.0375,1.0992,1.1711,1.1923,1.2749,1.3251,1.3634,1.3619,1.3383,1.3696,1.4556,1.5204,1.5956,1.6823,1.7364,1.7582,1.7891,1.8408,1.9317,1.9747,2.0345,2.1531,2.19,2.2355,2.2453,2.2395,2.2998,2.3067,2.3144,2.3184,2.3174,2.3398,2.3643,2.3779,2.4062,2.4443,2.4814,2.4873,2.4893,2.5059,2.5156,2.5078,2.499,2.5268,2.5541,2.6201,2.6931,2.7587,2.8356,2.8465,2.841,2.8647,2.9071,2.9456,2.9624,2.9534,2.9106,2.8779,2.8542,2.8542,2.8621,2.8688,2.8846,2.8016,2.7348,2.6532,2.5859,2.5031,2.4286,2.3627,2.3135,2.3135,2.3028,2.3008,2.2872,2.2793,2.2464,2.1909,2.1792,2.1514,2.116,2.0946,2.1004,2.106,2.1277,2.1465,1.4604,1.4247,1.2693,1.1378,0.994,1.0072,1.0072,1.0193,1.299,1.4434,1.4052,1.4376,1.451,1.4639,1.5079,1.5908,1.6497,1.6856,1.7683,1.9004,1.7449,1.602,1.4837,1.3053,1.1856,1.0539,0.9802,0.9999,1.0195,1.0798,1.1458,1.2112,1.3163,1.404,1.4598,1.52,1.5423,1.5417,1.5417,1.5743,1.6068,1.6823,1.7589,1.7582,1.7891,1.8297,1.9324,2.0074,2.0865,2.2088,2.2917,2.301,2.3081,2.3231,2.3125,2.3067,2.3144,2.3144,2.3144,2.3144,2.332,2.3555,2.374,2.374,2.3955,2.4424,2.457,2.4492,2.4609,2.4746,2.4717,2.4624,2.4762,2.545,2.6309,2.7112,2.7969,2.8645,2.9015,2.8863,2.8595,2.8949,2.853,2.8542,2.8371,2.8108,2.7867,2.7545,2.7371,2.7452,2.7614,2.7763,2.7023,2.6119,2.5535,2.4872,2.4211,2.3627,2.3183,2.3135,2.3135,2.3008,2.295,2.2351,2.1712,2.1522,2.1163,2.0876,2.0633,2.0474,2.038,2.0547,2.0742,2.0967,2.1055,1.3885,1.2569,1.102,1.0061,0.9822,0.9819,0.9819,0.9822,1.0576,1.1183,1.1144,1.2217,1.2813,1.2813,1.3765,1.4599,1.4955,1.5548,1.6256,1.685,1.6138,1.5666,1.4475,1.3264,1.1483,1.0301,0.9916,1.0528,1.12,1.1739,1.2711,1.4452,1.5136,1.539,1.6215,1.6829,1.6829,1.6823,1.6823,1.6823,1.7041,1.7153,1.7589,1.7891,1.8297,1.9117,2.0238,2.1744,2.2064,2.2763,2.357,2.365,2.3252,2.3203,2.3154,2.3144,2.3144,2.3144,2.3144,2.3144,2.3242,2.3262,2.333,2.3301,2.3525,2.4072,2.4297,2.416,2.4131,2.4268,2.4287,2.4173,2.4356,2.5357,2.627,2.722,2.8091,2.8723,2.9357,2.9034,2.8621,2.8187,2.7706,2.7383,2.7139,2.7058,2.6894,2.6648,2.613,2.6036,2.613,2.6202,2.5786,2.5041,2.4511,2.4088,2.3523,2.3275,2.3006,2.2998,2.3076,2.2592,2.2055,2.1099,2.0411,2.0301,2.0108,1.9552,1.9341,1.9784,2.0167,2.0489,2.0576,2.0742,2.0732,1.1786,1.0917,1.0155,0.9819,0.9819,0.9819,0.9819,0.9819,0.9819,0.9819,0.9819,1.066,1.114,1.114,1.2097,1.3172,1.3651,1.4366,1.5666,1.6256,1.6121,1.6015,1.4924,1.3784,1.3022,1.1831,1.1544,1.1996,1.2569,1.3331,1.4422,1.566,1.6169,1.6895,1.7589,1.7589,1.7589,1.7589,1.7589,1.7589,1.7589,1.7589,1.7589,1.7996,1.8708,1.9731,2.1049,2.2633,2.3205,2.3242,2.3688,2.3522,2.3252,2.3154,2.3144,2.3144,2.3144,2.3144,2.3144,2.3144,2.3144,2.3144,2.3144,2.3203,2.3115,2.3672,2.3682,2.3564,2.3574,2.3691,2.3682,2.3614,2.4085,2.5026,2.5488,2.6118,2.7126,2.803,2.8099,2.7661,2.7371,2.729,2.6964,2.6894,2.6461,2.5072,2.5083,2.4904,2.4575,2.4767,2.4809,2.4788,2.4376,2.3975,2.3543,2.3218,2.2827,2.2676,2.2685,2.2444,2.2262,2.1703,2.1128,2.0132,1.9472,1.9265,1.8936,1.8744,1.9347,2.0089,2.0323,2.0566,2.0576,2.0576,2.0596,0.9583,0.9595,0.971,0.9761,0.9771,0.9785,0.9788,0.9791,0.9812,0.9819,0.9819,0.9819,0.9819,0.9819,0.9819,1.102,1.2093,1.3292,1.495,1.6474,1.6429,1.6149,1.5709,1.4908,1.3897,1.3514,1.3202,1.3517,1.3979,1.4554,1.5155,1.6012,1.6788,1.7589,1.7589,1.7589,1.7589,1.7589,1.7589,1.7589,1.7589,1.7687,1.7793,1.8199,1.9117,2.0538,2.1853,2.3098,2.4057,2.3897,2.3631,2.3271,2.3203,2.3144,2.3144,2.3144,2.3144,2.3144,2.3144,2.3144,2.3144,2.3144,2.3144,2.3144,2.3067,2.3076,2.3184,2.3193,2.3193,2.3193,2.3193,2.3271,2.3927,2.4584,2.4978,2.5378,2.6367,2.729,2.6871,2.6461,2.6213,2.6224,2.6058,2.6058,2.5273,2.3796,2.3172,2.2727,2.2601,2.3252,2.3628,2.3453,2.3267,2.2869,2.2614,2.2477,2.2324,2.2275,2.2227,2.1909,2.1559,2.093,2.0161,1.9155,1.8622,1.8269,1.8495,1.8628,1.9338,2.0157,2.0479,2.0566,2.0576,2.0576,2.0576,0.9398,0.9429,0.9456,0.9469,0.9486,0.9595,0.9649,0.9669,0.9768,0.9819,0.9795,0.9812,0.9819,0.9815,0.9819,1.066,1.2097,1.3048,1.4831,1.6598,1.6192,1.6113,1.5994,1.5591,1.4122,1.3964,1.4256,1.4325,1.5082,1.5479,1.608,1.7132,1.7238,1.7589,1.7589,1.7589,1.7589,1.7589,1.7582,1.7687,1.7793,1.7898,1.8408,1.922,2.0538,2.1963,2.3205,2.4262,2.4535,2.4244,2.3662,2.3262,2.3144,2.3144,2.3144,2.3144,2.3144,2.3144,2.3144,2.3144,2.3144,2.3144,2.3144,2.3144,2.3144,2.3144,2.3154,2.3154,2.3164,2.3164,2.3164,2.3164,2.357,2.4563,2.5126,2.5546,2.6224,2.6378,2.6213,2.563,2.5126,2.4713,2.4145,2.4135,2.4049,2.3066,2.3095,2.2621,2.2188,2.2274,2.2529,2.2393,2.2256,2.2373,2.2422,2.2154,2.1953,2.1885,2.152,2.0787,2.0227,1.9998,1.9232,1.7963,1.7573,1.7319,1.7635,1.8316,1.9011,1.9756,2.0323,2.0566,2.0566,2.0576,2.0576]},{"header":{"parameterUnit":"m.s-1","parameterCategory":1,"la1":31.0,"la2":29.5877,"lo1":-88.7671,"lo2":-86.6584,"dy":0.0162,"dx":0.0185,"nx":115,"ny":88,"refTime":"2026-04-30T12:00:00:Z","depth":0,"parameterNumber":3,"parameterNumberName":"V-component_of_WINDS"},"data":[0.0,0.0,0.0,0.0,0.0,0.0,0.0,0.0,0.0,0.0,0.0,0.0,0.0,0.0,0.0,0.0,0.0,0.0,0.0,0.0,0.0,0.0,0.0,0.0,0.0,0.0,0.0,0.0,0.0,0.0,0.0,0.0,0.0,0.0,0.0,0.0,0.0,0.0,0.0,0.0,0.0,0.0,0.0,0.0,0.0,0.0,0.0,0.0,0.0,0.0,0.0,0.0,0.0,0.0,0.0,0.0,0.0,0.0,0.0,0.0,0.0,0.0,0.0,0.0,0.0,0.0,0.0,0.0,0.0,0.0,0.0,0.0,0.0,0.0,0.0,0.0,0.0,0.0,0.0,0.0,0.0,0.0,0.0,0.0,0.0,0.0,0.0,0.0,0.0,0.0,0.0,0.0,0.0,0.0,0.0,0.0,0.0,0.0,0.0,0.0,0.0,0.0,0.0,0.0,0.0,0.0,0.0,0.0,0.0,0.0,0.0,0.0,0.0,0.0,0.0,0.0,0.0,0.0,0.0,0.0,0.0,0.0,0.0,0.0,0.0,0.0,0.0,0.0,0.0,0.0,0.0,0.0,0.0,0.0,0.0,0.0,0.0,0.0,0.0,0.0,0.0,0.0,0.0,0.0,0.0,0.0,0.0,0.0,0.0,0.0,0.0,0.0,0.0,0.0,0.0,0.0,0.0,0.0,0.0,0.0,0.0,0.0,0.0,0.0,0.0,0.0,0.0,0.0,0.0,0.0,0.0,0.0,0.0,0.0,0.0,0.0,0.0,0.0,0.0,0.0,0.0,0.0,0.0,0.0,0.0,0.0,0.0,0.0,0.0,0.0,0.0,0.0,0.0,0.0,0.0,0.0,0.0,0.0,0.0,0.0,0.0,0.0,0.0,0.0,0.0,0.0,0.0,0.0,0.0,0.0,0.0,0.0,0.0,0.0,0.0,0.0,0.0,0.0,0.0,0.0,0.0,0.0,0.0,0.0,0.0,0.0,0.0,0.0,0.0,0.0,0.0,0.0,0.0,0.0,0.0,0.0,0.0,0.0,0.0,0.0,0.0,0.0,0.0,0.0,0.0,0.0,0.0,0.0,0.0,0.0,0.0,0.0,0.0,0.0,0.0,0.0,0.0,0.0,0.0,0.0,0.0,0.0,0.0,0.0,0.0,0.0,0.0,0.0,0.0,0.0,0.0,0.0,0.0,0.0,0.0,0.0,0.0,0.0,0.0,0.0,0.0,0.0,0.0,0.0,0.0,0.0,0.0,0.0,0.0,0.0,0.0,0.0,0.0,0.0,0.0,0.0,0.0,0.0,0.0,0.0,0.0,0.0,0.0,0.0,0.0,0.0,0.0,0.0,0.0,0.0,0.0,0.0,0.0,0.0,0.0,0.0,0.0,0.0,0.0,0.0,0.0,0.0,0.0,0.0,0.0,0.0,0.0,0.0,0.0,0.0,0.0,0.0,0.0,0.0,0.0,0.0,0.0,0.0,0.0,0.0,0.0,0.0,0.0,0.0,0.0,0.0,0.0,0.0,0.0,0.0,0.0,0.0,0.0,0.0,0.0,0.0,0.0,0.0,0.0,0.0,0.0,0.0,0.0,0.0,0.0,0.0,0.0,0.0,0.0,0.0,0.0,0.0,0.0,0.0,0.0,0.0,0.0,0.0,0.0,0.0,0.0,0.0,0.0,0.0,0.0,0.0,0.0,0.0,0.0,0.0,0.0,0.0,0.0,0.0,0.0,0.0,0.0,0.0,0.0,0.0,0.0,0.0,0.0,0.0,0.0,0.0,0.0,0.0,0.0,0.0,0.0,0.0,0.0,0.0,0.0,0.0,0.0,0.0,0.0,0.0,0.0,0.0,0.0,0.0,0.0,0.0,0.0,0.0,0.0,0.0,0.0,0.0,0.0,0.0,0.0,0.0,0.0,0.0,0.0,0.0,0.0,0.0,0.0,0.0,0.0,0.0,0.0,0.0,0.0,0.0,0.0,0.0,0.0,0.0,0.0,0.0,0.0,0.0,0.0,0.0,0.0,0.0,0.0,0.0,0.0,0.0,0.0,0.0,0.0,0.0,0.0,0.0,0.0,0.0,0.0,0.0,0.0,0.0,0.0,0.0,0.0,0.0,0.0,0.0,0.0,0.0,0.0,0.0,0.0,0.0,0.0,0.0,0.0,0.0,0.0,0.0,0.0,0.0,0.0,0.0,0.0,0.0,0.0,0.0,0.0,0.0,0.0,0.0,0.0,0.0,0.0,0.0,0.0,0.0,0.0,0.0,0.0,0.0,0.0,0.0,0.0,0.0,0.0,0.0,0.0,0.0,0.0,0.0,0.0,0.0,0.0,0.0,0.0,0.0,0.0,0.0,0.0,0.0,0.0,0.0,0.0,0.0,0.0,0.0,0.0,0.0,0.0,0.0,0.0,0.0,0.0,0.0,0.0,0.0,0.0,0.0,0.0,0.0,0.0,0.0,0.0,0.0,0.0,0.0,0.0,0.0,0.0,0.0,0.0,0.0,0.0,0.0,0.0,0.0,0.0,0.0,0.0,0.0,0.0,0.0,0.0,0.0,0.0,0.0,0.0,0.0,0.0,0.0,0.0,0.0,0.0,0.0,0.0,0.0,0.0,0.0,0.0,0.0,0.0,0.0,0.0,0.0,0.0,0.0,0.0,0.0,0.0,0.0,0.0,0.0,0.0,0.0,0.0,0.0,0.0,0.0,0.0,0.0,0.0,0.0,0.0,0.0,0.0,0.0,0.0,0.0,0.0,0.0,0.0,0.0,0.0,0.0,0.0,0.0,0.0,0.0,0.0,0.0,0.0,0.0,0.0,0.0,0.0,0.0,0.0,0.0,0.0,0.0,0.0,0.0,0.0,0.0,0.0,0.0,0.0,0.0,0.0,0.0,0.0,0.0,0.0,0.0,0.0,0.0,0.0,0.0,0.0,0.0,0.0,0.0,0.0,0.0,0.0,0.0,0.0,0.0,0.0,0.0,0.0,0.0,0.0,0.0,0.0,0.0,0.0,0.0,0.0,0.0,0.0,0.0,0.0,0.0,0.0,0.0,0.0,0.0,0.0,0.0,0.0,0.0,0.0,0.0,0.0,0.0,0.0,0.0,0.0,0.0,0.0,0.0,0.0,0.0,0.0,0.0,0.0,0.0,0.0,0.0,0.0,0.0,0.0,0.0,0.0,0.0,0.0,0.0,0.0,0.0,0.0,0.0,0.0,0.0,0.0,0.0,0.0,0.0,0.0,0.0,0.0,0.0,0.0,0.0,0.0,0.0,0.0,0.0,0.0,0.0,0.0,0.0,0.0,0.0,0.0,0.0,0.0,0.0,0.0,0.0,0.0,0.0,0.0,0.0,0.0,0.0,0.0,0.0,0.0,0.0,0.0,0.0,0.0,0.0,0.0,0.0,0.0,0.0,0.0,0.0,0.0,0.0,0.0,0.0,0.0,0.0,0.0,0.0,0.0,0.0,0.0,0.0,0.0,0.0,0.0,0.0,0.0,0.0,0.0,0.0,0.0,0.0,0.0,0.0,0.0,0.0,0.0,0.0,0.0,0.0,0.0,0.0,0.0,0.0,0.0,0.0,0.0,0.0,0.0,0.0,0.0,0.0,0.0,0.0,0.0,0.0,0.0,0.0,0.0,0.0,0.0,0.0,0.0,0.0,0.0,0.0,0.0,0.0,0.0,0.0,0.0,0.0,0.0,0.0,0.0,0.0,0.0,0.0,0.0,0.0,0.0,0.0,0.0,0.0,0.0,0.0,0.0,0.0,0.0,0.0,0.0,0.0,0.0,0.0,0.0,0.0,0.0,0.0,0.0,0.0,0.0,0.0,0.0,0.0,0.0,0.0,0.0,0.0,0.0,0.0,0.0,0.0,0.0,0.0,0.0,0.0,0.0,0.0,0.0,0.0,0.0,0.0,0.0,0.0,0.0,0.0,0.0,0.0,0.0,0.0,0.0,0.0,0.0,0.0,0.0,0.0,0.0,0.0,0.0,0.0,0.0,0.0,0.0,0.0,0.0,0.0,0.0,0.0,0.0,0.0,0.0,0.0,0.0,0.0,0.0,0.0,0.0,0.0,0.0,0.0,0.0,0.0,0.0,0.0,0.0,0.0,0.0,0.0,0.0,0.0,0.0,0.0,0.0,0.0,0.0,0.0,0.0,0.0,0.0,0.0,0.0,0.0,0.0,0.0,0.0,0.0,0.0,0.0,0.0,0.0,0.0,0.0,0.0,0.0,0.0,0.0,0.0,0.0,1.3525,0.0,0.0,0.0,0.0,0.0,0.0,0.0,0.0,0.0,0.0,0.0,0.0,0.0,0.0,0.0,0.0,0.0,0.0,0.0,0.0,0.0,0.0,0.0,0.0,0.0,0.0,0.0,0.0,0.0,0.0,0.0,0.0,0.0,0.0,0.0,0.0,0.0,0.0,0.0,0.0,0.0,0.0,0.0,0.0,0.0,0.0,0.0,0.0,0.0,0.0,0.0,0.0,0.0,0.0,0.0,0.0,0.0,0.0,0.0,0.0,0.0,0.0,0.0,0.0,0.0,0.0,0.0,0.0,0.0,0.0,0.0,0.0,0.0,0.0,0.0,0.0,0.0,0.0,0.0,0.0,0.0,0.0,0.0,0.0,0.0,0.0,0.0,0.0,0.0,0.0,0.0,0.0,0.0,0.0,0.0,0.0,0.0,0.0,0.0,0.0,0.0,0.0,0.0,0.0,0.0,0.0,0.0,0.0,0.0,0.0,1.5322,1.5127,1.4482,1.4043,1.3848,0.0,0.0,0.0,0.0,0.0,0.0,0.0,0.0,0.0,0.0,0.0,0.0,0.0,0.0,0.0,0.0,0.0,0.0,0.0,0.0,0.0,0.0,0.0,0.0,0.0,0.0,0.0,0.0,0.0,0.0,0.0,0.0,0.0,0.0,0.0,0.0,0.0,0.0,0.0,0.0,0.0,0.0,0.0,0.0,0.0,0.0,0.0,0.0,0.0,0.0,0.0,0.0,0.0,0.0,0.0,0.0,0.0,0.0,0.0,0.0,0.0,0.0,0.0,0.0,0.0,0.0,0.0,0.0,0.0,0.0,0.0,0.0,0.0,0.0,0.0,0.0,0.0,0.0,0.0,0.0,0.0,0.0,0.0,0.0,0.0,0.0,0.0,0.0,0.0,0.0,0.0,0.0,0.0,0.0,0.0,0.0,0.0,0.0,0.0,0.0,0.0,0.0,0.0,0.0,0.0,0.0,0.0,0.0,0.0,0.0,0.0,0.0,1.4873,1.438,1.4334,0.0,0.0,0.0,0.0,0.0,0.0,0.0,0.0,0.0,0.0,0.0,0.0,0.0,0.0,0.0,0.0,0.0,0.0,0.0,0.0,0.0,0.0,0.0,0.0,0.0,0.0,0.0,0.0,0.0,0.0,0.0,0.0,0.0,0.0,0.0,0.0,0.0,0.0,0.0,0.0,0.0,0.0,0.0,0.0,0.0,0.0,0.0,0.0,0.0,0.0,0.0,0.0,0.0,0.0,0.0,0.0,0.0,0.0,0.0,0.0,0.0,0.0,0.0,0.0,0.0,0.0,0.0,0.0,0.0,0.0,0.0,0.0,0.0,0.0,0.0,0.0,0.0,0.0,0.0,0.0,0.0,0.0,0.0,0.0,0.0,0.0,0.0,0.0,0.0,0.0,0.0,0.0,0.0,0.0,0.0,0.0,0.0,0.0,0.0,0.0,0.0,0.0,0.0,0.0,0.0,0.0,0.0,0.0,0.0,0.0,1.5791,1.651,1.5742,0.0,1.5038,0.0,0.0,0.0,0.0,0.0,0.0,0.0,0.0,0.0,0.0,0.0,0.0,0.0,0.0,0.0,0.0,0.0,0.0,0.0,0.0,0.0,0.0,0.0,0.0,0.0,0.0,0.0,0.0,0.0,0.0,0.0,0.0,0.0,0.0,0.0,0.0,0.0,0.0,0.0,0.0,0.0,0.0,0.0,0.0,0.0,0.0,0.0,0.0,0.0,0.0,0.0,0.0,0.0,0.0,0.0,0.0,0.0,0.0,0.0,0.0,0.0,0.0,0.0,0.0,0.0,0.0,0.0,0.0,0.0,0.0,0.0,0.0,0.0,0.0,0.0,0.0,0.0,0.0,0.0,0.0,0.0,0.0,0.0,0.0,0.0,0.0,0.0,0.0,0.0,0.0,0.0,0.0,0.0,0.0,0.0,0.0,0.0,0.0,0.0,0.0,0.0,0.0,0.0,0.0,0.0,0.0,0.0,0.0,0.0,0.0,1.5411,1.5751,1.5544,1.5282,0.0,0.0,0.0,0.0,0.0,0.0,0.0,0.0,0.0,0.0,0.0,0.0,0.0,0.0,0.0,0.0,0.0,0.0,0.0,0.0,0.0,0.0,0.0,0.0,0.0,0.0,0.0,0.0,0.0,0.0,0.0,0.0,0.0,0.0,0.0,0.0,0.0,0.0,0.0,0.0,0.0,0.0,0.0,0.0,0.0,0.0,0.0,0.0,0.0,0.0,0.0,0.0,0.0,0.0,0.0,0.0,0.0,0.0,0.0,0.0,0.0,0.0,0.0,0.0,0.0,0.0,0.0,0.0,0.0,0.0,0.0,0.0,0.0,0.0,0.0,0.0,0.0,0.0,0.0,0.0,0.0,0.0,0.0,0.0,0.0,0.0,0.0,0.0,0.0,0.0,0.0,0.0,0.0,0.0,0.0,0.0,0.0,0.0,0.0,0.0,0.0,0.0,0.0,0.0,0.0,0.0,0.0,0.0,0.0,0.0,1.4558,1.5244,1.5523,1.5801,1.5741,1.5372,0.0,0.0,0.0,0.0,0.0,0.0,0.0,0.0,0.0,0.0,0.0,0.0,0.0,0.0,0.0,0.0,0.0,0.0,0.0,0.0,0.0,0.0,0.0,0.0,0.0,0.0,0.0,0.0,0.0,0.0,0.0,0.0,0.0,0.0,0.0,0.0,0.0,0.0,0.0,0.0,0.0,0.0,0.0,0.0,0.0,0.0,0.0,0.0,0.0,0.0,0.0,0.0,0.0,0.0,0.0,0.0,0.0,0.0,0.0,0.0,0.0,0.0,0.0,0.0,0.0,0.0,0.0,0.0,0.0,0.0,0.0,0.0,0.0,0.0,0.0,0.0,0.0,0.0,0.0,0.0,0.0,0.0,0.0,0.0,0.0,0.0,0.0,0.0,0.0,0.0,0.0,0.0,0.0,0.0,0.0,0.0,0.0,0.0,0.0,0.0,0.0,0.0,0.0,0.0,0.0,0.0,0.0,0.0,0.0,1.5205,1.557,1.6607,1.7081,1.6877,0.0,0.0,0.0,0.0,0.0,0.0,0.0,0.0,0.0,0.0,0.0,0.0,0.0,0.0,0.0,0.0,0.0,0.0,0.0,0.0,0.0,0.0,0.0,0.0,0.0,0.0,0.0,0.0,0.0,0.0,0.0,0.0,0.0,0.0,0.0,0.0,0.0,0.0,0.0,0.0,0.0,0.0,0.0,0.0,0.0,0.0,0.0,0.0,0.0,0.0,0.0,0.0,0.0,0.0,0.0,0.0,0.0,0.0,0.0,0.0,0.0,0.0,0.0,0.0,0.0,0.0,0.0,0.0,0.0,0.0,0.0,0.0,0.0,0.0,0.0,0.0,0.0,0.0,0.0,0.0,0.0,0.0,0.0,0.0,0.0,0.0,0.0,0.0,0.0,0.0,0.0,0.0,0.0,0.0,0.0,0.0,0.0,0.0,0.0,0.0,0.0,0.0,0.0,0.0,0.0,0.0,0.0,0.0,0.0,1.1629,1.2915,1.4741,1.6977,1.6604,1.6456,0.0,0.0,0.0,0.0,0.0,0.0,0.0,0.0,0.0,0.0,0.0,0.0,0.0,0.0,0.0,0.0,0.0,0.0,0.0,0.0,0.0,0.0,0.0,0.0,0.0,0.0,0.0,0.0,0.0,0.0,0.0,0.0,0.0,0.0,0.0,0.0,0.0,0.0,0.0,0.0,0.0,0.0,0.0,0.0,0.0,0.0,0.0,0.0,0.0,0.0,0.0,0.0,0.0,0.0,0.0,0.0,0.0,0.0,0.0,0.0,0.0,0.0,0.0,0.0,0.0,0.0,0.0,0.0,0.0,0.0,0.0,0.0,0.0,0.0,0.0,0.0,0.0,0.0,0.0,0.0,0.0,0.0,0.0,0.0,0.0,0.0,0.0,0.0,0.0,0.0,0.0,0.0,0.0,0.0,0.0,0.0,0.0,0.0,0.0,0.0,0.0,0.0,0.0,0.0,0.0,0.0,0.0,0.0,0.0,1.0827,0.0,1.448,0.0,1.6533,1.6364,0.0,0.0,0.0,0.0,0.0,0.0,0.0,0.0,0.0,0.0,0.0,0.0,0.0,0.0,0.0,0.0,0.0,0.0,0.0,0.0,0.0,0.0,0.0,0.0,0.0,0.0,0.0,0.0,0.0,0.0,0.0,0.0,0.0,0.0,0.0,0.0,0.0,0.0,0.0,0.0,0.0,0.0,0.0,0.0,0.0,0.0,0.0,0.0,0.0,0.0,0.0,0.0,0.0,0.0,0.0,0.0,0.0,0.0,0.0,0.0,0.0,0.0,0.0,0.0,0.0,0.0,0.0,0.0,0.0,0.0,0.0,0.0,0.0,0.0,0.0,0.0,0.0,0.0,0.0,0.0,0.0,0.0,0.0,0.0,0.0,0.0,0.0,0.0,0.0,0.0,0.0,0.0,0.0,0.0,0.0,0.0,0.0,0.0,0.0,0.0,0.0,0.0,0.0,0.0,0.0,0.0,0.0,0.0,1.2293,1.3805,1.4156,1.4989,1.6113,1.7091,1.6714,0.0,0.0,0.0,0.0,0.0,0.0,0.0,0.0,0.0,0.0,0.0,0.0,0.0,0.0,0.0,0.0,0.0,0.0,0.0,0.0,0.0,0.0,0.0,0.0,0.0,0.0,0.0,0.0,0.0,0.0,0.0,0.0,0.0,0.0,0.0,0.0,0.0,0.0,0.0,0.0,0.0,0.0,0.0,0.0,0.0,0.0,0.0,0.0,0.0,0.0,0.0,0.0,0.0,0.0,0.0,0.0,0.0,0.0,0.0,0.0,0.0,0.0,0.0,0.0,0.0,0.0,0.0,0.0,0.0,0.0,0.0,0.0,0.0,0.0,0.0,0.0,0.0,0.0,0.0,0.0,0.0,0.0,0.0,0.0,0.0,0.0,0.0,0.0,0.0,0.0,0.0,0.0,0.0,0.0,0.0,0.0,0.0,0.0,0.0,0.0,0.0,0.0,0.0,0.0,0.0,0.0,0.0,0.0,0.0,1.2738,1.4626,1.6389,1.7895,1.7577,1.7552,0.0,0.0,0.0,0.0,0.0,0.0,0.0,0.0,0.0,0.0,0.0,0.0,0.0,0.0,0.0,0.0,0.0,0.0,0.0,0.0,0.0,0.0,0.0,0.0,0.0,0.0,0.0,0.0,0.0,0.0,0.0,0.0,0.0,0.0,0.0,0.0,0.0,0.0,0.0,0.0,0.0,0.0,0.0,0.0,0.0,0.0,0.0,0.0,0.0,0.0,0.0,0.0,0.0,0.0,0.0,0.0,0.0,0.0,0.0,0.0,0.0,0.0,0.0,0.0,0.0,0.0,0.0,0.0,0.0,0.0,0.0,0.0,0.0,0.0,0.0,0.0,0.0,0.0,0.0,0.0,0.0,0.0,0.0,0.0,0.0,0.0,0.0,0.0,0.0,0.0,0.0,0.0,0.0,0.0,0.0,0.0,0.0,0.0,0.0,0.0,0.0,0.0,0.0,0.0,0.0,0.0,0.0,0.0,0.0,1.4616,1.6427,1.8086,1.9583,1.8813,1.8429,1.8572,0.0,0.0,0.0,0.0,0.0,0.0,0.0,0.0,0.0,0.0,0.0,0.0,0.0,0.0,0.0,0.0,0.0,0.0,0.0,0.0,0.0,0.0,0.0,0.0,0.0,0.0,0.0,0.0,0.0,0.0,0.0,0.0,0.0,0.0,0.0,0.0,0.0,0.0,0.0,0.0,0.0,0.0,0.0,0.0,0.0,0.0,0.0,0.0,0.0,0.0,0.0,0.0,0.0,0.0,0.0,0.0,0.0,0.0,0.0,0.0,0.0,0.0,0.0,0.0,0.0,0.0,0.0,0.0,0.0,0.0,0.0,0.0,0.0,0.0,0.0,0.0,0.0,0.0,0.0,0.0,0.0,0.0,0.0,0.0,0.0,0.0,0.0,0.0,0.0,0.0,0.0,0.0,0.0,0.0,0.0,0.0,0.0,0.0,0.0,0.0,0.0,0.0,0.0,0.0,0.0,0.0,0.0,0.0,1.8906,1.9475,2.0195,2.1133,2.0604,1.9459,0.0,0.0,0.0,0.0,0.0,0.0,0.0,0.0,0.0,0.0,0.0,0.0,0.0,0.0,0.0,0.0,0.0,0.0,0.0,0.0,0.0,0.0,0.0,0.0,0.0,0.0,0.0,0.0,0.0,0.0,0.0,0.0,0.0,0.0,0.0,0.0,0.0,0.0,0.0,0.0,0.0,0.0,0.0,0.0,0.0,0.0,0.0,0.0,0.0,0.0,0.0,0.0,0.0,0.0,0.0,0.0,0.0,0.0,0.0,0.0,0.0,0.0,0.0,0.0,0.0,0.0,0.0,0.0,0.0,0.0,0.0,0.0,0.0,0.0,0.0,0.0,0.0,0.0,0.0,0.0,0.0,0.0,0.0,0.0,0.0,0.0,0.0,0.0,0.0,0.0,0.0,0.0,0.0,0.0,0.0,0.0,0.0,0.0,0.0,0.0,0.0,0.0,0.0,0.0,0.0,0.0,0.0,0.0,0.0,2.3034,2.4135,2.451,2.408,2.2542,2.155,0.0,0.0,0.0,0.0,0.0,0.0,0.0,0.0,0.0,0.0,0.0,0.0,0.0,0.0,0.0,0.0,0.0,0.0,0.0,0.0,0.0,0.0,0.0,0.0,0.0,0.0,0.0,0.0,0.0,0.0,0.0,0.0,0.0,0.0,0.0,0.0,0.0,0.0,0.0,0.0,0.0,0.0,0.0,0.0,0.0,0.0,0.0,0.0,0.0,0.0,0.0,0.0,0.0,0.0,0.0,0.0,0.0,0.0,0.0,0.0,0.0,0.0,0.0,0.0,0.0,0.0,0.0,0.0,0.0,0.0,0.0,0.0,0.0,0.0,0.0,0.0,0.0,0.0,0.0,0.0,0.0,0.0,0.0,0.0,0.0,0.0,0.0,0.0,0.0,0.0,0.0,0.0,0.0,0.0,0.0,0.0,0.0,0.0,0.0,0.0,0.0,0.0,0.0,0.0,0.0,0.0,0.0,0.0,2.2342,2.5506,2.686,2.7452,2.7103,2.5108,2.3513,0.0,0.0,0.0,0.0,0.0,0.0,0.0,0.0,0.0,0.0,0.0,0.0,0.0,0.0,0.0,0.0,0.0,0.0,0.0,0.0,0.0,0.0,0.0,0.0,0.0,0.0,0.0,0.0,0.0,0.0,0.0,0.0,0.0,0.0,0.0,0.0,0.0,0.0,0.0,0.0,0.0,0.0,0.0,0.0,0.0,0.0,0.0,0.0,0.0,0.0,0.0,0.0,0.0,0.0,0.0,0.0,0.0,0.0,0.0,0.0,0.0,0.0,0.0,0.0,0.0,0.0,0.0,0.0,0.0,0.0,0.0,0.0,0.0,0.0,0.0,0.0,0.0,0.0,0.0,0.0,0.0,0.0,0.0,0.0,0.0,0.0,0.0,0.0,0.0,0.0,0.0,0.0,0.0,0.0,0.0,0.0,0.0,0.0,0.0,0.0,0.0,0.0,0.0,0.0,0.0,0.0,0.0,0.0,2.4194,2.7004,2.8443,2.9455,2.9894,2.7801,2.5384,0.0,0.0,0.0,0.0,0.0,0.0,0.0,0.0,0.0,0.0,0.0,0.0,0.0,0.0,0.0,0.0,0.0,0.0,0.0,0.0,0.0,0.0,0.0,0.0,0.0,0.0,0.0,0.0,0.0,0.0,0.0,0.0,0.0,0.0,0.0,0.0,0.0,0.0,0.0,0.0,0.0,0.0,0.0,0.0,0.0,0.0,0.0,0.0,0.0,0.0,0.0,0.0,0.0,0.0,0.0,0.0,0.0,0.0,0.0,0.0,0.0,0.0,0.0,0.0,0.0,0.0,0.0,0.0,0.0,0.0,0.0,0.0,0.0,0.0,0.0,0.0,0.0,0.0,0.0,0.0,0.0,0.0,0.0,0.0,0.0,0.0,0.0,0.0,0.0,0.0,0.0,0.0,0.0,0.0,0.0,0.0,0.0,0.0,0.0,0.0,0.0,0.0,0.0,0.0,0.0,0.0,0.0,0.0,2.6427,2.8587,3.0045,3.1069,3.1498,2.8851,2.6459,0.0,0.0,0.0,0.0,0.0,0.0,0.0,0.0,0.0,0.0,0.0,0.0,0.0,0.0,0.0,0.0,0.0,0.0,0.0,0.0,0.0,0.0,0.0,0.0,0.0,0.0,0.0,0.0,0.0,0.0,0.0,0.0,0.0,0.0,0.0,0.0,0.0,0.0,0.0,0.0,0.0,0.0,0.0,0.0,0.0,0.0,0.0,0.0,1.6454,0.0,0.0,0.0,0.0,0.0,0.0,0.0,0.0,0.0,0.0,0.0,0.0,0.0,0.0,0.0,0.0,0.0,0.0,0.0,0.0,0.0,0.0,0.0,0.0,0.0,0.0,0.0,0.0,0.0,0.0,0.0,0.0,0.0,0.0,0.0,0.0,0.0,0.0,0.0,0.0,0.0,0.0,0.0,0.0,0.0,0.0,0.0,0.0,0.0,0.0,0.0,0.0,0.0,0.0,0.0,0.0,0.0,0.0,0.0,2.796,3.0131,3.1681,3.2499,3.2317,3.1015,2.8927,0.0,0.0,0.0,0.0,0.0,0.0,0.0,0.0,0.0,0.0,0.0,0.0,0.0,0.0,0.0,0.0,0.0,0.0,0.0,0.0,0.0,0.0,0.0,0.0,0.0,0.0,0.0,0.0,0.0,0.0,0.0,0.0,0.0,0.0,0.0,0.0,0.0,0.0,0.0,0.0,0.0,0.0,0.0,0.0,0.0,0.0,0.0,0.0,0.0,0.0,0.0,0.0,0.0,0.0,0.0,0.0,0.0,0.0,0.0,0.0,0.0,0.0,0.0,0.0,0.0,0.0,0.0,0.0,0.0,0.0,0.0,0.0,0.0,0.0,0.0,0.0,0.0,0.0,0.0,0.0,0.0,0.0,0.0,0.0,0.0,0.0,0.0,0.0,0.0,0.0,0.0,0.0,0.0,0.0,0.0,0.0,0.0,0.0,0.0,0.0,0.0,0.0,0.0,0.0,0.0,0.0,0.0,2.6384,2.9008,3.1655,3.3219,3.3741,3.3285,3.3269,3.1464,2.783,0.0,0.0,0.0,0.0,0.0,0.0,0.0,0.0,0.0,0.0,0.0,0.0,0.0,0.0,0.0,0.0,0.0,0.0,0.0,0.0,0.0,0.0,0.0,0.0,0.0,0.0,0.0,0.0,0.0,0.0,0.0,0.0,0.0,0.0,0.0,0.0,0.0,0.0,1.6862,1.6818,0.0,0.0,0.0,0.0,0.0,0.0,0.0,0.0,1.6559,0.0,0.0,0.0,0.0,0.0,0.0,0.0,0.0,0.0,0.0,0.0,0.0,0.0,0.0,0.0,0.0,0.0,0.0,0.0,0.0,0.0,0.0,0.0,0.0,0.0,0.0,0.0,0.0,0.0,0.0,0.0,0.0,0.0,0.0,0.0,0.0,0.0,0.0,0.0,0.0,0.0,0.0,0.0,0.0,0.0,0.0,0.0,0.0,0.0,0.0,0.0,0.0,0.0,0.0,0.0,0.0,2.7201,2.7813,2.9745,3.3315,3.412,3.4792,3.5362,3.4311,3.2367,2.9347,0.0,0.0,0.0,0.0,0.0,0.0,0.0,0.0,0.0,0.0,0.0,0.0,0.0,0.0,0.0,0.0,0.0,0.0,0.0,0.0,0.0,0.0,0.0,0.0,0.0,0.0,0.0,0.0,0.0,0.0,0.0,0.0,0.0,0.0,0.0,0.0,0.0,0.0,0.0,1.8156,1.7827,0.0,0.0,0.0,0.0,0.0,0.0,0.0,0.0,1.6584,0.0,0.0,0.0,0.0,0.0,0.0,0.0,0.0,0.0,0.0,0.0,0.0,0.0,0.0,0.0,0.0,0.0,0.0,0.0,0.0,0.0,0.0,0.0,0.0,0.0,0.0,0.0,0.0,0.0,0.0,0.0,0.0,0.0,0.0,0.0,0.0,0.0,0.0,0.0,0.0,0.0,0.0,0.0,0.0,0.0,0.0,0.0,0.0,0.0,0.0,0.0,0.0,0.0,0.0,0.0,2.715,2.9215,3.1563,3.423,3.5625,3.6151,3.5899,3.4491,3.237,0.0,0.0,0.0,0.0,0.0,0.0,0.0,0.0,0.0,0.0,0.0,0.0,0.0,0.0,0.0,0.0,0.0,0.0,0.0,0.0,0.0,0.0,0.0,0.0,0.0,0.0,0.0,0.0,0.0,0.0,0.0,0.0,0.0,0.0,0.0,0.0,0.0,0.0,0.0,0.0,1.8693,1.8417,1.9007,0.0,0.0,0.0,0.0,0.0,0.0,1.7074,1.6722,0.0,0.0,0.0,0.0,0.0,0.0,0.0,0.0,0.0,0.0,0.0,0.0,0.0,0.0,0.0,0.0,0.0,0.0,0.0,0.0,0.0,0.0,0.0,0.0,0.0,0.0,0.0,0.0,0.0,0.0,0.0,0.0,0.0,0.0,0.0,0.0,0.0,0.0,0.0,0.0,0.0,0.0,0.0,0.0,0.0,0.0,0.0,0.0,0.0,0.0,0.0,0.0,0.0,0.0,0.0,2.6812,3.029,3.3212,3.5278,3.6845,3.7168,3.6228,3.4579,3.2392,0.0,0.0,0.0,0.0,0.0,0.0,0.0,0.0,0.0,0.0,0.0,0.0,0.0,0.0,0.0,0.0,0.0,0.0,0.0,0.0,0.0,0.0,0.0,0.0,0.0,0.0,0.0,0.0,0.0,0.0,0.0,0.0,0.0,0.0,0.0,0.0,0.0,0.0,0.0,0.0,0.0,1.9221,2.0175,1.9296,0.0,0.0,0.0,0.0,1.7727,1.7513,0.0,0.0,0.0,0.0,0.0,0.0,0.0,0.0,0.0,0.0,0.0,0.0,0.0,0.0,0.0,0.0,0.0,0.0,0.0,0.0,0.0,0.0,0.0,0.0,0.0,0.0,0.0,0.0,0.0,0.0,0.0,0.0,0.0,0.0,0.0,0.0,0.0,0.0,0.0,0.0,0.0,0.0,0.0,0.0,0.0,0.0,0.0,0.0,0.0,0.0,0.0,0.0,0.0,0.0,0.0,0.0,2.7787,3.0569,3.3687,3.7234,3.7089,3.7012,3.7183,3.5365,3.2856,0.0,0.0,0.0,0.0,0.0,0.0,0.0,0.0,0.0,0.0,0.0,0.0,0.0,0.0,0.0,0.0,0.0,0.0,0.0,0.0,0.0,0.0,0.0,0.0,0.0,0.0,0.0,0.0,0.0,0.0,0.0,0.0,0.0,0.0,0.0,0.0,0.0,0.0,0.0,0.0,0.0,2.0639,1.9397,1.9447,1.9459,0.0,0.0,1.9359,1.8907,1.9585,0.0,0.0,0.0,0.0,0.0,0.0,0.0,0.0,0.0,0.0,0.0,0.0,0.0,0.0,0.0,0.0,0.0,0.0,0.0,0.0,0.0,0.0,0.0,0.0,0.0,0.0,0.0,0.0,0.0,0.0,0.0,0.0,0.0,0.0,0.0,0.0,0.0,0.0,0.0,0.0,0.0,0.0,0.0,0.0,0.0,0.0,0.0,0.0,0.0,0.0,0.0,0.0,0.0,0.0,0.0,2.4985,2.8023,3.2123,3.5411,3.7713,3.7726,3.7612,3.7419,3.4786,3.2003,0.0,0.0,0.0,0.0,0.0,0.0,0.0,0.0,0.0,0.0,0.0,0.0,0.0,0.0,0.0,0.0,0.0,0.0,0.0,0.0,0.0,0.0,0.0,0.0,0.0,0.0,0.0,0.0,0.0,0.0,0.0,0.0,0.0,0.0,0.0,0.0,0.0,0.0,0.0,0.0,0.0,0.0,2.0426,2.0351,0.0,0.0,0.0,2.01,1.9547,0.0,0.0,0.0,0.0,0.0,0.0,0.0,0.0,0.0,0.0,0.0,0.0,0.0,0.0,0.0,0.0,0.0,0.0,0.0,0.0,0.0,0.0,0.0,0.0,0.0,0.0,0.0,0.0,0.0,0.0,0.0,0.0,0.0,0.0,0.0,0.0,0.0,0.0,0.0,0.0,0.0,0.0,0.0,0.0,0.0,0.0,0.0,0.0,0.0,0.0,0.0,0.0,0.0,0.0,0.0,0.0,0.0,2.8721,3.3751,3.6982,3.8146,3.8115,3.7928,3.7375,3.4233,0.0,0.0,0.0,0.0,0.0,0.0,0.0,0.0,0.0,0.0,0.0,0.0,0.0,0.0,0.0,0.0,0.0,0.0,0.0,0.0,0.0,0.0,0.0,0.0,0.0,0.0,0.0,1.291,0.0,0.0,0.0,0.0,0.0,0.0,0.0,0.0,0.0,0.0,0.0,0.0,0.0,0.0,2.074,2.1581,2.1455,2.1481,0.0,0.0,2.0928,2.0501,2.1255,2.1159,0.0,0.0,0.0,0.0,0.0,0.0,0.0,0.0,0.0,0.0,0.0,0.0,0.0,0.0,0.0,0.0,0.0,0.0,0.0,0.0,0.0,0.0,0.0,0.0,0.0,0.0,0.0,0.0,0.0,0.0,0.0,0.0,0.0,0.0,0.0,0.0,0.0,0.0,0.0,0.0,0.0,0.0,0.0,0.0,0.0,0.0,0.0,0.0,0.0,0.0,0.0,0.0,0.0,0.0,2.7371,3.0478,3.4978,3.7908,3.916,3.8068,3.7449,3.7345,3.4218,3.1285,0.0,0.0,0.0,0.0,0.0,0.0,0.0,0.0,0.0,0.0,0.0,0.0,0.0,0.0,0.0,0.0,0.0,0.0,0.0,0.0,0.0,0.0,0.0,0.0,0.0,0.0,0.0,0.0,0.0,0.0,0.0,0.0,0.0,0.0,0.0,0.0,0.0,0.0,0.0,0.0,0.0,2.2159,2.2246,2.2661,2.3175,0.0,2.2912,2.2196,2.2146,2.2623,2.2268,2.0054,0.0,0.0,0.0,0.0,0.0,0.0,0.0,0.0,0.0,0.0,0.0,0.0,0.0,0.0,0.0,0.0,0.0,0.0,0.0,0.0,0.0,0.0,0.0,0.0,0.0,0.0,0.0,0.0,0.0,0.0,0.0,0.0,0.0,0.0,0.0,0.0,0.0,0.0,0.0,0.0,0.0,0.0,0.0,0.0,0.0,0.0,0.0,0.0,0.0,0.0,0.0,0.0,0.0,2.7483,3.0584,3.5059,3.8063,3.932,3.8108,3.7404,3.7404,3.4622,3.1704,0.0,0.0,0.0,0.0,0.0,0.0,0.0,0.0,0.0,0.0,0.0,0.0,0.0,0.0,0.0,0.0,0.0,0.0,0.0,0.0,0.0,0.0,0.0,0.0,0.0,0.0,0.0,0.0,1.6272,1.7079,1.7623,0.0,0.0,0.0,0.0,0.0,0.0,0.0,0.0,0.0,0.0,2.2046,2.2723,2.3301,0.0,0.0,2.413,2.374,2.3401,2.3513,2.2845,2.0638,2.0469,0.0,0.0,0.0,0.0,0.0,0.0,0.0,0.0,0.0,0.0,0.0,0.0,0.0,0.0,0.0,0.0,0.0,0.0,0.0,0.0,0.0,0.0,0.0,0.0,0.0,0.0,0.0,0.0,0.0,0.0,0.0,0.0,0.0,0.0,0.0,0.0,0.0,0.0,0.0,0.0,0.0,0.0,0.0,0.0,0.0,0.0,0.0,0.0,0.0,0.0,0.0,0.0,2.768,3.1175,3.5294,3.7958,3.908,3.8003,3.733,3.7075,3.4562,3.1839,0.0,0.0,0.0,0.0,0.0,0.0,0.0,0.0,0.0,0.0,0.0,0.0,0.0,0.0,0.0,0.0,0.0,0.0,0.0,0.0,0.0,0.0,0.0,0.0,0.0,0.0,0.0,0.0,1.7763,1.8403,1.8864,0.0,0.0,0.0,0.0,0.0,0.0,0.0,0.0,0.0,0.0,2.2447,2.369,2.4217,2.4682,2.5222,2.4895,2.4443,2.4054,2.4163,2.3612,2.1517,0.0,0.0,0.0,0.0,0.0,0.0,0.0,0.0,0.0,0.0,0.0,0.0,0.0,0.0,0.0,0.0,0.0,0.0,0.0,0.0,0.0,0.0,0.0,0.0,0.0,0.0,0.0,1.9045,0.0,0.0,1.7463,0.0,0.0,0.0,0.0,0.0,0.0,0.0,0.0,0.0,0.0,0.0,0.0,0.0,0.0,0.0,0.0,0.0,0.0,0.0,0.0,0.0,0.0,2.8134,3.2408,3.5729,3.7734,3.8377,3.7764,3.712,3.6492,3.3933,3.1599,2.9604,0.0,0.0,0.0,0.0,0.0,0.0,0.0,0.0,0.0,0.0,0.0,0.0,0.0,0.0,0.0,0.0,0.0,0.0,0.0,0.0,0.0,0.0,0.0,0.0,0.0,0.0,1.6747,1.7505,1.8354,0.0,0.0,0.0,0.0,0.0,0.0,0.0,0.0,0.0,2.1129,2.2397,2.3703,2.5272,2.5548,2.5737,2.6382,2.5084,2.4042,2.4042,2.4641,2.458,0.0,0.0,0.0,0.0,0.0,0.0,0.0,0.0,0.0,0.0,0.0,0.0,0.0,0.0,0.0,0.0,0.0,0.0,0.0,0.0,0.0,0.0,0.0,0.0,0.0,0.0,0.0,2.3025,2.2272,0.0,0.0,0.0,0.0,0.0,0.0,0.0,0.0,0.0,0.0,0.0,2.6976,2.8374,0.0,0.0,0.0,0.0,0.0,0.0,0.0,0.0,0.0,0.0,0.0,0.0,2.8495,3.2422,3.5744,3.7734,3.8347,3.7749,3.7105,3.6492,3.4337,3.1614,2.8338,0.0,0.0,0.0,0.0,0.0,0.0,0.0,0.0,0.0,0.0,0.0,0.0,0.0,0.0,0.0,0.0,0.0,0.0,0.0,0.0,0.0,0.0,0.0,0.0,0.0,1.9266,0.0,0.0,0.0,0.0,0.0,0.0,0.0,0.0,0.0,0.0,0.0,2.0823,2.1901,2.3326,2.4569,2.5485,2.5925,2.6239,0.0,0.0,0.0,0.0,0.0,0.0,0.0,0.0,0.0,0.0,0.0,0.0,0.0,0.0,2.2522,1.8627,1.7476,1.7099,1.7087,0.0,0.0,0.0,0.0,0.0,0.0,0.0,0.0,0.0,0.0,0.0,0.0,0.0,0.0,2.5548,2.4795,2.3866,0.0,0.0,0.0,0.0,0.0,0.0,0.0,0.0,2.8804,3.0207,3.0614,3.1957,3.1772,0.0,2.9604,2.6733,0.0,0.0,0.0,0.0,0.0,0.0,0.0,0.0,2.9131,3.314,3.5968,3.7614,3.8003,3.7629,3.7,3.6148,3.4203,3.1614,2.8434,2.5929,2.3939,0.0,0.0,0.0,0.0,0.0,0.0,0.0,0.0,0.0,0.0,0.0,0.0,0.0,0.0,0.0,0.0,0.0,0.0,0.0,0.0,0.0,0.0,0.0,2.0436,0.0,0.0,0.0,0.0,0.0,0.0,0.0,0.0,0.0,2.0772,2.1549,2.2786,2.421,2.5058,2.5793,2.6588,0.0,0.0,0.0,0.0,0.0,0.0,0.0,2.6427,2.6802,2.643,2.5953,2.5791,2.6504,2.6645,2.5328,0.0,0.0,2.0888,1.9733,1.9497,1.9577,2.0288,2.0887,2.0873,2.2352,2.354,0.0,0.0,0.0,0.0,2.7532,0.0,0.0,0.0,2.8122,2.7792,0.0,2.6198,0.0,0.0,0.0,0.0,2.5083,2.8999,0.0,0.0,3.3848,3.5099,3.4506,3.4987,3.4679,3.3667,3.3931,3.2248,2.8725,2.5188,0.0,0.0,0.0,0.0,0.0,0.0,3.0115,3.4397,3.6447,3.7449,3.7419,3.7404,3.6791,3.5489,3.3574,3.1659,2.9684,2.7724,2.5764,2.3774,2.1889,0.0,0.0,0.0,0.0,0.0,0.0,0.0,0.0,0.0,0.0,0.0,0.0,0.0,0.0,0.0,0.0,0.0,0.0,0.0,0.0,2.0401,0.0,0.0,0.0,0.0,0.0,0.0,0.0,0.0,0.0,2.5156,2.4105,2.3774,2.4751,2.7825,0.0,0.0,0.0,0.0,2.8053,2.8677,2.8346,2.8099,2.838,2.949,2.9724,2.8071,0.0,0.0,2.8023,2.8771,2.8951,2.7006,2.7636,2.7783,2.5587,2.4169,2.35,2.3647,2.3831,2.3988,2.4137,2.5412,2.6582,3.2893,0.0,0.0,0.0,0.0,3.1148,3.2077,3.3684,3.2679,3.2064,3.1679,3.0725,0.0,0.0,0.0,0.0,0.0,0.0,3.2911,3.4632,3.6458,3.7796,3.8616,3.9254,3.8883,3.7723,3.7312,3.6147,3.4248,3.221,2.8356,2.2873,0.0,0.0,0.0,0.0,3.199,3.513,3.7135,3.7883,3.7419,3.7404,3.6552,3.4816,3.3769,3.2512,3.1031,2.952,2.7799,2.5809,2.4328,0.0,0.0,0.0,0.0,0.0,0.0,0.0,0.0,0.0,0.0,0.0,0.0,0.0,0.0,0.0,0.0,0.0,0.0,0.0,2.0425,2.1048,2.1485,0.0,0.0,0.0,0.0,0.0,0.0,0.0,0.0,0.0,2.8367,2.7979,2.779,0.0,0.0,2.98,2.9652,2.9857,3.0156,3.0321,3.0198,0.0,3.097,3.0668,3.048,3.1013,3.1185,3.1046,3.0492,3.0717,3.0537,2.9407,2.9477,2.9402,2.8319,2.6759,2.5729,2.573,2.6139,2.6633,2.7064,2.8002,2.8753,3.715,3.5391,3.3541,3.3563,3.4773,3.4658,3.5898,3.7899,3.7085,3.6611,3.6333,3.5399,3.4039,3.2384,3.2065,0.0,0.0,0.0,3.611,3.7929,3.8958,3.989,4.0801,4.1205,4.0965,4.0172,3.9245,3.8407,3.7629,3.6282,3.2909,2.7752,0.0,0.0,2.8537,3.0994,3.3619,3.6193,3.7659,3.8078,3.7419,3.6911,3.6088,3.4921,3.3978,3.311,3.2317,3.0776,2.916,2.7455,2.6123,2.4388,0.0,0.0,0.0,0.0,0.0,0.0,0.0,0.0,0.0,0.0,0.0,1.7039,1.6728,0.0,0.0,0.0,2.0069,2.1609,2.2192,2.2622,0.0,0.0,0.0,0.0,0.0,0.0,0.0,2.6228,2.7664,2.9131,3.0717,3.1161,3.1197,3.0754,3.1119,3.142,3.1293,0.0,3.1561,3.1801,3.191,3.2188,3.2981,3.2478,3.2161,3.2735,3.2587,3.2213,3.1958,3.1928,3.1648,3.0969,3.0777,3.066,3.0265,2.9233,2.8282,2.7851,2.8272,2.8869,2.9181,2.9841,3.0357,4.1033,4.0658,3.697,3.6341,3.7963,3.8456,3.9297,4.0437,4.0938,4.0914,4.0388,3.9787,3.8641,3.7155,3.636,0.0,3.6937,3.8852,4.0038,4.0651,4.1265,4.1534,4.1549,4.1549,4.1504,4.1429,4.0232,3.9634,3.9514,3.8272,3.6671,3.4786,3.2916,3.2139,3.2602,3.335,3.4951,3.7375,3.8048,3.8078,3.7404,3.6163,3.5474,3.54,3.4173,3.3469,3.3365,3.1599,2.9998,2.8727,2.7455,2.5585,2.3056,0.0,0.0,0.0,0.0,0.0,0.0,0.0,0.0,0.0,0.0,0.0,0.0,0.0,0.0,0.0,2.2547,0.0,2.4522,2.4627,0.0,0.0,0.0,2.4133,2.4941,2.6093,2.7096,2.7799,0.0,0.0,3.1764,3.335,3.4502,3.4562,3.3348,3.268,3.3231,3.2854,3.2709,3.3303,3.3376,3.3652,3.4341,3.4349,3.4065,3.3649,3.3529,3.323,3.2706,3.2497,3.2258,3.1706,3.1526,3.1452,3.1467,3.1304,3.115,2.9913,3.0138,3.0582,3.0541,3.0959,3.1332,4.3328,4.2753,4.1761,4.1393,4.1475,4.1613,4.2021,4.2699,4.238,4.2452,4.261,4.1996,4.1738,4.1701,4.1492,4.1528,4.1692,4.219,4.2491,4.2626,4.2791,4.2865,4.2865,4.2865,4.2596,4.2132,4.1818,4.1414,4.0891,4.0083,3.8931,3.7479,3.6477,3.51,3.3395,3.4936,3.6312,3.7389,3.8048,3.8078,3.7404,3.6178,3.5265,3.4726,3.3918,3.326,3.2751,3.1809,3.0687,2.9415,2.8562,2.7141,2.5016,2.2289,0.0,0.0,0.0,0.0,0.0,0.0,0.0,0.0,0.0,2.0552,1.8593,0.0,2.1337,0.0,2.3236,2.4403,2.4567,2.5076,0.0,0.0,2.5974,2.6542,2.8218,2.8682,2.931,3.0462,3.1584,3.2662,3.3649,3.4188,3.4666,3.5175,3.4907,3.4619,3.4278,3.4545,3.4783,3.4851,3.4866,3.5041,3.5126,3.4801,3.4427,3.4262,3.3844,3.344,3.3275,3.2826,3.2467,3.2273,3.1854,3.1511,3.1467,3.1467,3.145,3.1135,3.1195,3.1285,3.13,3.142,3.1467,4.5162,4.4837,4.5032,4.5006,4.469,4.4132,4.4422,4.5178,4.4834,4.4847,4.5126,4.4482,4.4216,4.4212,4.4212,4.4212,4.4212,4.4212,4.4047,4.3778,4.3763,4.3629,4.3344,4.3344,4.3135,4.2776,4.2506,4.2177,4.1803,4.1145,4.0307,3.929,3.8916,3.7719,3.5789,3.6222,3.6791,3.7404,3.7764,3.7778,3.7404,3.6447,3.5474,3.4502,3.3844,3.3036,3.2108,3.145,3.0477,2.9205,2.8517,2.738,2.5674,2.3703,2.2247,0.0,0.0,0.0,0.0,0.0,0.0,0.0,0.0,0.0,0.0,0.0,2.3224,2.3762,2.5123,2.6048,2.6378,2.6991,2.7634,2.8263,2.8323,2.8996,3.0702,3.0896,3.127,3.2287,3.2991,3.3664,3.4382,3.4741,3.5055,3.5459,3.5489,3.537,3.504,3.528,3.5489,3.5489,3.5489,3.5489,3.5489,3.519,3.4936,3.4906,3.4637,3.4292,3.3993,3.3649,3.3215,3.2632,3.2213,3.181,3.1541,3.1467,3.1467,3.1467,3.1467,3.1467,3.1467,3.1467,3.1467,4.6819,4.6795,4.7229,4.7429,4.7342,4.6091,4.6255,4.7309,4.7309,4.7309,4.7279,4.6696,4.6112,4.5574,4.5559,4.5499,4.5424,4.5334,4.493,4.4332,4.4227,4.3883,4.3344,4.3344,4.3344,4.3314,4.2746,4.2491,4.2476,4.1818,4.119,4.0546,4.0352,3.9634,3.8407,3.721,3.6866,3.7389,3.7404,3.7404,3.7389,3.6716,3.5714,3.4412,3.3724,3.2751,3.1407,3.0821,2.9953,2.8801,2.8143,2.7275,2.6063,2.5211,2.4045,0.0,2.2293,0.0,0.0,0.0,0.0,0.0,0.0,0.0,0.0,2.5108,2.5722,2.6818,2.7631,2.8336,2.8906,2.9564,3.0163,3.0702,3.0836,3.136,3.2482,3.2706,3.2976,3.3559,3.4203,3.4607,3.4651,3.5145,3.5489,3.5489,3.5489,3.5474,3.5489,3.5489,3.5489,3.5489,3.5489,3.5489,3.5489,3.5489,3.5459,3.5474,3.5415,3.531,3.4711,3.4613,3.4239,3.3231,3.2854,3.2464,3.1865,3.1657,3.1467,3.1467,3.1467,3.1467,3.1467,3.1467,3.1467,4.9159,4.8715,4.8268,4.8117,4.8057,4.7242,4.7106,4.7309,4.7309,4.7309,4.7294,4.7174,4.7055,4.692,4.6935,4.6636,4.6112,4.5544,4.4945,4.4287,4.3763,4.3449,4.3344,4.3344,4.3344,4.3329,4.321,4.315,4.3135,4.2491,4.1848,4.1175,4.0142,3.92,3.8392,0.0,0.0,0.0,3.7404,3.7404,3.736,3.6282,3.504,3.3724,3.3051,0.0,3.0791,3.0582,3.0163,2.9445,2.9265,0.0,0.0,0.0,0.0,0.0,0.0,0.0,0.0,0.0,0.0,0.0,2.6444,2.6189,2.6252,2.8211,2.9353,2.9074,3.0134,3.0876,3.0968,3.1569,3.2018,3.2138,3.2602,3.3036,3.3305,3.3784,3.4158,3.4277,3.4891,3.5295,3.5295,3.5444,3.5489,3.5489,3.5489,3.5489,3.5489,3.5489,3.5489,3.5489,3.5489,3.5489,3.5489,3.5489,3.5554,3.5489,3.5489,3.5494,3.5394,3.5384,3.5383,3.4922,3.4149,3.3439,3.3224,3.2315,3.1554,3.1467,3.1467,3.1467,3.1467,3.1467,3.1467,5.0062,4.9688,4.9045,4.8581,0.0,4.7923,4.7608,4.7309,4.7309,4.7309,4.7309,4.7309,4.713,4.6815,4.6815,4.6456,4.5813,4.5454,4.493,4.4302,4.3973,4.3643,4.3344,4.3344,4.3344,4.3344,4.3344,4.3344,4.3314,4.3,4.2506,4.1863,4.119,4.0367,3.9379,3.8736,3.8242,3.7898,3.7883,3.7734,3.7404,3.6776,3.5654,3.4038,3.335,0.0,0.0,0.0,0.0,0.0,0.0,0.0,0.0,0.0,0.0,2.8513,2.7937,2.7596,2.7688,2.8232,2.9076,3.0159,3.1134,3.1096,2.9677,3.1469,3.2609,3.2626,3.2667,3.2739,3.3035,3.3035,3.314,3.344,3.3784,3.4098,3.4442,3.4786,3.4981,3.5011,3.5295,3.5489,3.5489,3.5489,3.5489,3.5489,3.5489,3.5489,3.5489,3.5489,3.5489,3.5489,3.5489,3.5489,3.5554,3.5846,3.6054,3.6054,3.6368,3.6616,3.6662,3.6654,3.6472,3.5758,3.5062,3.443,3.3261,3.2491,3.1928,3.1571,3.1467,3.1467,3.1467,3.1467,3.1467,5.0406,5.0346,4.9718,4.9134,4.8611,4.8386,4.7923,4.7309,4.7309,0.0,0.0,4.7309,4.701,4.6501,4.6381,4.6007,4.5469,4.5229,4.4825,4.4317,4.4197,4.3853,4.3344,4.3344,4.3344,4.3344,4.3344,4.3344,4.3344,4.3344,4.3075,4.2566,4.2432,4.1698,4.0442,3.9738,3.914,3.8586,3.8452,3.8138,3.7599,3.736,3.6432,3.4696,3.3903,3.2991,3.1965,3.1362,3.1174,3.1326,3.0814,3.1,3.2079,3.1549,3.1404,3.1935,3.1999,3.2048,3.2144,3.2707,3.3192,3.3404,3.5284,3.559,3.3511,3.4529,3.5512,3.6059,3.4952,3.4441,3.4984,3.4304,3.4068,3.4607,3.4651,3.4876,3.54,3.5489,3.5459,3.5489,3.5489,3.5489,3.5489,3.5489,3.5489,3.5489,3.5489,3.5489,3.5489,3.5489,3.5554,3.5718,3.5782,3.5782,3.5958,3.6415,3.6783,3.6859,3.7338,3.7764,3.7806,3.7921,3.7451,3.6334,3.5939,3.5007,3.3349,3.2691,3.2287,3.1601,3.1467,3.1467,3.1467,3.1467,3.1467,5.1065,5.1035,5.0376,5.0047,4.9868,4.876,4.7923,4.7324,4.7309,4.7309,4.7309,4.7309,4.7249,4.713,4.6576,4.6262,4.6097,4.4975,4.4392,4.4287,4.3748,4.3419,4.3344,4.3344,4.3344,4.3344,4.3344,4.3344,4.3344,4.3344,4.3269,4.315,4.2641,4.1698,4.0457,3.9753,3.9379,3.926,3.8691,3.8347,3.8242,3.718,3.6222,3.537,3.4158,3.3486,3.3429,3.329,3.3552,3.419,3.4146,3.413,3.4314,3.374,3.3401,3.3482,3.3498,3.3721,3.4282,3.4442,3.5007,3.6189,3.7686,3.7894,3.6392,3.6983,3.7451,3.7458,3.6706,3.6279,3.6288,3.5624,3.5175,3.531,3.534,3.5415,3.5519,3.5504,3.5519,3.5549,3.5489,3.5489,3.5489,3.5489,3.5489,3.5489,3.5489,3.5489,3.5554,3.5489,3.5782,3.629,3.6446,3.6737,3.7175,3.7531,3.7632,3.7632,3.7748,3.7994,3.7994,3.8414,3.8349,3.7588,3.689,3.5995,3.4512,3.3332,3.2362,3.1631,3.1467,3.1467,3.1467,3.1467,3.1467,5.1229,5.1184,5.09,5.0571,5.0137,4.8835,4.7923,4.7324,4.7309,4.7309,4.7309,4.7309,4.71,4.6726,4.6067,4.5559,4.5185,4.4227,4.3778,4.3763,4.3479,4.3344,4.3344,4.3344,4.3344,4.3344,4.3344,4.3344,4.3344,4.3344,4.3344,4.3269,4.2342,4.1534,4.0905,3.9933,3.9424,3.9409,3.911,3.8766,3.8392,3.7823,3.7045,3.6073,3.547,3.5032,3.4752,3.4816,3.5144,3.5883,3.5866,3.6037,3.6456,3.6174,3.5992,3.6058,3.6041,3.6158,3.6439,3.687,3.7502,3.8539,3.9211,3.9309,3.8633,3.8886,3.9109,3.9023,3.7981,3.7265,3.7247,3.6196,3.5489,3.5489,3.5489,3.5654,3.5923,3.5699,3.5654,3.5923,3.5714,3.5504,3.5489,3.5489,3.5489,3.5489,3.5489,3.5604,3.5991,3.6102,3.6228,3.6569,3.6964,3.7338,3.7764,3.8133,3.8358,3.8414,3.8761,3.9011,3.9065,3.9385,3.8978,3.8044,3.723,3.6131,3.4463,3.3245,3.2302,3.1719,3.1467,3.1467,3.1467,3.1467,3.1467,5.1229,5.1229,5.1229,5.075,4.9957,4.894,4.8057,4.7339,4.7309,4.7309,4.7309,4.7309,4.7025,4.6501,4.5828,4.5155,4.4511,4.3853,4.3479,4.3344,4.3344,4.3344,4.3344,4.3344,4.3344,4.3344,4.3344,4.3344,4.3344,4.3344,4.3344,4.3225,4.2177,4.1534,4.1354,4.0232,3.9574,3.9424,3.961,3.9339,3.8646,3.8662,3.8228,3.7343,3.7156,3.6933,3.6621,3.651,3.6792,3.7501,3.7552,3.7786,3.8348,3.8396,3.8396,3.8396,3.8413,3.8396,3.8413,3.892,3.9478,4.002,4.0087,4.007,4.0087,4.0257,4.0257,3.9986,3.8635,3.7854,3.7812,3.6629,3.5774,3.5893,3.5923,3.6163,3.6552,3.6222,3.6103,3.6552,3.6118,3.5729,3.5699,3.5594,3.5504,3.5489,3.5604,3.6006,3.6508,3.6843,3.7128,3.7231,3.7658,3.8149,3.8262,3.8761,3.9139,3.9193,3.961,3.9901,3.9952,3.9952,3.9332,3.8044,3.7218,3.5943,3.4016,3.3125,3.2467,3.1779,3.1467,3.1467,3.1467,3.1467,3.1467,5.1229,5.1229,5.1229,5.0496,4.9434,4.9209,4.8446,4.7399,4.7309,4.7309,4.7309,4.7309,4.7279,4.713,4.6501,4.5813,4.5155,4.4511,4.3898,4.3374,4.3344,4.3344,4.3344,4.3344,4.3344,4.3344,4.3344,4.3344,4.3344,4.3344,4.3344,4.3269,4.2611,4.1953,4.1354,4.0666,4.0023,3.9439,4.0185,4.0154,3.9346,3.9497,3.9555,3.9415,3.895,3.9011,3.942,3.8997,3.8994,3.9699,3.9699,3.9783,3.9834,3.9851,3.9851,3.9851,3.9851,3.9868,3.9851,3.9952,3.9986,4.007,4.0121,4.0138,4.0172,4.073,4.0798,4.0103,3.8772,3.8158,3.8551,3.7353,3.6596,3.7,3.709,3.727,3.7285,3.727,3.727,3.73,3.6776,3.6402,3.6297,3.5914,3.5599,3.5709,3.6211,3.6677,3.7013,3.7774,3.8509,3.8619,3.8799,3.9086,3.9558,3.9901,3.9901,3.9901,4.002,4.007,3.9952,3.9506,3.8707,3.8019,3.7062,3.5782,3.4379,3.338,3.2916,3.1973,3.1556,3.1467,3.1467,3.1467,3.1467,5.1229,5.1229,5.1229,5.069,4.9853,4.9434,4.8745,4.7893,4.7474,4.7309,4.7309,4.7309,4.7309,4.7264,4.6621,4.5948,4.5259,4.4616,4.3958,4.3374,4.3344,4.3344,4.3344,4.3344,4.3344,4.3344,4.3344,4.3344,4.3344,4.3344,4.3344,4.3269,4.2686,4.2028,4.1445,4.1271,4.0858,4.02,4.1013,4.128,4.0997,4.1012,4.0846,4.0563,4.0671,4.0549,4.0166,4.0184,4.0201,4.0121,4.0087,4.0087,4.0087,4.0087,4.0087,4.0087,4.0087,4.0087,4.0087,4.0087,4.0257,4.0713,4.0747,4.0916,4.1339,4.1677,4.1711,4.1283,3.9968,3.9182,3.9317,3.8015,3.7135,3.736,3.7404,3.7569,3.7943,3.7644,3.7524,3.7853,3.7434,3.6881,3.6558,3.6304,3.6331,3.6689,3.711,3.7599,3.8444,3.8858,3.9032,3.9489,3.961,3.9714,4.007,4.0087,4.0087,4.002,3.9679,3.9489,3.9833,3.8995,3.8165,3.7822,3.6877,3.5753,3.442,3.3335,3.2662,3.2048,3.1631,3.1467,3.1467,3.1467,3.1467,5.1229,5.1229,5.1229,5.084,5.0182,4.9553,4.8895,4.8237,4.7593,4.7452,4.7679,4.7694,4.7934,4.8027,4.7111,4.6127,4.5304,4.4796,4.4122,4.3419,4.3344,4.3344,4.3344,4.3344,4.3344,4.3344,4.3344,4.3344,4.3344,4.3344,4.3344,4.3269,4.2865,4.2346,4.1835,4.1899,4.1712,4.1174,4.1933,4.2395,4.2395,4.2583,4.2385,4.1792,4.2167,4.2052,4.1095,4.1328,4.1153,4.0443,4.0375,4.0375,4.0286,4.0336,4.0519,4.0837,4.0741,4.0762,4.0932,4.0815,4.0916,4.1424,4.1508,4.1711,4.2202,4.2472,4.2591,4.2466,4.1502,4.0797,4.0373,3.9232,3.8504,3.8589,3.865,3.8796,3.9001,3.8568,3.843,3.8597,3.834,3.7773,3.7373,3.7405,3.7808,3.7963,3.8296,3.8683,3.9726,3.9566,3.9489,4.0003,4.007,4.007,4.0087,4.0087,4.0087,3.9952,3.9489,3.9209,3.961,3.8541,3.7573,3.7275,3.6388,3.5537,3.4633,3.3559,3.2781,3.2482,3.2018,3.1497,3.1467,3.1467,3.1467,5.1229,5.1229,5.1229,5.0855,5.0197,4.9553,4.891,4.8312,4.768,4.7834,4.8594,4.8759,4.9311,4.9931,4.8164,4.6516,4.5492,4.5229,4.4526,4.3419,4.3344,4.3344,4.3344,4.3344,4.3344,4.3344,4.3344,4.3344,4.3344,4.3344,4.3344,4.3329,4.3334,4.306,4.2694,4.272,4.2441,4.2157,4.2802,4.3246,4.329,4.4006,4.3972,4.3261,4.327,4.3276,4.3074,4.2608,4.1914,4.1187,4.1205,4.112,4.0935,4.0943,4.1533,4.2581,4.2329,4.2327,4.2849,4.2398,4.2151,4.2236,4.2236,4.2286,4.2523,4.3031,4.3352,4.3369,4.3124,4.2736,4.2134,4.1158,4.0896,4.1389,4.1613,4.1238,4.065,4.039,4.0117,3.9667,3.952,3.929,3.8893,3.9406,3.9402,3.928,3.9561,4.0051,4.0144,4.0146,4.002,4.007,4.0087,4.0087,4.0087,4.0087,4.0087,3.9952,3.9489,3.8978,3.869,3.8302,3.76,3.7084,3.6779,3.6151,3.4999,3.4128,3.3499,3.2901,3.1974,3.1556,3.1467,3.1467,3.1467,5.1229,5.1229,5.1229,5.1065,5.075,4.9718,4.9134,4.8895,4.846,4.8444,4.8907,4.9536,5.0009,5.0336,4.8922,4.7558,4.6349,4.5589,4.4601,4.3449,4.3344,4.3344,4.3344,4.3344,4.3344,4.3344,4.3344,4.3344,4.3344,4.3344,4.3344,4.3409,4.4004,4.3958,4.3609,4.4113,4.414,4.3644,4.3929,4.4138,4.4121,4.4457,4.4457,4.4179,4.4187,4.3927,4.342,4.3149,4.2675,4.1931,4.2262,4.2526,4.2493,4.2783,4.3208,4.3651,4.3173,4.3013,4.319,4.2672,4.2506,4.2946,4.3014,4.3217,4.3673,4.4012,4.4164,4.4142,4.4108,4.3954,4.3573,4.2517,4.1709,4.1933,4.1981,4.1917,4.1593,4.1528,4.1412,4.1053,4.0812,4.0451,4.0408,4.0572,4.0834,4.1033,4.0918,4.105,4.1241,4.0762,4.0121,4.0087,4.0087,4.0087,4.0087,4.0087,4.007,3.9833,3.9542,3.9437,3.9209,3.8414,3.7674,3.7847,3.7557,3.6977,3.5845,3.4438,3.3864,3.2931,3.2019,3.1541,3.1467,3.1467,3.1467,5.1229,5.1229,5.1229,5.1229,5.1065,4.9823,4.9524,4.9667,4.9112,4.9135,4.9836,5.0534,5.1005,5.1171,5.0288,4.9219,4.7975,4.6219,4.4706,4.3688,4.3735,4.363,4.3409,4.363,4.3786,4.3834,4.4113,4.4266,4.4266,4.4266,4.4266,4.4343,4.493,4.5085,4.4802,4.5179,4.5148,4.4837,4.4697,4.457,4.457,4.457,4.472,4.4869,4.4923,4.4667,4.4085,4.4068,4.3852,4.3425,4.3718,4.395,4.3955,4.4438,4.4778,4.4759,4.4272,4.3955,4.3952,4.3423,4.3267,4.3724,4.3792,4.4045,4.4519,4.457,4.457,4.457,4.457,4.457,4.4384,4.3529,4.2831,4.2831,4.2831,4.2691,4.2458,4.2395,4.2395,4.233,4.2024,4.1821,4.1803,4.2121,4.2392,4.2699,4.2186,4.2168,4.2066,4.1305,4.0307,4.0138,4.0087,4.0087,4.0087,4.0087,4.0087,3.9952,3.9542,3.9542,3.9437,3.8652,3.8262,3.8486,3.8246,3.76,3.6541,3.5032,3.3925,3.2991,3.2138,3.1497,3.1467,3.1467,3.1467,5.1229,5.1229,5.1229,5.1308,5.1206,4.999,4.9892,5.0553,4.9563,5.0071,5.1451,5.1849,5.24,5.2956,5.201,5.1333,5.0123,4.7246,4.5273,4.4584,4.4772,4.4419,4.3615,4.4419,4.4796,4.4781,4.569,4.6103,4.5961,4.5889,4.5889,4.6103,4.6103,4.6233,4.6438,4.5859,4.5568,4.5505,4.5026,4.4587,4.457,4.4609,4.4906,4.5355,4.5459,4.5528,4.5493,4.5493,4.5297,4.5229,4.528,4.5241,4.5305,4.5711,4.6024,4.602,4.5552,4.5304,4.5286,4.4773,4.4333,4.4434,4.4519,4.4468,4.4536,4.457,4.457,4.457,4.457,4.457,4.457,4.444,4.4327,4.457,4.431,4.3989,4.3486,4.3306,4.3306,4.329,4.3251,4.3331,4.353,4.3893,4.4084,4.366,4.3301,4.2963,4.2489,4.1644,4.0899,4.0358,4.0121,4.0087,4.0087,4.0087,4.0087,4.002,3.9542,3.9315,3.942,3.8978,3.8816,3.887,3.8745,3.8157,3.7393,3.5947,3.466,3.3617,3.2609,3.1657,3.1467,3.1467,3.1467,5.1229,5.1229,5.1229,5.1635,5.2137,5.0953,5.094,5.1817,5.1205,5.1303,5.1993,5.2714,5.3195,5.3179,5.2383,5.1789,5.1349,4.9142,4.7478,4.6579,4.6513,4.606,4.5478,4.5618,4.5778,4.5778,4.6032,4.6244,4.6244,4.6244,4.6173,4.6314,4.6884,4.7208,4.7243,4.6691,4.6439,4.6287,4.5213,4.457,4.4626,4.4998,4.532,4.5511,4.5865,4.6288,4.6774,4.6401,4.6134,4.6088,4.6489,4.6898,4.7226,4.7459,4.7396,4.703,4.6399,4.5862,4.5476,4.4944,4.457,4.457,4.457,4.457,4.457,4.457,4.457,4.457,4.457,4.457,4.457,4.457,4.457,4.457,4.457,4.4514,4.4196,4.4196,4.4196,4.4236,4.4563,4.4793,4.4833,4.5127,4.5005,4.4712,4.4014,4.3318,4.2946,4.1965,4.1221,4.0882,4.0527,4.0087,4.0087,4.0087,4.0087,4.0087,3.9731,3.9489,3.9542,3.9542,3.9385,3.9262,3.9086,3.8663,3.7882,3.6901,3.5571,3.4311,3.3326,3.2494,3.176,3.1644,3.1839,5.1464,5.1804,5.1804,5.2332,5.3028,5.1884,5.1898,5.2498,5.2122,5.2082,5.2627,5.3179,5.3518,5.3348,5.2784,5.2487,5.235,5.1355,5.0156,4.874,4.7967,4.7287,4.6394,4.6592,4.673,4.6815,4.7104,4.7239,4.7223,4.7239,4.7239,4.7389,4.7868,4.8161,4.8061,4.7497,4.7225,4.6965,4.5986,4.5326,4.5319,4.563,4.5965,4.6209,4.6571,4.7088,4.7656,4.7324,4.7132,4.7176,4.7512,4.7937,4.8267,4.8249,4.8035,4.7428,4.6756,4.6143,4.5563,4.4961,4.457,4.457,4.457,4.457,4.457,4.457,4.457,4.457,4.457,4.457,4.457,4.457,4.457,4.457,4.457,4.457,4.4626,4.4814,4.4889,4.5035,4.539,4.5648,4.5545,4.5511,4.5372,4.5093,4.4388,4.3453,4.3081,4.2202,4.1627,4.1035,4.0409,4.0121,4.0087,4.0087,4.0087,4.0087,4.002,3.9901,3.9901,3.9901,3.985,3.9782,3.961,3.9246,3.8494,3.7622,3.6496,3.526,3.4125,3.3441,3.2808,3.2526,3.2587,5.1957,5.2854,5.2927,5.3098,5.3437,5.2749,5.2657,5.2902,5.2323,5.2557,5.3348,5.3433,5.3518,5.3518,5.3348,5.3348,5.3416,5.3213,5.2253,5.0793,4.9526,4.8142,4.6981,4.7373,4.7655,4.7803,4.8433,4.8798,4.8656,4.8719,4.9001,4.8798,4.8798,4.894,4.8771,4.8257,4.7824,4.7545,4.6913,4.6549,4.6341,4.643,4.671,4.7255,4.7385,4.7697,4.8114,4.8132,4.8172,4.8267,4.821,4.8229,4.8324,4.8324,4.8035,4.7428,4.6774,4.6143,4.5545,4.4961,4.4665,4.4703,4.4759,4.4682,4.4869,4.4944,4.4961,4.4906,4.4852,4.4797,4.4797,4.4852,4.4852,4.4776,4.4814,4.4759,4.4776,4.5232,4.5511,4.5648,4.6014,4.6192,4.5699,4.5597,4.5284,4.4944,4.4635,4.3859,4.2963,4.2252,4.1576,4.0967,4.0392,4.0121,4.0087,4.0087,4.0087,4.0087,4.0087,4.0087,4.0087,4.0087,4.0087,4.007,4.002,3.961,3.9151,3.8328,3.7227,3.5991,3.5112,3.4463,3.3833,3.3276,3.3125,5.2782,5.3355,5.3339,5.3567,5.3742,5.3101,5.3337,5.4015,5.3344,5.3195,5.3501,5.3518,5.3568,5.3501,5.3501,5.3518,5.3551,5.3534,5.2689,5.1305,5.0837,4.967,4.8506,4.8433,4.8576,4.8656,4.8861,4.9001,4.9018,4.9018,4.9018,4.9018,4.9018,4.9001,4.8944,4.8802,4.8264,4.7781,4.7575,4.7068,4.6602,4.6955,4.7194,4.7385,4.7797,4.8132,4.8306,4.8324,4.8324,4.8324,4.8324,4.8324,4.8324,4.8306,4.8035,4.747,4.6801,4.6143,4.5545,4.4998,4.4852,4.5232,4.5267,4.5459,4.5933,4.5915,4.5915,4.5915,4.5915,4.5883,4.5915,4.5865,4.5865,4.5865,4.5511,4.5407,4.5732,4.6046,4.6143,4.6192,4.6288,4.624,4.6063,4.5732,4.5407,4.5178,4.4766,4.4231,4.3234,4.2455,4.1813,4.1153,4.0595,4.0273,4.0087,4.0087,4.0087,4.0087,4.0087,4.0087,4.0087,4.0087,4.0087,4.007,4.007,3.9782,3.9615,3.9143,3.7904,3.6594,3.588,3.5132,3.4076,3.3425,3.3499,5.341,5.3742,5.3742,5.3896,5.4166,5.3806,5.3844,5.4007,5.3721,5.3518,5.3568,5.3832,5.3929,5.3994,5.4264,5.4437,5.4356,5.3781,5.2848,5.1725,5.0617,4.9683,4.9058,4.9001,4.9018,4.9018,4.9018,4.9018,4.9018,4.9018,4.9018,4.9018,4.9018,4.9168,4.9445,4.935,4.9114,4.8657,4.8514,4.8136,4.7327,4.7572,4.7756,4.7838,4.8114,4.8324,4.8324,4.8324,4.8324,4.8324,4.8324,4.8324,4.8324,4.8324,4.8132,4.7738,4.7176,4.6664,4.6305,4.5699,4.5545,4.5783,4.5865,4.6063,4.6288,4.6365,4.6365,4.6365,4.6365,4.6365,4.6365,4.6365,4.6507,4.6664,4.6257,4.5915,4.6046,4.6209,4.624,4.6143,4.624,4.6288,4.6112,4.5699,4.5425,4.5142,4.4759,4.4169,4.3487,4.2777,4.2016,4.1305,4.0696,4.0307,4.0104,4.0087,4.0087,4.0087,4.0087,4.0087,4.0087,4.0087,4.0087,4.0087,4.0087,3.9969,3.9631,3.9172,3.8204,3.7109,3.6476,3.5716,3.4759,3.4053,3.4083,5.3756,5.4113,5.4039,5.4261,5.4447,5.4465,5.4144,5.3703,5.3685,5.3717,5.3946,5.4482,5.4695,5.4757,5.5045,5.5451,5.5341,5.3853,5.2823,5.1554,5.022,4.9069,4.9069,4.9018,4.9018,4.9018,4.9018,4.9018,4.9018,4.9018,4.9018,4.9018,4.9018,4.9359,4.9821,5.002,5.0013,4.9793,4.9704,4.9252,4.847,4.8281,4.8172,4.821,4.8229,4.8324,4.8324,4.8324,4.8324,4.8324,4.8324,4.8324,4.8324,4.8324,4.8267,4.8114,4.7656,4.7281,4.7237,4.6618,4.6365,4.6478,4.6524,4.6571,4.671,4.6783,4.6801,4.6829,4.66,4.6738,4.6756,4.6646,4.6801,4.7062,4.6756,4.6143,4.5783,4.5996,4.6192,4.5699,4.6112,4.5982,4.5699,4.5425,4.5232,4.4906,4.4614,4.4219,4.3656,4.3047,4.2202,4.1305,4.0764,4.0273,4.0155,4.0087,4.0087,4.0087,4.0087,4.0087,4.0087,4.0087,4.0087,4.0087,4.0087,3.9731,3.9176,3.8608,3.8076,3.7324,3.6507,3.6076,3.5567,3.5075,3.4921,5.4121,5.4508,5.4491,5.4157,5.3805,5.3721,5.3986,5.4391,5.4374,5.4668,5.5161,5.5379,5.546,5.5424,5.5083,5.4765,5.4715,5.3346,5.1882,5.0567,4.9565,4.9035,4.9063,4.9107,4.9063,4.9063,4.9001,4.9063,4.9063,4.9168,4.9063,4.9124,4.9273,4.9359,5.0033,5.0627,5.0797,5.0659,5.0544,5.0108,4.9237,4.8581,4.8324,4.8324,4.8324,4.8324,4.8324,4.8324,4.8324,4.8324,4.8324,4.8324,4.8324,4.8324,4.8324,4.8172,4.7756,4.7428,4.7324,4.6937,4.6664,4.715,4.7219,4.7385,4.7897,4.7838,4.7838,4.7879,4.7879,4.7738,4.7656,4.7367,4.7237,4.715,4.671,4.6161,4.5732,4.5996,4.6192,4.6112,4.5833,4.5648,4.5459,4.5052,4.4814,4.4626,4.4418,4.4181,4.3758,4.3284,4.2422,4.1491,4.0832,4.0358,4.0138,4.0087,4.0087,4.0087,4.0087,4.0087,4.0087,4.0087,4.0087,4.0087,4.0087,3.961,3.8924,3.869,3.8253,3.7408,3.6492,3.6117,3.5718,3.5619,3.5668,5.4179,5.4144,5.4461,5.4353,5.4093,5.4391,5.4774,5.5024,5.5084,5.532,5.5706,5.6077,5.6044,5.5741,5.5592,5.5422,5.473,5.3407,5.1791,5.0476,4.9918,4.9797,4.9622,4.978,4.9838,4.958,4.9462,4.9622,4.9896,4.9936,5.005,4.9993,4.9953,5.0445,5.0911,5.1343,5.1491,5.1336,5.0986,5.0417,4.9572,4.8765,4.8324,4.8324,4.8324,4.8324,4.8324,4.8324,4.8324,4.8324,4.8324,4.8324,4.8324,4.8324,4.8324,4.8229,4.8035,4.7797,4.7697,4.7688,4.7652,4.7779,4.7983,4.8137,4.8269,4.8324,4.8324,4.8324,4.8267,4.821,4.7897,4.7656,4.7324,4.6864,4.6336,4.5833,4.5665,4.5783,4.5833,4.563,4.5214,4.5142,4.4906,4.472,4.4665,4.457,4.457,4.4333,4.3961,4.3436,4.2658,4.1796,4.1018,4.0476,4.0189,4.0087,4.0087,4.0087,4.0087,4.0087,4.0087,4.0087,4.0087,4.0087,4.007,3.9279,3.8707,3.8525,3.8019,3.6753,3.5958,3.5846,3.5718,3.5733,3.5894,5.4295,5.3881,5.4482,5.4757,5.4861,5.5361,5.5706,5.5875,5.5875,5.5897,5.599,5.6593,5.636,5.5879,5.6007,5.5878,5.4802,5.3711,5.1827,5.0509,5.0733,5.0554,5.0407,5.0554,5.077,5.0352,5.0241,5.05,5.0823,5.1086,5.0823,5.0981,5.1034,5.1289,5.1964,5.2076,5.2182,5.222,5.132,5.0563,4.9795,4.9009,4.8495,4.8586,4.8495,4.8458,4.8421,4.8364,4.8324,4.8324,4.8324,4.8324,4.8324,4.8324,4.8324,4.8324,4.8229,4.8288,4.8384,4.8549,4.8601,4.8421,4.8657,4.8657,4.8439,4.8324,4.8324,4.8267,4.8172,4.7838,4.7342,4.6999,4.671,4.6288,4.5732,4.5407,4.5372,4.5355,4.5125,4.4852,4.4797,4.4814,4.4703,4.4626,4.4626,4.4553,4.4553,4.4418,4.4012,4.3504,4.2692,4.1965,4.1153,4.0527,4.0206,4.002,4.002,3.9782,3.985,3.9952,3.9952,4.007,4.007,4.007,3.985,3.9226,3.8707,3.8525,3.7674,3.6211,3.6037,3.6492,3.6305,3.591,3.6243,5.4878,5.532,5.5495,5.5552,5.5552,5.5631,5.6078,5.6616,5.6579,5.6667,5.658,5.6703,5.6328,5.566,5.4954,5.4062,5.3226,5.2586,5.1938,5.1051,5.1189,5.1086,5.1034,5.1189,5.1411,5.1544,5.1292,5.1138,5.1207,5.1086,5.1376,5.1172,5.1274,5.1766,5.2425,5.2372,5.2724,5.2932,5.1761,5.0735,5.0354,4.9491,4.8949,4.9126,4.893,4.8795,4.8709,4.8495,4.8324,4.8324,4.8324,4.8324,4.8324,4.8324,4.8324,4.8306,4.8344,4.8495,4.8728,4.8847,4.8897,4.8829,4.8863,4.8692,4.8421,4.8267,4.8132,4.8035,4.7715,4.7281,4.66,4.624,4.5883,4.5494,4.5214,4.4814,4.4814,4.4814,4.4814,4.4626,4.457,4.457,4.457,4.457,4.457,4.4485,4.4367,4.4113,4.3707,4.3234,4.2625,4.1914,4.1238,4.0696,4.0223,4.0003,3.9833,3.9368,3.9315,3.9558,3.9662,3.9885,4.0003,4.007,3.9952,3.9558,3.9156,3.869,3.8076,3.7115,3.7175,3.7354,3.7071,3.6784,3.7115,5.5379,5.5724,5.6132,5.6313,5.6295,5.6305,5.6482,5.6728,5.6412,5.6218,5.6181,5.6143,5.5721,5.5023,5.462,5.3749,5.2889,5.2662,5.2242,5.1759,5.1988,5.1922,5.1759,5.194,5.2353,5.2509,5.2307,5.2149,5.2196,5.2196,5.2216,5.2506,5.2488,5.2899,5.344,5.3515,5.3438,5.3442,5.2103,5.1083,5.0935,4.9836,4.9439,4.9386,4.9356,4.9234,4.9139,4.8829,4.864,4.8586,4.8439,4.8344,4.8324,4.8324,4.8324,4.8344,4.8477,4.8639,4.893,4.9062,4.9139,4.8911,4.8897,4.8674,4.8327,4.8035,4.7715,4.7324,4.7132,4.6618,4.5996,4.5648,4.5355,4.5035,4.4759,4.4626,4.457,4.457,4.457,4.457,4.457,4.457,4.457,4.457,4.457,4.4434,4.4198,4.3792,4.3352,4.2743,4.2151,4.1418,4.0692,4.0165,3.9711,3.9487,3.9209,3.8799,3.8924,3.9139,3.9368,3.9662,3.9901,4.007,3.9952,3.9782,3.9315,3.8799,3.8374,3.8092,3.7921,3.7748,3.7764,3.7822,3.8092,5.5684,5.5759,5.6356,5.6645,5.6622,5.6575,5.652,5.6418,5.5904,5.5537,5.5354,5.5299,5.4913,5.4326,5.4087,5.3775,5.3225,5.3146,5.2813,5.2554,5.2787,5.2787,5.2662,5.2831,5.3103,5.2999,5.3042,5.3206,5.3042,5.3115,5.3447,5.3569,5.3795,5.4153,5.4446,5.4317,5.4217,5.3493,5.2351,5.1491,5.0858,5.0169,4.9673,4.9719,4.9645,4.9636,4.9589,4.9234,4.9062,4.8915,4.8711,4.8476,4.8421,4.8326,4.8306,4.8382,4.8586,4.8795,4.9075,4.9108,4.9139,4.8911,4.8897,4.8603,4.8059,4.7512,4.6955,4.6383,4.6192,4.5965,4.5459,4.5337,4.5089,4.4797,4.4609,4.457,4.457,4.457,4.457,4.457,4.457,4.4553,4.4519,4.4502,4.4485,4.4062,4.3826,4.3115,4.2642,4.1982,4.1371,4.0707,4.0027,3.9495,3.9011,3.8723,3.8286,3.7774,3.8342,3.8924,3.9156,3.9437,3.9731,4.0087,4.007,3.9901,3.9385,3.9102,3.9049,3.8832,3.843,3.8374,3.8668,3.8778,3.8887,5.5649,5.5624,5.5752,5.576,5.5752,5.5731,5.5721,5.5702,5.5537,5.517,5.4546,5.4546,5.4179,5.3757,5.3573,5.3408,5.3298,5.3274,5.3195,5.3017,5.3103,5.3164,5.3042,5.3103,5.3206,5.3206,5.3206,5.3206,5.3295,5.3584,5.374,5.3941,5.427,5.4628,5.4979,5.4809,5.4273,5.367,5.2537,5.1385,5.0453,5.0146,5.0202,5.0336,5.0225,5.0043,4.9974,4.9664,4.9445,4.9386,4.9062,4.8847,4.8779,4.8495,4.8344,4.8306,4.8421,4.8657,4.9171,4.9171,4.8959,4.881,4.8776,4.8384,4.7583,4.6864,4.6288,4.5681,4.5597,4.5407,4.4944,4.4759,4.4665,4.4626,4.457,4.457,4.457,4.457,4.457,4.457,4.457,4.4502,4.4451,4.4418,4.435,4.3859,4.3335,4.2625,4.1842,4.1165,4.0606,3.9957,3.9346,3.8717,3.823,3.7946,3.7658,3.6964,3.7774,3.8635,3.8978,3.9315,3.9833,4.0087,4.0087,4.0087,3.9782,3.9679,3.9799,3.9714,3.9351,3.9542,3.985,3.9833,3.968,5.6319,5.6235,5.5776,5.5592,5.5537,5.5115,5.4932,5.4821,5.4418,5.4069,5.3885,5.4252,5.4418,5.4418,5.4546,5.4308,5.3977,5.3849,5.3592,5.3243,5.3206,5.3206,5.3164,5.3206,5.3206,5.3206,5.323,5.3381,5.3505,5.3758,5.3977,5.4491,5.4731,5.5053,5.538,5.5262,5.4619,5.3689,5.2376,5.114,5.0416,5.0294,5.0504,5.0683,5.0523,5.0442,5.0336,5.0068,4.9853,4.97,4.9276,4.8897,4.8813,4.8586,4.8364,4.864,4.8421,4.8604,4.9011,4.8963,4.8723,4.8366,4.8124,4.7482,4.6571,4.6063,4.563,4.5035,4.4998,4.4852,4.4665,4.4626,4.457,4.457,4.457,4.457,4.457,4.457,4.457,4.457,4.4502,4.4316,4.4096,4.3859,4.3572,4.2997,4.2506,4.1861,4.1112,4.0311,3.9714,3.9218,3.859,3.7978,3.7483,3.7128,3.7144,3.6859,3.744,3.8246,3.8816,3.9262,3.9833,4.0087,4.0087,4.0087,4.0087,4.007,4.002,4.0137,4.0319,4.0368,4.0417,4.0528,4.0429,5.6804,5.6712,5.5721,5.5188,5.495,5.4344,5.4106,5.4014,5.3518,5.3243,5.3353,5.3867,5.462,5.5317,5.5225,5.4748,5.4399,5.4418,5.3922,5.3445,5.3206,5.3206,5.3206,5.3206,5.3206,5.3206,5.3359,5.3604,5.3923,5.4176,5.4609,5.5135,5.5193,5.5431,5.5647,5.5528,5.4994,5.3566,5.1969,5.0898,5.0432,5.0525,5.0624,5.0683,5.0683,5.0683,5.0663,5.0442,5.0249,4.9949,4.9456,4.9075,4.8863,4.8532,4.8421,4.855,4.8383,4.8289,4.8421,4.8348,4.8255,4.7834,4.7198,4.6507,4.5833,4.5425,4.5196,4.4665,4.4665,4.4609,4.457,4.457,4.457,4.457,4.457,4.457,4.457,4.457,4.457,4.457,4.4367,4.3876,4.3606,4.325,4.2777,4.2134,4.161,4.1066,4.0314,3.9471,3.8854,3.8325,3.7815,3.7203,3.6692,3.6399,3.6384,3.6798,3.7397,3.8019,3.8745,3.9385,3.9952,4.0087,4.0087,4.0087,4.0087,4.0121,4.0171,4.0417,4.0607,4.0703,4.0797,4.0949,4.1087,5.6804,5.6675,5.517,5.4161,5.35,5.3335,5.3316,5.339,5.3261,5.328,5.3463,5.3537,5.4546,5.528,5.5299,5.4858,5.4436,5.4418,5.394,5.3482,5.3206,5.3146,5.3103,5.3103,5.3164,5.317,5.3465,5.3924,5.4459,5.4787,5.5073,5.5335,5.5574,5.575,5.5673,5.5421,5.4664,5.3251,5.1677,5.0853,5.0623,5.0663,5.0683,5.0683,5.0683,5.0683,5.0683,5.0504,5.0317,4.9999,4.9532,4.9171,4.8863,4.8513,4.8402,4.8231,4.8212,4.7999,4.7725,4.7666,4.7518,4.7132,4.643,4.5699,4.5372,4.4906,4.4665,4.4626,4.457,4.457,4.457,4.457,4.457,4.457,4.457,4.457,4.457,4.457,4.457,4.457,4.4299,4.3859,4.304,4.2631,4.203,4.1371,4.0838,4.0314,3.9462,3.8623,3.7953,3.7408,3.6948,3.6384,3.5831,3.5782,3.6117,3.6753,3.7456,3.8189,3.8908,3.9489,4.007,4.0087,4.0087,4.0087,4.0087,4.0121,4.0254,4.0655,4.0949,4.1223,4.1331,4.1402,4.1534,5.7262,5.673,5.6106,5.5133,5.3904,5.3408,5.3206,5.3206,5.3225,5.383,5.4675,5.5225,5.6033,5.6675,5.6767,5.6014,5.5262,5.5133,5.4308,5.3555,5.3164,5.2937,5.2831,5.2937,5.2999,5.2907,5.3354,5.4071,5.461,5.5101,5.5603,5.5841,5.5928,5.592,5.5755,5.4901,5.3877,5.3087,5.1683,5.0721,5.0683,5.0683,5.0683,5.0683,5.0399,5.0358,5.0272,5.0068,4.9879,4.9673,4.9356,4.9075,4.8826,4.8458,4.8098,4.7765,4.7688,4.7325,4.6954,4.699,4.7062,4.6161,4.5459,4.4944,4.4998,4.472,4.4626,4.457,4.457,4.457,4.457,4.457,4.457,4.457,4.457,4.457,4.457,4.457,4.457,4.457,4.4316,4.3944,4.2985,4.1976,4.1314,4.0644,4.0077,3.945,3.86,3.793,3.7306,3.6645,3.6182,3.6039,3.5554,3.5668,3.5958,3.6768,3.7573,3.8414,3.9209,3.9662,4.0087,4.0087,4.0087,4.0087,4.0087,4.0087,4.0368,4.0874,4.1446,4.1955,4.1997,4.1853,4.181,5.7666,5.7152,5.6895,5.5868,5.4399,5.3794,5.3427,5.3261,5.35,5.4473,5.5941,5.64,5.6895,5.7428,5.7226,5.6455,5.5354,5.5005,5.4289,5.3647,5.3103,5.2893,5.2769,5.2857,5.3091,5.2859,5.3438,5.432,5.4833,5.5253,5.5681,5.6025,5.6203,5.6122,5.5613,5.4226,5.3203,5.2799,5.1664,5.0721,5.0683,5.0565,5.0504,5.0421,5.0116,4.9949,4.9879,4.97,4.9504,4.9326,4.9075,4.8863,4.8564,4.8218,4.7688,4.7215,4.6783,4.6354,4.5904,4.6189,4.63,4.5425,4.4998,4.4665,4.457,4.457,4.457,4.457,4.457,4.457,4.457,4.457,4.457,4.457,4.457,4.457,4.457,4.457,4.457,4.4553,4.4164,4.3529,4.1982,4.0783,3.9857,3.9341,3.904,3.848,3.7754,3.7144,3.6737,3.6072,3.5449,3.5444,3.5439,3.5608,3.59,3.7219,3.8035,3.8832,3.9506,3.9901,4.0087,4.0087,4.0087,4.0087,4.0171,4.0303,4.0672,4.1133,4.1647,4.2132,4.2262,4.208,4.1853,5.7886,5.7868,5.7079,5.5849,5.4454,5.4399,5.394,5.35,5.4106,5.5225,5.6473,5.6143,5.6216,5.6657,5.6363,5.5519,5.484,5.4546,5.4032,5.3408,5.3206,5.3164,5.3085,5.3109,5.3304,5.3758,5.4217,5.4693,5.5084,5.5536,5.5865,5.5913,5.5979,5.5952,5.5933,5.4181,5.3261,5.2933,5.1433,5.0856,5.0565,5.0336,5.0225,5.0019,4.9719,4.9522,4.9475,4.9337,4.9158,4.8949,4.8881,4.8566,4.8087,4.7497,4.6855,4.6146,4.5516,4.4662,4.3676,4.4848,4.4992,4.4855,4.4626,4.4626,4.457,4.457,4.457,4.457,4.457,4.457,4.457,4.457,4.457,4.457,4.457,4.457,4.457,4.4553,4.4553,4.4209,4.3613,4.2824,4.108,3.9511,3.8428,3.7854,3.7838,3.7456,3.6798,3.6461,3.6165,3.5864,3.5299,3.5329,3.5409,3.5374,3.5919,3.7318,3.8374,3.9102,3.9627,3.9969,4.0087,4.0087,4.0087,4.0087,4.0286,4.0497,4.0723,4.0951,4.1658,4.2105,4.2253,4.2091,4.1609,5.64,5.6363,5.6106,5.5372,5.4473,5.4418,5.4234,5.4179,5.4876,5.5794,5.6602,5.6455,5.6473,5.6492,5.5904,5.5115,5.4491,5.4381,5.3959,5.328,5.3206,5.2831,5.2839,5.3226,5.3452,5.3572,5.4138,5.4966,5.5224,5.5691,5.5947,5.6019,5.5564,5.5215,5.4885,5.3801,5.2991,5.226,5.1259,5.0565,5.0336,5.0159,4.9949,4.9719,4.9326,4.9108,4.9075,4.893,4.8692,4.8513,4.8458,4.7957,4.7219,4.6517,4.5804,4.4769,4.392,4.3563,4.2894,4.3285,4.3846,4.4169,4.4502,4.4485,4.457,4.457,4.457,4.457,4.457,4.457,4.457,4.457,4.457,4.457,4.457,4.457,4.457,4.4553,4.4468,4.3743,4.3093,4.1156,3.9365,3.8356,3.7259,3.689,3.689,3.6646,3.6117,3.5943,3.5718,3.5653,3.5409,3.5359,3.5379,3.5616,3.6292,3.7626,3.8541,3.9156,3.961,4.002,4.0087,4.0087,4.0087,4.0121,4.0118,4.0209,4.0429,4.0779,4.0838,4.1089,4.1216,4.1033,4.0726,5.5592,5.5618,5.5754,5.5526,5.5041,5.4871,5.4821,5.4895,5.5372,5.5904,5.629,5.6363,5.6161,5.5849,5.5409,5.473,5.4032,5.3959,5.3885,5.3225,5.3206,5.3072,5.3148,5.3376,5.3794,5.3826,5.4408,5.5167,5.5429,5.5692,5.5859,5.5733,5.5078,5.4566,5.4032,5.3186,5.2472,5.1777,5.1064,5.0358,5.0092,4.9827,4.9532,4.9246,4.8945,4.8674,4.8621,4.844,4.8153,4.802,4.7627,4.7098,4.6224,4.5262,4.4476,4.3331,4.2339,4.2141,4.1953,4.195,4.2763,4.3927,4.4147,4.4316,4.4485,4.457,4.457,4.457,4.4553,4.457,4.457,4.457,4.4502,4.4502,4.4192,4.4192,4.3685,4.3635,4.3007,4.2377,4.1486,3.9558,3.7919,3.7079,3.6211,3.6006,3.5894,3.5718,3.5604,3.5554,3.5489,3.5489,3.5459,3.5365,3.5642,3.612,3.6886,3.8003,3.8761,3.9437,3.9731,4.0087,4.0087,4.007,4.0054,4.0019,3.9815,3.9839,3.9735,3.9348,3.8911,3.934,3.9974,3.9945,3.9652,5.55,5.5631,5.5962,5.6067,5.6007,5.5628,5.5521,5.5595,5.5613,5.565,5.5742,5.5767,5.5374,5.4669,5.4461,5.3995,5.3463,5.3335,5.3298,5.3243,5.3206,5.3322,5.3567,5.3832,5.4198,5.4752,5.5186,5.538,5.5665,5.5708,5.5729,5.534,5.4551,5.3776,5.2965,5.2173,5.1653,5.1209,5.065,5.0038,4.9773,4.9356,4.9075,4.8847,4.8604,4.8421,4.8364,4.821,4.7824,4.7366,4.6705,4.5925,4.4956,4.3802,4.2903,4.1938,4.0878,4.09,4.1086,4.1153,4.1796,4.2929,4.32,4.3741,4.4231,4.4434,4.4468,4.4451,4.4434,4.4519,4.457,4.4468,4.4367,4.4001,4.3498,4.3024,4.2385,4.1812,4.1026,4.0285,3.9532,3.8175,3.7002,3.6022,3.5782,3.5718,3.5668,3.5668,3.5554,3.5554,3.5489,3.5474,3.5429,3.534,3.5791,3.6644,3.7419,3.8453,3.9279,3.9901,4.007,4.0087,4.0087,4.0054,4.0003,3.9884,3.9561,3.9088,3.8696,3.8235,3.775,3.8116,3.8946,3.8845,3.8687,5.4041,5.4311,5.4446,5.4688,5.501,5.5503,5.5675,5.5656,5.5694,5.5956,5.6481,5.5562,5.4997,5.4772,5.3926,5.3487,5.3298,5.3206,5.3225,5.3206,5.323,5.3484,5.3796,5.4153,5.4591,5.5034,5.5375,5.5516,5.5605,5.5645,5.5032,5.4393,5.3604,5.2627,5.1675,5.065,5.0596,5.0449,4.9959,4.9646,4.9386,4.9029,4.8763,4.8513,4.8402,4.8286,4.819,4.7897,4.7391,4.6633,4.5935,4.4989,4.308,4.262,4.2059,4.0859,4.029,4.0223,4.0375,4.0426,4.0916,4.1745,4.1965,4.2625,4.3403,4.4028,4.4147,4.4028,4.4062,4.4113,4.4028,4.3944,4.3753,4.3283,4.2626,4.1789,4.1102,4.0353,3.9577,3.8821,3.802,3.7296,3.61,3.5831,3.5604,3.5554,3.5554,3.5604,3.5668,3.5733,3.5653,3.5638,3.5976,3.6136,3.666,3.7451,3.8141,3.8837,3.961,4.007,4.0087,4.0087,4.0087,3.9969,3.98,3.9495,3.9123,3.8616,3.7973,3.7483,3.7085,3.7454,3.7772,3.7797,3.7838,5.3851,5.4083,5.4251,5.4541,5.5028,5.5465,5.5693,5.5703,5.5687,5.5885,5.5833,5.5144,5.4814,5.4685,5.4094,5.368,5.3462,5.3444,5.3381,5.323,5.34,5.3739,5.4118,5.4516,5.4979,5.5306,5.5455,5.547,5.5278,5.4649,5.403,5.3938,5.2691,5.1613,5.078,5.0011,4.9529,4.9512,4.9386,4.9139,4.8963,4.8744,4.8513,4.8364,4.8306,4.8172,4.7955,4.7512,4.6805,4.5695,4.4888,4.3685,4.2043,4.157,4.1246,4.0239,4.0155,4.0087,4.0155,4.0138,4.0527,4.095,4.1187,4.1677,4.2337,4.298,4.3081,4.3115,4.3403,4.3572,4.3436,4.3284,4.2896,4.2507,4.1526,4.0495,3.9766,3.9029,3.8294,3.753,3.6831,3.6222,3.5733,3.5619,3.5668,3.5943,3.618,3.6368,3.6368,3.6305,3.6228,3.6102,3.6676,3.7128,3.7716,3.8157,3.8728,3.9246,3.9714,4.007,4.007,4.0087,4.0053,3.9816,3.9478,3.9105,3.8724,3.7936,3.7263,3.6835,3.6463,3.6564,3.6847,3.7039,3.7178,5.4503,5.4597,5.4979,5.5306,5.5662,5.5698,5.5698,5.5676,5.5712,5.5316,5.4829,5.4604,5.4629,5.4635,5.4373,5.4137,5.396,5.387,5.3624,5.3295,5.3701,5.4083,5.442,5.4895,5.5186,5.5512,5.5588,5.5295,5.4345,5.3671,5.3334,5.3529,5.1831,5.0628,5.0084,4.9332,4.8915,4.8897,4.8897,4.8813,4.8728,4.8513,4.8324,4.8306,4.8172,4.7977,4.753,4.7006,4.6318,4.4791,4.3558,4.2601,4.1426,4.0646,4.0256,4.0155,4.0087,4.0087,4.0087,4.0087,4.0392,4.0798,4.1119,4.1119,4.1491,4.2303,4.2557,4.2422,4.2625,4.2861,4.2811,4.2436,4.2038,4.1328,4.032,3.9264,3.832,3.767,3.7138,3.6612,3.6599,3.607,3.6352,3.6368,3.6477,3.6631,3.6814,3.7055,3.716,3.71,3.698,3.6843,3.7365,3.8003,3.8398,3.8854,3.9315,3.9714,3.9952,4.007,4.007,4.0053,3.9952,3.9506,3.8969,3.8628,3.8179,3.7467,3.6842,3.6372,3.6021,3.5768,3.5926,3.6315,3.6468,5.4671,5.4988,5.5399,5.564,5.5703,5.5684,5.5684,5.5703,5.5704,5.5585,5.5394,5.5107,5.4952,5.4952,5.4701,5.4484,5.4387,5.4221,5.4013,5.3851,5.4048,5.4187,5.4497,5.4724,5.5205,5.5577,5.5528,5.4799,5.3847,5.2952,5.1944,5.1243,5.0291,4.9948,4.9173,4.8532,4.8532,4.8513,4.8513,4.8513,4.8458,4.8439,4.8324,4.8172,4.7977,4.7614,4.7106,4.6365,4.5238,4.3727,4.2963,4.1801,4.0477,4.0189,4.0104,4.0087,4.0087,4.0087,4.0087,4.0087,4.0257,4.029,4.0409,4.0358,4.0747,4.1694,4.2083,4.1847,4.1796,4.2033,4.2066,4.1659,4.1144,4.0188,3.9316,3.8162,3.711,3.6598,3.6091,3.6176,3.6305,3.6569,3.6935,3.7175,3.7354,3.7413,3.7531,3.7706,3.8019,3.806,3.8019,3.7946,3.823,3.8745,3.9036,3.9116,3.9344,3.9514,3.9648,3.9834,3.9969,3.9729,3.9382,3.886,3.8387,3.818,3.7818,3.7162,3.6567,3.6062,3.5827,3.5667,3.5639,3.5926,3.591,5.4282,5.4882,5.5465,5.5684,5.5684,5.5684,5.5684,5.5684,5.5684,5.5684,5.5684,5.5489,5.5375,5.5375,5.5134,5.4867,5.475,5.4566,5.4187,5.4013,5.3992,5.4065,5.4274,5.4273,5.424,5.4492,5.3735,5.3015,5.2862,5.1546,5.0297,5.0048,4.9763,4.9067,4.8324,4.8324,4.8324,4.8324,4.8324,4.8324,4.8324,4.8324,4.8324,4.8132,4.7797,4.7342,4.6728,4.5895,4.4576,4.303,4.1869,4.1155,4.0273,4.0104,4.0087,4.0087,4.0087,4.0087,4.0087,4.0087,4.0087,4.0087,4.0087,4.0189,4.0239,4.1001,4.1018,4.0815,4.0832,4.1035,4.1018,4.0696,4.0282,3.9473,3.9061,3.8359,3.7508,3.6862,3.6785,3.7042,3.716,3.7219,3.7456,3.7531,3.779,3.8608,3.8625,3.8717,3.895,3.8689,3.8755,3.8722,3.8821,3.8933,3.899,3.9026,3.9142,3.9276,3.9292,3.9071,3.895,3.8952,3.8711,3.8468,3.8216,3.8014,3.7568,3.6986,3.6387,3.5871,3.5739,3.5622,3.5639,3.5639,3.5673,5.3663,5.4414,5.5068,5.5357,5.5415,5.5491,5.5511,5.553,5.5645,5.5684,5.5684,5.5684,5.5684,5.5684,5.5684,5.5399,5.5115,5.4838,5.4369,5.3885,5.3736,5.3658,5.3462,5.3306,5.3256,5.2729,5.1982,5.18,5.1718,5.0341,4.9571,4.965,4.9104,4.8324,4.8324,4.8324,4.8324,4.8324,4.8324,4.8324,4.8324,4.8267,4.8229,4.8035,4.7614,4.6955,4.6336,4.5333,4.4077,4.267,4.1137,4.051,4.0189,4.0087,4.0087,4.0087,4.0087,4.0087,4.0087,4.0087,4.0087,4.0087,4.0087,4.0087,4.0155,4.0172,4.0155,4.0172,4.0172,4.0172,4.0172,4.0104,3.9625,3.9152,3.8832,3.8525,3.7831,3.7219,3.7499,3.779,3.7962,3.7978,3.8092,3.8092,3.8547,3.9408,3.9733,3.9966,3.9948,3.9278,3.8938,3.8839,3.8723,3.8824,3.8973,3.8736,3.8667,3.8582,3.8497,3.8139,3.7912,3.8151,3.8321,3.8419,3.8181,3.7875,3.7504,3.6957,3.637,3.581,3.565,3.5622,3.5639,3.5639,3.5639,5.3299,5.3472,5.3626,5.3703,5.3799,5.4414,5.4722,5.4838,5.5395,5.5684,5.5549,5.5645,5.5684,5.5665,5.5684,5.5489,5.5134,5.4876,5.4401,5.3868,5.3379,5.3118,5.2725,5.2214,5.2246,5.1662,5.0974,5.0792,5.0511,4.9471,4.8765,4.8716,4.8678,4.8324,4.8324,4.8324,4.8324,4.8324,4.8306,4.8267,4.8229,4.819,4.7955,4.7572,4.6955,4.6305,4.5542,4.4454,4.3365,4.2204,4.0984,4.029,4.0087,4.0087,4.0087,4.0087,4.0087,4.0087,4.0087,4.0087,4.0087,4.0087,4.0087,4.0087,4.0087,4.0087,4.0104,4.0104,4.0121,4.0121,4.0121,4.0121,3.9816,3.9119,3.869,3.8414,3.7978,3.7847,3.7962,3.8358,3.869,3.8978,3.9401,3.9385,3.9437,3.9952,3.98,3.9982,3.962,3.937,3.9022,3.8785,3.8548,3.8751,3.8836,3.8179,3.8024,3.7905,3.7844,3.7695,3.7644,3.7611,3.7746,3.8086,3.7901,3.7567,3.7182,3.6939,3.652,3.6011,3.5739,3.5622,3.5622,3.5639,3.5639]}]]